<?xml version="1.0" encoding="UTF-8" standalone="no" ?>
<gpx xmlns="http://www.topografix.com/GPX/1/1" xmlns:xsi="http://www.w3.org/2001/XMLSchema-instance" xsi:schemaLocation="http://www.topografix.com/GPX/1/1 http://www.topografix.com/GPX/1/1/gpx.xsd" version="1.1" creator="VisuGPX - https://www.visugpx.com">
  <metadata>
    <name>Brujoulsen prépa2</name>
    <desc><![CDATA[Ce circuit correspond à une partie du circuit trail en préparation pour une sortie \"sportive\" des Touroulis]]></desc>
  </metadata>
  <trk>
    <name><![CDATA[2014-04-06-14-1]]></name>
    <trkseg>
      <trkpt lat="44.38296" lon="2.45762">
        <ele>565.4</ele>
        <time>2014-04-06T12:11:07Z</time>
      </trkpt>
      <trkpt lat="44.38296" lon="2.45763">
        <ele>565.4</ele>
        <time>2014-04-06T12:11:07Z</time>
      </trkpt>
      <trkpt lat="44.38302" lon="2.4577">
        <ele>566.2</ele>
        <time>2014-04-06T12:11:14Z</time>
      </trkpt>
      <trkpt lat="44.38311" lon="2.45778">
        <ele>568</ele>
        <time>2014-04-06T12:11:22Z</time>
      </trkpt>
      <trkpt lat="44.38314" lon="2.45783">
        <ele>568.4</ele>
        <time>2014-04-06T12:11:24Z</time>
      </trkpt>
      <trkpt lat="44.38321" lon="2.45793">
        <ele>569.8</ele>
        <time>2014-04-06T12:11:29Z</time>
      </trkpt>
      <trkpt lat="44.38326" lon="2.45799">
        <ele>570.2</ele>
        <time>2014-04-06T12:11:33Z</time>
      </trkpt>
      <trkpt lat="44.38332" lon="2.45806">
        <ele>570.8</ele>
        <time>2014-04-06T12:11:37Z</time>
      </trkpt>
      <trkpt lat="44.38342" lon="2.45814">
        <ele>571.2</ele>
        <time>2014-04-06T12:11:42Z</time>
      </trkpt>
      <trkpt lat="44.38355" lon="2.45823">
        <ele>571.4</ele>
        <time>2014-04-06T12:11:48Z</time>
      </trkpt>
      <trkpt lat="44.38368" lon="2.45834">
        <ele>570.6</ele>
        <time>2014-04-06T12:11:55Z</time>
      </trkpt>
      <trkpt lat="44.38382" lon="2.45851">
        <ele>570</ele>
        <time>2014-04-06T12:12:02Z</time>
      </trkpt>
      <trkpt lat="44.3839" lon="2.45864">
        <ele>569.4</ele>
        <time>2014-04-06T12:12:07Z</time>
      </trkpt>
      <trkpt lat="44.38399" lon="2.45878">
        <ele>568.6</ele>
        <time>2014-04-06T12:12:12Z</time>
      </trkpt>
      <trkpt lat="44.38403" lon="2.45869">
        <ele>566.8</ele>
        <time>2014-04-06T12:12:24Z</time>
      </trkpt>
      <trkpt lat="44.38396" lon="2.45852">
        <ele>566.2</ele>
        <time>2014-04-06T12:12:30Z</time>
      </trkpt>
      <trkpt lat="44.3839" lon="2.45837">
        <ele>565.6</ele>
        <time>2014-04-06T12:12:34Z</time>
      </trkpt>
      <trkpt lat="44.38383" lon="2.45825">
        <ele>564.6</ele>
        <time>2014-04-06T12:12:39Z</time>
      </trkpt>
      <trkpt lat="44.38374" lon="2.45806">
        <ele>564</ele>
        <time>2014-04-06T12:12:46Z</time>
      </trkpt>
      <trkpt lat="44.38367" lon="2.45792">
        <ele>563.8</ele>
        <time>2014-04-06T12:12:51Z</time>
      </trkpt>
      <trkpt lat="44.38361" lon="2.45777">
        <ele>563.6</ele>
        <time>2014-04-06T12:12:56Z</time>
      </trkpt>
      <trkpt lat="44.38357" lon="2.45766">
        <ele>562.8</ele>
        <time>2014-04-06T12:13:00Z</time>
      </trkpt>
      <trkpt lat="44.38351" lon="2.45748">
        <ele>562</ele>
        <time>2014-04-06T12:13:06Z</time>
      </trkpt>
      <trkpt lat="44.38351" lon="2.45729">
        <ele>561.6</ele>
        <time>2014-04-06T12:13:12Z</time>
      </trkpt>
      <trkpt lat="44.38352" lon="2.45725">
        <ele>561.6</ele>
        <time>2014-04-06T12:13:16Z</time>
      </trkpt>
      <trkpt lat="44.38357" lon="2.45711">
        <ele>560.6</ele>
        <time>2014-04-06T12:13:22Z</time>
      </trkpt>
      <trkpt lat="44.38361" lon="2.45699">
        <ele>560.2</ele>
        <time>2014-04-06T12:13:26Z</time>
      </trkpt>
      <trkpt lat="44.38366" lon="2.45691">
        <ele>559.8</ele>
        <time>2014-04-06T12:13:29Z</time>
      </trkpt>
      <trkpt lat="44.38377" lon="2.45672">
        <ele>559.4</ele>
        <time>2014-04-06T12:13:36Z</time>
      </trkpt>
      <trkpt lat="44.38388" lon="2.45656">
        <ele>558.2</ele>
        <time>2014-04-06T12:13:42Z</time>
      </trkpt>
      <trkpt lat="44.384" lon="2.45644">
        <ele>557.6</ele>
        <time>2014-04-06T12:13:48Z</time>
      </trkpt>
      <trkpt lat="44.38401" lon="2.45641">
        <ele>557.6</ele>
        <time>2014-04-06T12:13:49Z</time>
      </trkpt>
      <trkpt lat="44.38417" lon="2.45635">
        <ele>556.6</ele>
        <time>2014-04-06T12:13:55Z</time>
      </trkpt>
      <trkpt lat="44.3842" lon="2.45634">
        <ele>556.4</ele>
        <time>2014-04-06T12:13:56Z</time>
      </trkpt>
      <trkpt lat="44.38436" lon="2.45631">
        <ele>555.8</ele>
        <time>2014-04-06T12:14:02Z</time>
      </trkpt>
      <trkpt lat="44.38451" lon="2.45626">
        <ele>554.8</ele>
        <time>2014-04-06T12:14:07Z</time>
      </trkpt>
      <trkpt lat="44.38459" lon="2.45619">
        <ele>553.8</ele>
        <time>2014-04-06T12:14:10Z</time>
      </trkpt>
      <trkpt lat="44.38464" lon="2.45614">
        <ele>553.4</ele>
        <time>2014-04-06T12:14:13Z</time>
      </trkpt>
      <trkpt lat="44.3847" lon="2.45598">
        <ele>552</ele>
        <time>2014-04-06T12:14:17Z</time>
      </trkpt>
      <trkpt lat="44.38473" lon="2.45571">
        <ele>550.2</ele>
        <time>2014-04-06T12:14:24Z</time>
      </trkpt>
      <trkpt lat="44.38472" lon="2.45554">
        <ele>548.6</ele>
        <time>2014-04-06T12:14:29Z</time>
      </trkpt>
      <trkpt lat="44.38467" lon="2.45542">
        <ele>547.4</ele>
        <time>2014-04-06T12:14:33Z</time>
      </trkpt>
      <trkpt lat="44.38462" lon="2.45528">
        <ele>546.4</ele>
        <time>2014-04-06T12:14:37Z</time>
      </trkpt>
      <trkpt lat="44.38457" lon="2.45512">
        <ele>545.4</ele>
        <time>2014-04-06T12:14:41Z</time>
      </trkpt>
      <trkpt lat="44.38454" lon="2.45496">
        <ele>544.4</ele>
        <time>2014-04-06T12:14:45Z</time>
      </trkpt>
      <trkpt lat="44.38459" lon="2.45469">
        <ele>542.6</ele>
        <time>2014-04-06T12:14:52Z</time>
      </trkpt>
      <trkpt lat="44.38463" lon="2.45449">
        <ele>541.6</ele>
        <time>2014-04-06T12:14:57Z</time>
      </trkpt>
      <trkpt lat="44.38467" lon="2.45434">
        <ele>540.2</ele>
        <time>2014-04-06T12:15:01Z</time>
      </trkpt>
      <trkpt lat="44.38471" lon="2.45415">
        <ele>539</ele>
        <time>2014-04-06T12:15:06Z</time>
      </trkpt>
      <trkpt lat="44.38482" lon="2.45377">
        <ele>536.6</ele>
        <time>2014-04-06T12:15:15Z</time>
      </trkpt>
      <trkpt lat="44.38488" lon="2.45352">
        <ele>535</ele>
        <time>2014-04-06T12:15:22Z</time>
      </trkpt>
      <trkpt lat="44.38496" lon="2.45336">
        <ele>533.8</ele>
        <time>2014-04-06T12:15:27Z</time>
      </trkpt>
      <trkpt lat="44.38496" lon="2.45331">
        <ele>533.6</ele>
        <time>2014-04-06T12:15:28Z</time>
      </trkpt>
      <trkpt lat="44.38502" lon="2.45316">
        <ele>532.6</ele>
        <time>2014-04-06T12:15:32Z</time>
      </trkpt>
      <trkpt lat="44.38504" lon="2.45308">
        <ele>532</ele>
        <time>2014-04-06T12:15:34Z</time>
      </trkpt>
      <trkpt lat="44.38513" lon="2.4528">
        <ele>530.6</ele>
        <time>2014-04-06T12:15:41Z</time>
      </trkpt>
      <trkpt lat="44.3852" lon="2.45262">
        <ele>529.4</ele>
        <time>2014-04-06T12:15:46Z</time>
      </trkpt>
      <trkpt lat="44.38528" lon="2.4524">
        <ele>528.6</ele>
        <time>2014-04-06T12:15:52Z</time>
      </trkpt>
      <trkpt lat="44.3853" lon="2.45237">
        <ele>528.4</ele>
        <time>2014-04-06T12:15:53Z</time>
      </trkpt>
      <trkpt lat="44.38537" lon="2.45217">
        <ele>527.4</ele>
        <time>2014-04-06T12:15:58Z</time>
      </trkpt>
      <trkpt lat="44.3854" lon="2.45208">
        <ele>527</ele>
        <time>2014-04-06T12:16:01Z</time>
      </trkpt>
      <trkpt lat="44.38543" lon="2.4521">
        <ele>526.6</ele>
        <time>2014-04-06T12:16:05Z</time>
      </trkpt>
      <trkpt lat="44.3855" lon="2.45213">
        <ele>525.4</ele>
        <time>2014-04-06T12:16:09Z</time>
      </trkpt>
      <trkpt lat="44.38558" lon="2.45221">
        <ele>524.4</ele>
        <time>2014-04-06T12:16:14Z</time>
      </trkpt>
      <trkpt lat="44.38559" lon="2.45224">
        <ele>524</ele>
        <time>2014-04-06T12:16:15Z</time>
      </trkpt>
      <trkpt lat="44.38566" lon="2.45239">
        <ele>522.6</ele>
        <time>2014-04-06T12:16:21Z</time>
      </trkpt>
      <trkpt lat="44.38568" lon="2.45239">
        <ele>522.2</ele>
        <time>2014-04-06T12:16:22Z</time>
      </trkpt>
      <trkpt lat="44.38574" lon="2.45234">
        <ele>521.2</ele>
        <time>2014-04-06T12:16:25Z</time>
      </trkpt>
      <trkpt lat="44.38582" lon="2.45228">
        <ele>520</ele>
        <time>2014-04-06T12:16:29Z</time>
      </trkpt>
      <trkpt lat="44.38587" lon="2.45228">
        <ele>519.4</ele>
        <time>2014-04-06T12:16:31Z</time>
      </trkpt>
      <trkpt lat="44.38597" lon="2.45235">
        <ele>518</ele>
        <time>2014-04-06T12:16:36Z</time>
      </trkpt>
      <trkpt lat="44.38598" lon="2.45237">
        <ele>517.6</ele>
        <time>2014-04-06T12:16:37Z</time>
      </trkpt>
      <trkpt lat="44.386" lon="2.4524">
        <ele>517.4</ele>
        <time>2014-04-06T12:16:38Z</time>
      </trkpt>
      <trkpt lat="44.38606" lon="2.45248">
        <ele>516.2</ele>
        <time>2014-04-06T12:16:42Z</time>
      </trkpt>
      <trkpt lat="44.38607" lon="2.4525">
        <ele>516</ele>
        <time>2014-04-06T12:16:43Z</time>
      </trkpt>
      <trkpt lat="44.38608" lon="2.45251">
        <ele>515.6</ele>
        <time>2014-04-06T12:16:44Z</time>
      </trkpt>
      <trkpt lat="44.38612" lon="2.45263">
        <ele>514.6</ele>
        <time>2014-04-06T12:16:48Z</time>
      </trkpt>
      <trkpt lat="44.38612" lon="2.45279">
        <ele>513.2</ele>
        <time>2014-04-06T12:16:53Z</time>
      </trkpt>
      <trkpt lat="44.38613" lon="2.45285">
        <ele>512.6</ele>
        <time>2014-04-06T12:16:56Z</time>
      </trkpt>
      <trkpt lat="44.38614" lon="2.45293">
        <ele>511.4</ele>
        <time>2014-04-06T12:17:01Z</time>
      </trkpt>
      <trkpt lat="44.38618" lon="2.453">
        <ele>510.2</ele>
        <time>2014-04-06T12:17:06Z</time>
      </trkpt>
      <trkpt lat="44.38619" lon="2.45304">
        <ele>509.8</ele>
        <time>2014-04-06T12:17:08Z</time>
      </trkpt>
      <trkpt lat="44.38621" lon="2.45307">
        <ele>509.4</ele>
        <time>2014-04-06T12:17:12Z</time>
      </trkpt>
      <trkpt lat="44.38622" lon="2.45315">
        <ele>508.6</ele>
        <time>2014-04-06T12:17:16Z</time>
      </trkpt>
      <trkpt lat="44.38623" lon="2.45329">
        <ele>507.6</ele>
        <time>2014-04-06T12:17:22Z</time>
      </trkpt>
      <trkpt lat="44.38623" lon="2.45331">
        <ele>507.4</ele>
        <time>2014-04-06T12:17:23Z</time>
      </trkpt>
      <trkpt lat="44.38623" lon="2.45334">
        <ele>507.2</ele>
        <time>2014-04-06T12:17:25Z</time>
      </trkpt>
      <trkpt lat="44.38625" lon="2.45343">
        <ele>506.8</ele>
        <time>2014-04-06T12:17:30Z</time>
      </trkpt>
      <trkpt lat="44.38626" lon="2.45346">
        <ele>506.4</ele>
        <time>2014-04-06T12:17:32Z</time>
      </trkpt>
      <trkpt lat="44.38628" lon="2.45353">
        <ele>505.6</ele>
        <time>2014-04-06T12:17:37Z</time>
      </trkpt>
      <trkpt lat="44.3863" lon="2.45365">
        <ele>504.2</ele>
        <time>2014-04-06T12:17:43Z</time>
      </trkpt>
      <trkpt lat="44.38633" lon="2.45374">
        <ele>503.6</ele>
        <time>2014-04-06T12:17:47Z</time>
      </trkpt>
      <trkpt lat="44.38635" lon="2.45383">
        <ele>502.2</ele>
        <time>2014-04-06T12:17:52Z</time>
      </trkpt>
      <trkpt lat="44.38638" lon="2.4539">
        <ele>501</ele>
        <time>2014-04-06T12:17:57Z</time>
      </trkpt>
      <trkpt lat="44.38638" lon="2.45391">
        <ele>500.6</ele>
        <time>2014-04-06T12:17:58Z</time>
      </trkpt>
      <trkpt lat="44.38639" lon="2.45394">
        <ele>498.4</ele>
        <time>2014-04-06T12:18:08Z</time>
      </trkpt>
      <trkpt lat="44.38639" lon="2.45395">
        <ele>497.2</ele>
        <time>2014-04-06T12:18:15Z</time>
      </trkpt>
      <trkpt lat="44.3864" lon="2.45398">
        <ele>495.2</ele>
        <time>2014-04-06T12:18:29Z</time>
      </trkpt>
      <trkpt lat="44.38641" lon="2.45399">
        <ele>494.6</ele>
        <time>2014-04-06T12:18:35Z</time>
      </trkpt>
      <trkpt lat="44.38642" lon="2.45398">
        <ele>494.2</ele>
        <time>2014-04-06T12:18:39Z</time>
      </trkpt>
      <trkpt lat="44.38647" lon="2.45395">
        <ele>493.4</ele>
        <time>2014-04-06T12:18:43Z</time>
      </trkpt>
      <trkpt lat="44.38652" lon="2.45391">
        <ele>492.6</ele>
        <time>2014-04-06T12:18:49Z</time>
      </trkpt>
      <trkpt lat="44.38656" lon="2.4539">
        <ele>492.2</ele>
        <time>2014-04-06T12:18:55Z</time>
      </trkpt>
      <trkpt lat="44.3866" lon="2.4539">
        <ele>492</ele>
        <time>2014-04-06T12:19:00Z</time>
      </trkpt>
      <trkpt lat="44.38663" lon="2.45393">
        <ele>491.4</ele>
        <time>2014-04-06T12:19:04Z</time>
      </trkpt>
      <trkpt lat="44.38664" lon="2.45397">
        <ele>490.8</ele>
        <time>2014-04-06T12:19:08Z</time>
      </trkpt>
      <trkpt lat="44.38665" lon="2.454">
        <ele>490</ele>
        <time>2014-04-06T12:19:16Z</time>
      </trkpt>
      <trkpt lat="44.38664" lon="2.45395">
        <ele>488.8</ele>
        <time>2014-04-06T12:19:22Z</time>
      </trkpt>
      <trkpt lat="44.38663" lon="2.45393">
        <ele>488.8</ele>
        <time>2014-04-06T12:19:23Z</time>
      </trkpt>
      <trkpt lat="44.3866" lon="2.45392">
        <ele>488.4</ele>
        <time>2014-04-06T12:19:27Z</time>
      </trkpt>
      <trkpt lat="44.38659" lon="2.45392">
        <ele>488.2</ele>
        <time>2014-04-06T12:19:28Z</time>
      </trkpt>
      <trkpt lat="44.38656" lon="2.45392">
        <ele>488.2</ele>
        <time>2014-04-06T12:19:30Z</time>
      </trkpt>
      <trkpt lat="44.38655" lon="2.45394">
        <ele>488</ele>
        <time>2014-04-06T12:19:32Z</time>
      </trkpt>
      <trkpt lat="44.38649" lon="2.45399">
        <ele>487.8</ele>
        <time>2014-04-06T12:19:36Z</time>
      </trkpt>
      <trkpt lat="44.38647" lon="2.45402">
        <ele>487.8</ele>
        <time>2014-04-06T12:19:38Z</time>
      </trkpt>
      <trkpt lat="44.3864" lon="2.45403">
        <ele>487</ele>
        <time>2014-04-06T12:19:42Z</time>
      </trkpt>
      <trkpt lat="44.38639" lon="2.45401">
        <ele>486.8</ele>
        <time>2014-04-06T12:19:44Z</time>
      </trkpt>
      <trkpt lat="44.38637" lon="2.45397">
        <ele>486.6</ele>
        <time>2014-04-06T12:19:46Z</time>
      </trkpt>
      <trkpt lat="44.38635" lon="2.45392">
        <ele>486.2</ele>
        <time>2014-04-06T12:19:50Z</time>
      </trkpt>
      <trkpt lat="44.38634" lon="2.45385">
        <ele>486</ele>
        <time>2014-04-06T12:19:53Z</time>
      </trkpt>
      <trkpt lat="44.38633" lon="2.45381">
        <ele>486</ele>
        <time>2014-04-06T12:19:55Z</time>
      </trkpt>
      <trkpt lat="44.38628" lon="2.45369">
        <ele>485.8</ele>
        <time>2014-04-06T12:20:02Z</time>
      </trkpt>
      <trkpt lat="44.38624" lon="2.45362">
        <ele>485.6</ele>
        <time>2014-04-06T12:20:07Z</time>
      </trkpt>
      <trkpt lat="44.38622" lon="2.45355">
        <ele>485.6</ele>
        <time>2014-04-06T12:20:11Z</time>
      </trkpt>
      <trkpt lat="44.38621" lon="2.45354">
        <ele>485.6</ele>
        <time>2014-04-06T12:20:12Z</time>
      </trkpt>
      <trkpt lat="44.38621" lon="2.45348">
        <ele>485.6</ele>
        <time>2014-04-06T12:20:16Z</time>
      </trkpt>
      <trkpt lat="44.38621" lon="2.45342">
        <ele>485.6</ele>
        <time>2014-04-06T12:20:20Z</time>
      </trkpt>
      <trkpt lat="44.38618" lon="2.45335">
        <ele>485.6</ele>
        <time>2014-04-06T12:20:24Z</time>
      </trkpt>
      <trkpt lat="44.38617" lon="2.45332">
        <ele>485.6</ele>
        <time>2014-04-06T12:20:26Z</time>
      </trkpt>
      <trkpt lat="44.38611" lon="2.45325">
        <ele>485.6</ele>
        <time>2014-04-06T12:20:31Z</time>
      </trkpt>
      <trkpt lat="44.38611" lon="2.45316">
        <ele>485.6</ele>
        <time>2014-04-06T12:20:35Z</time>
      </trkpt>
      <trkpt lat="44.38611" lon="2.45316">
        <ele>485.6</ele>
        <time>2014-04-06T12:20:36Z</time>
      </trkpt>
      <trkpt lat="44.38611" lon="2.45314">
        <ele>485.6</ele>
        <time>2014-04-06T12:20:37Z</time>
      </trkpt>
      <trkpt lat="44.38609" lon="2.45305">
        <ele>485.6</ele>
        <time>2014-04-06T12:20:40Z</time>
      </trkpt>
      <trkpt lat="44.3861" lon="2.45297">
        <ele>485.6</ele>
        <time>2014-04-06T12:20:42Z</time>
      </trkpt>
      <trkpt lat="44.3861" lon="2.45291">
        <ele>485.6</ele>
        <time>2014-04-06T12:20:44Z</time>
      </trkpt>
      <trkpt lat="44.38613" lon="2.45279">
        <ele>485.6</ele>
        <time>2014-04-06T12:20:49Z</time>
      </trkpt>
      <trkpt lat="44.38611" lon="2.45273">
        <ele>485.6</ele>
        <time>2014-04-06T12:20:52Z</time>
      </trkpt>
      <trkpt lat="44.38606" lon="2.45259">
        <ele>485.6</ele>
        <time>2014-04-06T12:20:57Z</time>
      </trkpt>
      <trkpt lat="44.38603" lon="2.45254">
        <ele>485.6</ele>
        <time>2014-04-06T12:21:00Z</time>
      </trkpt>
      <trkpt lat="44.38596" lon="2.45249">
        <ele>485.6</ele>
        <time>2014-04-06T12:21:04Z</time>
      </trkpt>
      <trkpt lat="44.38591" lon="2.45252">
        <ele>485.6</ele>
        <time>2014-04-06T12:21:08Z</time>
      </trkpt>
      <trkpt lat="44.38589" lon="2.45252">
        <ele>485.6</ele>
        <time>2014-04-06T12:21:09Z</time>
      </trkpt>
      <trkpt lat="44.38585" lon="2.45255">
        <ele>485.6</ele>
        <time>2014-04-06T12:21:11Z</time>
      </trkpt>
      <trkpt lat="44.38574" lon="2.45251">
        <ele>485.6</ele>
        <time>2014-04-06T12:21:17Z</time>
      </trkpt>
      <trkpt lat="44.38568" lon="2.45241">
        <ele>485.8</ele>
        <time>2014-04-06T12:21:21Z</time>
      </trkpt>
      <trkpt lat="44.3856" lon="2.45231">
        <ele>486.6</ele>
        <time>2014-04-06T12:21:25Z</time>
      </trkpt>
      <trkpt lat="44.38549" lon="2.45222">
        <ele>487</ele>
        <time>2014-04-06T12:21:31Z</time>
      </trkpt>
      <trkpt lat="44.38547" lon="2.4521">
        <ele>487.2</ele>
        <time>2014-04-06T12:21:35Z</time>
      </trkpt>
      <trkpt lat="44.38548" lon="2.45192">
        <ele>488.2</ele>
        <time>2014-04-06T12:21:40Z</time>
      </trkpt>
      <trkpt lat="44.3855" lon="2.45169">
        <ele>488.8</ele>
        <time>2014-04-06T12:21:45Z</time>
      </trkpt>
      <trkpt lat="44.38549" lon="2.45151">
        <ele>489.8</ele>
        <time>2014-04-06T12:21:50Z</time>
      </trkpt>
      <trkpt lat="44.38542" lon="2.45135">
        <ele>490.6</ele>
        <time>2014-04-06T12:21:55Z</time>
      </trkpt>
      <trkpt lat="44.38544" lon="2.45118">
        <ele>491</ele>
        <time>2014-04-06T12:21:59Z</time>
      </trkpt>
      <trkpt lat="44.38554" lon="2.45101">
        <ele>491.2</ele>
        <time>2014-04-06T12:22:04Z</time>
      </trkpt>
      <trkpt lat="44.3857" lon="2.45091">
        <ele>491.4</ele>
        <time>2014-04-06T12:22:09Z</time>
      </trkpt>
      <trkpt lat="44.38585" lon="2.45079">
        <ele>491.6</ele>
        <time>2014-04-06T12:22:15Z</time>
      </trkpt>
      <trkpt lat="44.38598" lon="2.4506">
        <ele>491.6</ele>
        <time>2014-04-06T12:22:21Z</time>
      </trkpt>
      <trkpt lat="44.38602" lon="2.45045">
        <ele>491.6</ele>
        <time>2014-04-06T12:22:25Z</time>
      </trkpt>
      <trkpt lat="44.38609" lon="2.45021">
        <ele>491.6</ele>
        <time>2014-04-06T12:22:31Z</time>
      </trkpt>
      <trkpt lat="44.38617" lon="2.45">
        <ele>491.6</ele>
        <time>2014-04-06T12:22:36Z</time>
      </trkpt>
      <trkpt lat="44.38625" lon="2.44982">
        <ele>491.6</ele>
        <time>2014-04-06T12:22:41Z</time>
      </trkpt>
      <trkpt lat="44.38634" lon="2.44959">
        <ele>491.6</ele>
        <time>2014-04-06T12:22:47Z</time>
      </trkpt>
      <trkpt lat="44.38642" lon="2.44944">
        <ele>491.6</ele>
        <time>2014-04-06T12:22:51Z</time>
      </trkpt>
      <trkpt lat="44.38649" lon="2.44927">
        <ele>491.6</ele>
        <time>2014-04-06T12:22:55Z</time>
      </trkpt>
      <trkpt lat="44.38656" lon="2.44913">
        <ele>491.6</ele>
        <time>2014-04-06T12:22:59Z</time>
      </trkpt>
      <trkpt lat="44.38656" lon="2.4491">
        <ele>491.6</ele>
        <time>2014-04-06T12:23:00Z</time>
      </trkpt>
      <trkpt lat="44.38657" lon="2.44899">
        <ele>491.6</ele>
        <time>2014-04-06T12:23:03Z</time>
      </trkpt>
      <trkpt lat="44.38656" lon="2.44891">
        <ele>491.6</ele>
        <time>2014-04-06T12:23:08Z</time>
      </trkpt>
      <trkpt lat="44.38656" lon="2.4489">
        <ele>491.6</ele>
        <time>2014-04-06T12:23:15Z</time>
      </trkpt>
      <trkpt lat="44.38656" lon="2.44889">
        <ele>491.6</ele>
        <time>2014-04-06T12:23:27Z</time>
      </trkpt>
      <trkpt lat="44.38655" lon="2.44891">
        <ele>491.6</ele>
        <time>2014-04-06T12:23:30Z</time>
      </trkpt>
      <trkpt lat="44.38656" lon="2.44897">
        <ele>491.6</ele>
        <time>2014-04-06T12:23:33Z</time>
      </trkpt>
      <trkpt lat="44.38658" lon="2.449">
        <ele>491.6</ele>
        <time>2014-04-06T12:23:36Z</time>
      </trkpt>
      <trkpt lat="44.3866" lon="2.44902">
        <ele>491.6</ele>
        <time>2014-04-06T12:23:41Z</time>
      </trkpt>
      <trkpt lat="44.3866" lon="2.44903">
        <ele>491.6</ele>
        <time>2014-04-06T12:23:43Z</time>
      </trkpt>
      <trkpt lat="44.3866" lon="2.44903">
        <ele>491.6</ele>
        <time>2014-04-06T12:23:44Z</time>
      </trkpt>
      <trkpt lat="44.38662" lon="2.44904">
        <ele>491.6</ele>
        <time>2014-04-06T12:23:48Z</time>
      </trkpt>
      <trkpt lat="44.38664" lon="2.44904">
        <ele>491.6</ele>
        <time>2014-04-06T12:23:50Z</time>
      </trkpt>
      <trkpt lat="44.38673" lon="2.44896">
        <ele>491.6</ele>
        <time>2014-04-06T12:23:55Z</time>
      </trkpt>
      <trkpt lat="44.38675" lon="2.44893">
        <ele>491.6</ele>
        <time>2014-04-06T12:23:56Z</time>
      </trkpt>
      <trkpt lat="44.38686" lon="2.44884">
        <ele>491.6</ele>
        <time>2014-04-06T12:24:01Z</time>
      </trkpt>
      <trkpt lat="44.38697" lon="2.44875">
        <ele>491.6</ele>
        <time>2014-04-06T12:24:06Z</time>
      </trkpt>
      <trkpt lat="44.387" lon="2.44876">
        <ele>491.6</ele>
        <time>2014-04-06T12:24:07Z</time>
      </trkpt>
      <trkpt lat="44.38713" lon="2.44871">
        <ele>491.6</ele>
        <time>2014-04-06T12:24:11Z</time>
      </trkpt>
      <trkpt lat="44.38714" lon="2.44871">
        <ele>491.6</ele>
        <time>2014-04-06T12:24:12Z</time>
      </trkpt>
      <trkpt lat="44.38725" lon="2.44863">
        <ele>491</ele>
        <time>2014-04-06T12:24:16Z</time>
      </trkpt>
      <trkpt lat="44.38727" lon="2.4486">
        <ele>490.8</ele>
        <time>2014-04-06T12:24:17Z</time>
      </trkpt>
      <trkpt lat="44.38732" lon="2.44853">
        <ele>490.4</ele>
        <time>2014-04-06T12:24:21Z</time>
      </trkpt>
      <trkpt lat="44.38732" lon="2.44852">
        <ele>490.4</ele>
        <time>2014-04-06T12:24:22Z</time>
      </trkpt>
      <trkpt lat="44.38733" lon="2.44846">
        <ele>490</ele>
        <time>2014-04-06T12:24:29Z</time>
      </trkpt>
      <trkpt lat="44.38737" lon="2.44831">
        <ele>489.6</ele>
        <time>2014-04-06T12:24:53Z</time>
      </trkpt>
      <trkpt lat="44.38738" lon="2.44829">
        <ele>489.6</ele>
        <time>2014-04-06T12:24:54Z</time>
      </trkpt>
      <trkpt lat="44.38742" lon="2.44819">
        <ele>489.6</ele>
        <time>2014-04-06T12:24:58Z</time>
      </trkpt>
      <trkpt lat="44.38751" lon="2.44808">
        <ele>489.6</ele>
        <time>2014-04-06T12:25:03Z</time>
      </trkpt>
      <trkpt lat="44.38755" lon="2.44804">
        <ele>490</ele>
        <time>2014-04-06T12:25:05Z</time>
      </trkpt>
      <trkpt lat="44.38765" lon="2.44796">
        <ele>490.6</ele>
        <time>2014-04-06T12:25:10Z</time>
      </trkpt>
      <trkpt lat="44.38776" lon="2.44784">
        <ele>491</ele>
        <time>2014-04-06T12:25:15Z</time>
      </trkpt>
      <trkpt lat="44.3878" lon="2.44777">
        <ele>491.2</ele>
        <time>2014-04-06T12:25:17Z</time>
      </trkpt>
      <trkpt lat="44.38789" lon="2.44767">
        <ele>491.4</ele>
        <time>2014-04-06T12:25:21Z</time>
      </trkpt>
      <trkpt lat="44.38807" lon="2.44756">
        <ele>491.2</ele>
        <time>2014-04-06T12:25:27Z</time>
      </trkpt>
      <trkpt lat="44.38819" lon="2.44749">
        <ele>490.6</ele>
        <time>2014-04-06T12:25:31Z</time>
      </trkpt>
      <trkpt lat="44.38835" lon="2.44742">
        <ele>490</ele>
        <time>2014-04-06T12:25:36Z</time>
      </trkpt>
      <trkpt lat="44.38846" lon="2.44736">
        <ele>489.2</ele>
        <time>2014-04-06T12:25:40Z</time>
      </trkpt>
      <trkpt lat="44.38858" lon="2.44723">
        <ele>487.6</ele>
        <time>2014-04-06T12:25:45Z</time>
      </trkpt>
      <trkpt lat="44.38868" lon="2.44706">
        <ele>486</ele>
        <time>2014-04-06T12:25:50Z</time>
      </trkpt>
      <trkpt lat="44.38871" lon="2.44684">
        <ele>484.4</ele>
        <time>2014-04-06T12:25:55Z</time>
      </trkpt>
      <trkpt lat="44.38871" lon="2.44669">
        <ele>483.2</ele>
        <time>2014-04-06T12:25:59Z</time>
      </trkpt>
      <trkpt lat="44.38866" lon="2.44655">
        <ele>481.8</ele>
        <time>2014-04-06T12:26:03Z</time>
      </trkpt>
      <trkpt lat="44.38864" lon="2.4465">
        <ele>481.2</ele>
        <time>2014-04-06T12:26:05Z</time>
      </trkpt>
      <trkpt lat="44.38862" lon="2.44638">
        <ele>480.2</ele>
        <time>2014-04-06T12:26:08Z</time>
      </trkpt>
      <trkpt lat="44.38862" lon="2.44636">
        <ele>479.8</ele>
        <time>2014-04-06T12:26:08Z</time>
      </trkpt>
      <trkpt lat="44.38862" lon="2.44613">
        <ele>478.4</ele>
        <time>2014-04-06T12:26:14Z</time>
      </trkpt>
      <trkpt lat="44.38863" lon="2.4461">
        <ele>478.2</ele>
        <time>2014-04-06T12:26:15Z</time>
      </trkpt>
      <trkpt lat="44.38868" lon="2.44613">
        <ele>477.2</ele>
        <time>2014-04-06T12:26:19Z</time>
      </trkpt>
      <trkpt lat="44.3889" lon="2.4464">
        <ele>473.8</ele>
        <time>2014-04-06T12:26:29Z</time>
      </trkpt>
      <trkpt lat="44.38904" lon="2.44652">
        <ele>472.2</ele>
        <time>2014-04-06T12:26:33Z</time>
      </trkpt>
      <trkpt lat="44.38904" lon="2.44655">
        <ele>471.8</ele>
        <time>2014-04-06T12:26:34Z</time>
      </trkpt>
      <trkpt lat="44.38911" lon="2.44666">
        <ele>470.4</ele>
        <time>2014-04-06T12:26:38Z</time>
      </trkpt>
      <trkpt lat="44.38913" lon="2.44669">
        <ele>469.8</ele>
        <time>2014-04-06T12:26:39Z</time>
      </trkpt>
      <trkpt lat="44.38925" lon="2.44684">
        <ele>468</ele>
        <time>2014-04-06T12:26:44Z</time>
      </trkpt>
      <trkpt lat="44.38928" lon="2.44694">
        <ele>466.8</ele>
        <time>2014-04-06T12:26:47Z</time>
      </trkpt>
      <trkpt lat="44.38939" lon="2.447">
        <ele>465.4</ele>
        <time>2014-04-06T12:26:52Z</time>
      </trkpt>
      <trkpt lat="44.38945" lon="2.44706">
        <ele>464.6</ele>
        <time>2014-04-06T12:26:55Z</time>
      </trkpt>
      <trkpt lat="44.38953" lon="2.44714">
        <ele>463.4</ele>
        <time>2014-04-06T12:26:59Z</time>
      </trkpt>
      <trkpt lat="44.38958" lon="2.44723">
        <ele>462.4</ele>
        <time>2014-04-06T12:27:02Z</time>
      </trkpt>
      <trkpt lat="44.38967" lon="2.44727">
        <ele>461</ele>
        <time>2014-04-06T12:27:07Z</time>
      </trkpt>
      <trkpt lat="44.38968" lon="2.44727">
        <ele>460.6</ele>
        <time>2014-04-06T12:27:08Z</time>
      </trkpt>
      <trkpt lat="44.38973" lon="2.44726">
        <ele>459.6</ele>
        <time>2014-04-06T12:27:11Z</time>
      </trkpt>
      <trkpt lat="44.38978" lon="2.44735">
        <ele>457.8</ele>
        <time>2014-04-06T12:27:17Z</time>
      </trkpt>
      <trkpt lat="44.38984" lon="2.4474">
        <ele>455.8</ele>
        <time>2014-04-06T12:27:23Z</time>
      </trkpt>
      <trkpt lat="44.38985" lon="2.44741">
        <ele>455.6</ele>
        <time>2014-04-06T12:27:24Z</time>
      </trkpt>
      <trkpt lat="44.38989" lon="2.44744">
        <ele>455</ele>
        <time>2014-04-06T12:27:26Z</time>
      </trkpt>
      <trkpt lat="44.38995" lon="2.44744">
        <ele>453.8</ele>
        <time>2014-04-06T12:27:29Z</time>
      </trkpt>
      <trkpt lat="44.39001" lon="2.4474">
        <ele>452.2</ele>
        <time>2014-04-06T12:27:33Z</time>
      </trkpt>
      <trkpt lat="44.39004" lon="2.44738">
        <ele>451.6</ele>
        <time>2014-04-06T12:27:36Z</time>
      </trkpt>
      <trkpt lat="44.39011" lon="2.44735">
        <ele>450.2</ele>
        <time>2014-04-06T12:27:40Z</time>
      </trkpt>
      <trkpt lat="44.39013" lon="2.44734">
        <ele>449.8</ele>
        <time>2014-04-06T12:27:41Z</time>
      </trkpt>
      <trkpt lat="44.39022" lon="2.44732">
        <ele>448.2</ele>
        <time>2014-04-06T12:27:46Z</time>
      </trkpt>
      <trkpt lat="44.39022" lon="2.44732">
        <ele>447.8</ele>
        <time>2014-04-06T12:27:47Z</time>
      </trkpt>
      <trkpt lat="44.39027" lon="2.44735">
        <ele>446</ele>
        <time>2014-04-06T12:27:52Z</time>
      </trkpt>
      <trkpt lat="44.39027" lon="2.44735">
        <ele>445.6</ele>
        <time>2014-04-06T12:27:53Z</time>
      </trkpt>
      <trkpt lat="44.39031" lon="2.44739">
        <ele>444.2</ele>
        <time>2014-04-06T12:27:58Z</time>
      </trkpt>
      <trkpt lat="44.39032" lon="2.4474">
        <ele>443.8</ele>
        <time>2014-04-06T12:27:59Z</time>
      </trkpt>
      <trkpt lat="44.39037" lon="2.44731">
        <ele>442</ele>
        <time>2014-04-06T12:28:05Z</time>
      </trkpt>
      <trkpt lat="44.39042" lon="2.44728">
        <ele>441.4</ele>
        <time>2014-04-06T12:28:08Z</time>
      </trkpt>
      <trkpt lat="44.39053" lon="2.44725">
        <ele>439.6</ele>
        <time>2014-04-06T12:28:14Z</time>
      </trkpt>
      <trkpt lat="44.39055" lon="2.44725">
        <ele>439.4</ele>
        <time>2014-04-06T12:28:15Z</time>
      </trkpt>
      <trkpt lat="44.39062" lon="2.44718">
        <ele>438.6</ele>
        <time>2014-04-06T12:28:20Z</time>
      </trkpt>
      <trkpt lat="44.39064" lon="2.44715">
        <ele>436.8</ele>
        <time>2014-04-06T12:28:28Z</time>
      </trkpt>
      <trkpt lat="44.39066" lon="2.44713">
        <ele>436.4</ele>
        <time>2014-04-06T12:28:33Z</time>
      </trkpt>
      <trkpt lat="44.39066" lon="2.44711">
        <ele>436</ele>
        <time>2014-04-06T12:28:36Z</time>
      </trkpt>
      <trkpt lat="44.39069" lon="2.44702">
        <ele>435.2</ele>
        <time>2014-04-06T12:28:40Z</time>
      </trkpt>
      <trkpt lat="44.39073" lon="2.44697">
        <ele>434.8</ele>
        <time>2014-04-06T12:28:42Z</time>
      </trkpt>
      <trkpt lat="44.39079" lon="2.44698">
        <ele>433.8</ele>
        <time>2014-04-06T12:28:46Z</time>
      </trkpt>
      <trkpt lat="44.39085" lon="2.447">
        <ele>433.2</ele>
        <time>2014-04-06T12:28:49Z</time>
      </trkpt>
      <trkpt lat="44.39095" lon="2.44706">
        <ele>432</ele>
        <time>2014-04-06T12:28:53Z</time>
      </trkpt>
      <trkpt lat="44.39102" lon="2.44707">
        <ele>431.2</ele>
        <time>2014-04-06T12:28:57Z</time>
      </trkpt>
      <trkpt lat="44.39105" lon="2.44707">
        <ele>430.6</ele>
        <time>2014-04-06T12:28:59Z</time>
      </trkpt>
      <trkpt lat="44.39105" lon="2.44707">
        <ele>428.6</ele>
        <time>2014-04-06T12:29:09Z</time>
      </trkpt>
      <trkpt lat="44.39112" lon="2.44706">
        <ele>427</ele>
        <time>2014-04-06T12:29:17Z</time>
      </trkpt>
      <trkpt lat="44.39113" lon="2.44706">
        <ele>426.8</ele>
        <time>2014-04-06T12:29:18Z</time>
      </trkpt>
      <trkpt lat="44.39122" lon="2.44712">
        <ele>426.2</ele>
        <time>2014-04-06T12:29:24Z</time>
      </trkpt>
      <trkpt lat="44.39129" lon="2.44714">
        <ele>425.8</ele>
        <time>2014-04-06T12:29:29Z</time>
      </trkpt>
      <trkpt lat="44.39132" lon="2.44713">
        <ele>425.6</ele>
        <time>2014-04-06T12:29:32Z</time>
      </trkpt>
      <trkpt lat="44.39134" lon="2.44712">
        <ele>425.6</ele>
        <time>2014-04-06T12:29:34Z</time>
      </trkpt>
      <trkpt lat="44.39136" lon="2.44707">
        <ele>425.4</ele>
        <time>2014-04-06T12:29:41Z</time>
      </trkpt>
      <trkpt lat="44.3914" lon="2.44704">
        <ele>425.4</ele>
        <time>2014-04-06T12:29:45Z</time>
      </trkpt>
      <trkpt lat="44.39142" lon="2.44703">
        <ele>425.4</ele>
        <time>2014-04-06T12:29:50Z</time>
      </trkpt>
      <trkpt lat="44.39144" lon="2.44703">
        <ele>425.4</ele>
        <time>2014-04-06T12:29:53Z</time>
      </trkpt>
      <trkpt lat="44.39147" lon="2.44702">
        <ele>425.4</ele>
        <time>2014-04-06T12:29:58Z</time>
      </trkpt>
      <trkpt lat="44.39148" lon="2.44699">
        <ele>425.4</ele>
        <time>2014-04-06T12:30:11Z</time>
      </trkpt>
      <trkpt lat="44.39148" lon="2.4469">
        <ele>425.4</ele>
        <time>2014-04-06T12:30:17Z</time>
      </trkpt>
      <trkpt lat="44.3915" lon="2.44686">
        <ele>425.4</ele>
        <time>2014-04-06T12:30:21Z</time>
      </trkpt>
      <trkpt lat="44.3915" lon="2.44685">
        <ele>425.4</ele>
        <time>2014-04-06T12:30:24Z</time>
      </trkpt>
      <trkpt lat="44.39144" lon="2.44673">
        <ele>425.4</ele>
        <time>2014-04-06T12:30:30Z</time>
      </trkpt>
      <trkpt lat="44.39143" lon="2.44665">
        <ele>425.4</ele>
        <time>2014-04-06T12:30:32Z</time>
      </trkpt>
      <trkpt lat="44.39141" lon="2.44652">
        <ele>425.4</ele>
        <time>2014-04-06T12:30:36Z</time>
      </trkpt>
      <trkpt lat="44.39141" lon="2.44635">
        <ele>425.4</ele>
        <time>2014-04-06T12:30:41Z</time>
      </trkpt>
      <trkpt lat="44.39136" lon="2.44618">
        <ele>425.4</ele>
        <time>2014-04-06T12:30:46Z</time>
      </trkpt>
      <trkpt lat="44.39126" lon="2.44598">
        <ele>425.4</ele>
        <time>2014-04-06T12:30:52Z</time>
      </trkpt>
      <trkpt lat="44.39123" lon="2.44582">
        <ele>425.4</ele>
        <time>2014-04-06T12:30:56Z</time>
      </trkpt>
      <trkpt lat="44.39121" lon="2.44554">
        <ele>425.4</ele>
        <time>2014-04-06T12:31:03Z</time>
      </trkpt>
      <trkpt lat="44.39122" lon="2.44551">
        <ele>425.4</ele>
        <time>2014-04-06T12:31:04Z</time>
      </trkpt>
      <trkpt lat="44.39119" lon="2.44532">
        <ele>425.4</ele>
        <time>2014-04-06T12:31:08Z</time>
      </trkpt>
      <trkpt lat="44.39116" lon="2.44506">
        <ele>425.4</ele>
        <time>2014-04-06T12:31:14Z</time>
      </trkpt>
      <trkpt lat="44.3911" lon="2.44486">
        <ele>425.4</ele>
        <time>2014-04-06T12:31:19Z</time>
      </trkpt>
      <trkpt lat="44.39104" lon="2.44477">
        <ele>425.4</ele>
        <time>2014-04-06T12:31:22Z</time>
      </trkpt>
      <trkpt lat="44.39099" lon="2.44459">
        <ele>425.4</ele>
        <time>2014-04-06T12:31:26Z</time>
      </trkpt>
      <trkpt lat="44.39092" lon="2.44448">
        <ele>425.4</ele>
        <time>2014-04-06T12:31:30Z</time>
      </trkpt>
      <trkpt lat="44.39084" lon="2.44432">
        <ele>425.4</ele>
        <time>2014-04-06T12:31:34Z</time>
      </trkpt>
      <trkpt lat="44.39073" lon="2.44415">
        <ele>425.4</ele>
        <time>2014-04-06T12:31:39Z</time>
      </trkpt>
      <trkpt lat="44.39061" lon="2.444">
        <ele>425</ele>
        <time>2014-04-06T12:31:44Z</time>
      </trkpt>
      <trkpt lat="44.39051" lon="2.44384">
        <ele>424.2</ele>
        <time>2014-04-06T12:31:49Z</time>
      </trkpt>
      <trkpt lat="44.39041" lon="2.44365">
        <ele>423.8</ele>
        <time>2014-04-06T12:31:54Z</time>
      </trkpt>
      <trkpt lat="44.39035" lon="2.44349">
        <ele>422.8</ele>
        <time>2014-04-06T12:31:59Z</time>
      </trkpt>
      <trkpt lat="44.39033" lon="2.44347">
        <ele>422.6</ele>
        <time>2014-04-06T12:32:00Z</time>
      </trkpt>
      <trkpt lat="44.39027" lon="2.44332">
        <ele>422</ele>
        <time>2014-04-06T12:32:05Z</time>
      </trkpt>
      <trkpt lat="44.39022" lon="2.44321">
        <ele>421.8</ele>
        <time>2014-04-06T12:32:08Z</time>
      </trkpt>
      <trkpt lat="44.39021" lon="2.44316">
        <ele>421.6</ele>
        <time>2014-04-06T12:32:09Z</time>
      </trkpt>
      <trkpt lat="44.39015" lon="2.44296">
        <ele>420.6</ele>
        <time>2014-04-06T12:32:14Z</time>
      </trkpt>
      <trkpt lat="44.3901" lon="2.44273">
        <ele>419.8</ele>
        <time>2014-04-06T12:32:20Z</time>
      </trkpt>
      <trkpt lat="44.3901" lon="2.44268">
        <ele>419.6</ele>
        <time>2014-04-06T12:32:21Z</time>
      </trkpt>
      <trkpt lat="44.39013" lon="2.44248">
        <ele>418.6</ele>
        <time>2014-04-06T12:32:26Z</time>
      </trkpt>
      <trkpt lat="44.39012" lon="2.4424">
        <ele>418.2</ele>
        <time>2014-04-06T12:32:28Z</time>
      </trkpt>
      <trkpt lat="44.39003" lon="2.44221">
        <ele>417.4</ele>
        <time>2014-04-06T12:32:33Z</time>
      </trkpt>
      <trkpt lat="44.38996" lon="2.44207">
        <ele>416.6</ele>
        <time>2014-04-06T12:32:37Z</time>
      </trkpt>
      <trkpt lat="44.38994" lon="2.44203">
        <ele>416.4</ele>
        <time>2014-04-06T12:32:38Z</time>
      </trkpt>
      <trkpt lat="44.38982" lon="2.44188">
        <ele>415.8</ele>
        <time>2014-04-06T12:32:43Z</time>
      </trkpt>
      <trkpt lat="44.38972" lon="2.44171">
        <ele>415.4</ele>
        <time>2014-04-06T12:32:48Z</time>
      </trkpt>
      <trkpt lat="44.38964" lon="2.44153">
        <ele>415.2</ele>
        <time>2014-04-06T12:32:53Z</time>
      </trkpt>
      <trkpt lat="44.38957" lon="2.44138">
        <ele>415.2</ele>
        <time>2014-04-06T12:32:57Z</time>
      </trkpt>
      <trkpt lat="44.3895" lon="2.44118">
        <ele>415</ele>
        <time>2014-04-06T12:33:02Z</time>
      </trkpt>
      <trkpt lat="44.38947" lon="2.44098">
        <ele>415</ele>
        <time>2014-04-06T12:33:07Z</time>
      </trkpt>
      <trkpt lat="44.38943" lon="2.4407">
        <ele>415</ele>
        <time>2014-04-06T12:33:14Z</time>
      </trkpt>
      <trkpt lat="44.38943" lon="2.44062">
        <ele>415</ele>
        <time>2014-04-06T12:33:16Z</time>
      </trkpt>
      <trkpt lat="44.38941" lon="2.4404">
        <ele>415</ele>
        <time>2014-04-06T12:33:21Z</time>
      </trkpt>
      <trkpt lat="44.38938" lon="2.44023">
        <ele>415</ele>
        <time>2014-04-06T12:33:25Z</time>
      </trkpt>
      <trkpt lat="44.38935" lon="2.44008">
        <ele>415</ele>
        <time>2014-04-06T12:33:29Z</time>
      </trkpt>
      <trkpt lat="44.3893" lon="2.43986">
        <ele>415</ele>
        <time>2014-04-06T12:33:35Z</time>
      </trkpt>
      <trkpt lat="44.38925" lon="2.43961">
        <ele>415</ele>
        <time>2014-04-06T12:33:42Z</time>
      </trkpt>
      <trkpt lat="44.38922" lon="2.4395">
        <ele>415</ele>
        <time>2014-04-06T12:33:45Z</time>
      </trkpt>
      <trkpt lat="44.38914" lon="2.43926">
        <ele>415</ele>
        <time>2014-04-06T12:33:51Z</time>
      </trkpt>
      <trkpt lat="44.38907" lon="2.43909">
        <ele>415</ele>
        <time>2014-04-06T12:33:56Z</time>
      </trkpt>
      <trkpt lat="44.38906" lon="2.43904">
        <ele>415</ele>
        <time>2014-04-06T12:33:57Z</time>
      </trkpt>
      <trkpt lat="44.38892" lon="2.43885">
        <ele>415</ele>
        <time>2014-04-06T12:34:04Z</time>
      </trkpt>
      <trkpt lat="44.38886" lon="2.43873">
        <ele>415</ele>
        <time>2014-04-06T12:34:08Z</time>
      </trkpt>
      <trkpt lat="44.38883" lon="2.43865">
        <ele>415</ele>
        <time>2014-04-06T12:34:10Z</time>
      </trkpt>
      <trkpt lat="44.38869" lon="2.43839">
        <ele>415</ele>
        <time>2014-04-06T12:34:18Z</time>
      </trkpt>
      <trkpt lat="44.3886" lon="2.43812">
        <ele>415</ele>
        <time>2014-04-06T12:34:25Z</time>
      </trkpt>
      <trkpt lat="44.3886" lon="2.43803">
        <ele>415</ele>
        <time>2014-04-06T12:34:27Z</time>
      </trkpt>
      <trkpt lat="44.38858" lon="2.43782">
        <ele>415</ele>
        <time>2014-04-06T12:34:31Z</time>
      </trkpt>
      <trkpt lat="44.38858" lon="2.43779">
        <ele>415</ele>
        <time>2014-04-06T12:34:32Z</time>
      </trkpt>
      <trkpt lat="44.38854" lon="2.43761">
        <ele>415</ele>
        <time>2014-04-06T12:34:37Z</time>
      </trkpt>
      <trkpt lat="44.38854" lon="2.4375">
        <ele>415</ele>
        <time>2014-04-06T12:34:39Z</time>
      </trkpt>
      <trkpt lat="44.38851" lon="2.43732">
        <ele>415.8</ele>
        <time>2014-04-06T12:34:44Z</time>
      </trkpt>
      <trkpt lat="44.38848" lon="2.43712">
        <ele>416.4</ele>
        <time>2014-04-06T12:34:49Z</time>
      </trkpt>
      <trkpt lat="44.3885" lon="2.43693">
        <ele>416.6</ele>
        <time>2014-04-06T12:34:54Z</time>
      </trkpt>
      <trkpt lat="44.38853" lon="2.43672">
        <ele>416.4</ele>
        <time>2014-04-06T12:34:59Z</time>
      </trkpt>
      <trkpt lat="44.38856" lon="2.43646">
        <ele>415.4</ele>
        <time>2014-04-06T12:35:05Z</time>
      </trkpt>
      <trkpt lat="44.38859" lon="2.43629">
        <ele>414.2</ele>
        <time>2014-04-06T12:35:09Z</time>
      </trkpt>
      <trkpt lat="44.38863" lon="2.43594">
        <ele>413.2</ele>
        <time>2014-04-06T12:35:18Z</time>
      </trkpt>
      <trkpt lat="44.38868" lon="2.43566">
        <ele>411.8</ele>
        <time>2014-04-06T12:35:25Z</time>
      </trkpt>
      <trkpt lat="44.38876" lon="2.43541">
        <ele>411.2</ele>
        <time>2014-04-06T12:35:31Z</time>
      </trkpt>
      <trkpt lat="44.38885" lon="2.4352">
        <ele>410.8</ele>
        <time>2014-04-06T12:35:37Z</time>
      </trkpt>
      <trkpt lat="44.38895" lon="2.43501">
        <ele>410.6</ele>
        <time>2014-04-06T12:35:43Z</time>
      </trkpt>
      <trkpt lat="44.38905" lon="2.43482">
        <ele>410.6</ele>
        <time>2014-04-06T12:35:49Z</time>
      </trkpt>
      <trkpt lat="44.38916" lon="2.43465">
        <ele>410.6</ele>
        <time>2014-04-06T12:35:56Z</time>
      </trkpt>
      <trkpt lat="44.38922" lon="2.43457">
        <ele>410.6</ele>
        <time>2014-04-06T12:36:02Z</time>
      </trkpt>
      <trkpt lat="44.38928" lon="2.43446">
        <ele>410.4</ele>
        <time>2014-04-06T12:36:09Z</time>
      </trkpt>
      <trkpt lat="44.38932" lon="2.43436">
        <ele>410.4</ele>
        <time>2014-04-06T12:36:16Z</time>
      </trkpt>
      <trkpt lat="44.38936" lon="2.43428">
        <ele>410.4</ele>
        <time>2014-04-06T12:36:22Z</time>
      </trkpt>
      <trkpt lat="44.38936" lon="2.43424">
        <ele>410.4</ele>
        <time>2014-04-06T12:36:25Z</time>
      </trkpt>
      <trkpt lat="44.38939" lon="2.43419">
        <ele>410.4</ele>
        <time>2014-04-06T12:36:30Z</time>
      </trkpt>
      <trkpt lat="44.38939" lon="2.43417">
        <ele>410.4</ele>
        <time>2014-04-06T12:36:31Z</time>
      </trkpt>
      <trkpt lat="44.38941" lon="2.4341">
        <ele>410.4</ele>
        <time>2014-04-06T12:36:36Z</time>
      </trkpt>
      <trkpt lat="44.38943" lon="2.43406">
        <ele>410.4</ele>
        <time>2014-04-06T12:36:38Z</time>
      </trkpt>
      <trkpt lat="44.38947" lon="2.43393">
        <ele>410.4</ele>
        <time>2014-04-06T12:36:44Z</time>
      </trkpt>
      <trkpt lat="44.3895" lon="2.43381">
        <ele>410.4</ele>
        <time>2014-04-06T12:36:48Z</time>
      </trkpt>
      <trkpt lat="44.38951" lon="2.43375">
        <ele>410.4</ele>
        <time>2014-04-06T12:36:50Z</time>
      </trkpt>
      <trkpt lat="44.38952" lon="2.43369">
        <ele>410.4</ele>
        <time>2014-04-06T12:36:52Z</time>
      </trkpt>
      <trkpt lat="44.38953" lon="2.43351">
        <ele>410.4</ele>
        <time>2014-04-06T12:36:57Z</time>
      </trkpt>
      <trkpt lat="44.38957" lon="2.43334">
        <ele>410.4</ele>
        <time>2014-04-06T12:37:01Z</time>
      </trkpt>
      <trkpt lat="44.38961" lon="2.43321">
        <ele>410.4</ele>
        <time>2014-04-06T12:37:05Z</time>
      </trkpt>
      <trkpt lat="44.38964" lon="2.43309">
        <ele>410.4</ele>
        <time>2014-04-06T12:37:09Z</time>
      </trkpt>
      <trkpt lat="44.38966" lon="2.43305">
        <ele>410.4</ele>
        <time>2014-04-06T12:37:10Z</time>
      </trkpt>
      <trkpt lat="44.3897" lon="2.43295">
        <ele>410.4</ele>
        <time>2014-04-06T12:37:13Z</time>
      </trkpt>
      <trkpt lat="44.38975" lon="2.43263">
        <ele>410.4</ele>
        <time>2014-04-06T12:37:19Z</time>
      </trkpt>
      <trkpt lat="44.38981" lon="2.43241">
        <ele>410.4</ele>
        <time>2014-04-06T12:37:25Z</time>
      </trkpt>
      <trkpt lat="44.38986" lon="2.43228">
        <ele>410.4</ele>
        <time>2014-04-06T12:37:29Z</time>
      </trkpt>
      <trkpt lat="44.38997" lon="2.43206">
        <ele>410.4</ele>
        <time>2014-04-06T12:37:35Z</time>
      </trkpt>
      <trkpt lat="44.39003" lon="2.43191">
        <ele>410.4</ele>
        <time>2014-04-06T12:37:39Z</time>
      </trkpt>
      <trkpt lat="44.39013" lon="2.43174">
        <ele>411.4</ele>
        <time>2014-04-06T12:37:44Z</time>
      </trkpt>
      <trkpt lat="44.39026" lon="2.43155">
        <ele>412.6</ele>
        <time>2014-04-06T12:37:50Z</time>
      </trkpt>
      <trkpt lat="44.39039" lon="2.43143">
        <ele>413.8</ele>
        <time>2014-04-06T12:37:55Z</time>
      </trkpt>
      <trkpt lat="44.39052" lon="2.43138">
        <ele>415</ele>
        <time>2014-04-06T12:38:00Z</time>
      </trkpt>
      <trkpt lat="44.39063" lon="2.43138">
        <ele>415.8</ele>
        <time>2014-04-06T12:38:04Z</time>
      </trkpt>
      <trkpt lat="44.39077" lon="2.43136">
        <ele>416.2</ele>
        <time>2014-04-06T12:38:09Z</time>
      </trkpt>
      <trkpt lat="44.39092" lon="2.4313">
        <ele>416.6</ele>
        <time>2014-04-06T12:38:14Z</time>
      </trkpt>
      <trkpt lat="44.39104" lon="2.43131">
        <ele>416.8</ele>
        <time>2014-04-06T12:38:18Z</time>
      </trkpt>
      <trkpt lat="44.3912" lon="2.43121">
        <ele>417.8</ele>
        <time>2014-04-06T12:38:24Z</time>
      </trkpt>
      <trkpt lat="44.39128" lon="2.43118">
        <ele>418.2</ele>
        <time>2014-04-06T12:38:27Z</time>
      </trkpt>
      <trkpt lat="44.39135" lon="2.43113">
        <ele>418.4</ele>
        <time>2014-04-06T12:38:31Z</time>
      </trkpt>
      <trkpt lat="44.39136" lon="2.43113">
        <ele>418.6</ele>
        <time>2014-04-06T12:38:33Z</time>
      </trkpt>
      <trkpt lat="44.39138" lon="2.43118">
        <ele>418.8</ele>
        <time>2014-04-06T12:38:38Z</time>
      </trkpt>
      <trkpt lat="44.39136" lon="2.43115">
        <ele>421.8</ele>
        <time>2014-04-06T12:39:11Z</time>
      </trkpt>
      <trkpt lat="44.39136" lon="2.43116">
        <ele>422.4</ele>
        <time>2014-04-06T12:39:15Z</time>
      </trkpt>
      <trkpt lat="44.39137" lon="2.43113">
        <ele>422.6</ele>
        <time>2014-04-06T12:39:19Z</time>
      </trkpt>
      <trkpt lat="44.39141" lon="2.43108">
        <ele>422.8</ele>
        <time>2014-04-06T12:39:22Z</time>
      </trkpt>
      <trkpt lat="44.39142" lon="2.43107">
        <ele>422.8</ele>
        <time>2014-04-06T12:39:23Z</time>
      </trkpt>
      <trkpt lat="44.39145" lon="2.43105">
        <ele>422.8</ele>
        <time>2014-04-06T12:39:25Z</time>
      </trkpt>
      <trkpt lat="44.39151" lon="2.43101">
        <ele>423</ele>
        <time>2014-04-06T12:39:29Z</time>
      </trkpt>
      <trkpt lat="44.39155" lon="2.43098">
        <ele>423</ele>
        <time>2014-04-06T12:39:31Z</time>
      </trkpt>
      <trkpt lat="44.39163" lon="2.43093">
        <ele>423.2</ele>
        <time>2014-04-06T12:39:36Z</time>
      </trkpt>
      <trkpt lat="44.39171" lon="2.4309">
        <ele>423.2</ele>
        <time>2014-04-06T12:39:40Z</time>
      </trkpt>
      <trkpt lat="44.39176" lon="2.43087">
        <ele>423.2</ele>
        <time>2014-04-06T12:39:42Z</time>
      </trkpt>
      <trkpt lat="44.39178" lon="2.43086">
        <ele>423.2</ele>
        <time>2014-04-06T12:39:44Z</time>
      </trkpt>
      <trkpt lat="44.39179" lon="2.43085">
        <ele>423.2</ele>
        <time>2014-04-06T12:39:46Z</time>
      </trkpt>
      <trkpt lat="44.39181" lon="2.43084">
        <ele>422.6</ele>
        <time>2014-04-06T12:39:51Z</time>
      </trkpt>
      <trkpt lat="44.39186" lon="2.43077">
        <ele>422</ele>
        <time>2014-04-06T12:39:57Z</time>
      </trkpt>
      <trkpt lat="44.39187" lon="2.43076">
        <ele>421.8</ele>
        <time>2014-04-06T12:39:58Z</time>
      </trkpt>
      <trkpt lat="44.39194" lon="2.43063">
        <ele>421.2</ele>
        <time>2014-04-06T12:40:18Z</time>
      </trkpt>
      <trkpt lat="44.39194" lon="2.43062">
        <ele>421.2</ele>
        <time>2014-04-06T12:40:19Z</time>
      </trkpt>
      <trkpt lat="44.39197" lon="2.4306">
        <ele>420.8</ele>
        <time>2014-04-06T12:40:22Z</time>
      </trkpt>
      <trkpt lat="44.39198" lon="2.4306">
        <ele>420.6</ele>
        <time>2014-04-06T12:40:24Z</time>
      </trkpt>
      <trkpt lat="44.392" lon="2.43061">
        <ele>420</ele>
        <time>2014-04-06T12:40:29Z</time>
      </trkpt>
      <trkpt lat="44.39198" lon="2.43061">
        <ele>418</ele>
        <time>2014-04-06T12:40:43Z</time>
      </trkpt>
      <trkpt lat="44.39194" lon="2.43068">
        <ele>417.4</ele>
        <time>2014-04-06T12:40:50Z</time>
      </trkpt>
      <trkpt lat="44.39193" lon="2.4307">
        <ele>417.4</ele>
        <time>2014-04-06T12:40:51Z</time>
      </trkpt>
      <trkpt lat="44.3919" lon="2.43079">
        <ele>416.6</ele>
        <time>2014-04-06T12:40:58Z</time>
      </trkpt>
      <trkpt lat="44.39188" lon="2.43083">
        <ele>415.8</ele>
        <time>2014-04-06T12:41:04Z</time>
      </trkpt>
      <trkpt lat="44.39186" lon="2.43085">
        <ele>415.6</ele>
        <time>2014-04-06T12:41:08Z</time>
      </trkpt>
      <trkpt lat="44.39181" lon="2.43088">
        <ele>415.2</ele>
        <time>2014-04-06T12:41:14Z</time>
      </trkpt>
      <trkpt lat="44.39176" lon="2.43092">
        <ele>415.2</ele>
        <time>2014-04-06T12:41:18Z</time>
      </trkpt>
      <trkpt lat="44.39165" lon="2.43102">
        <ele>414</ele>
        <time>2014-04-06T12:41:25Z</time>
      </trkpt>
      <trkpt lat="44.39164" lon="2.43103">
        <ele>413.8</ele>
        <time>2014-04-06T12:41:26Z</time>
      </trkpt>
      <trkpt lat="44.39161" lon="2.43105">
        <ele>413.6</ele>
        <time>2014-04-06T12:41:28Z</time>
      </trkpt>
      <trkpt lat="44.39156" lon="2.43109">
        <ele>413.4</ele>
        <time>2014-04-06T12:41:31Z</time>
      </trkpt>
      <trkpt lat="44.39151" lon="2.43117">
        <ele>413.2</ele>
        <time>2014-04-06T12:41:37Z</time>
      </trkpt>
      <trkpt lat="44.3915" lon="2.43118">
        <ele>413</ele>
        <time>2014-04-06T12:41:39Z</time>
      </trkpt>
      <trkpt lat="44.39149" lon="2.43124">
        <ele>413</ele>
        <time>2014-04-06T12:41:43Z</time>
      </trkpt>
      <trkpt lat="44.39143" lon="2.43124">
        <ele>413</ele>
        <time>2014-04-06T12:41:51Z</time>
      </trkpt>
      <trkpt lat="44.39142" lon="2.43124">
        <ele>413</ele>
        <time>2014-04-06T12:41:52Z</time>
      </trkpt>
      <trkpt lat="44.39138" lon="2.43124">
        <ele>412.8</ele>
        <time>2014-04-06T12:41:55Z</time>
      </trkpt>
      <trkpt lat="44.39129" lon="2.43129">
        <ele>412.4</ele>
        <time>2014-04-06T12:42:00Z</time>
      </trkpt>
      <trkpt lat="44.39126" lon="2.43131">
        <ele>412</ele>
        <time>2014-04-06T12:42:02Z</time>
      </trkpt>
      <trkpt lat="44.39116" lon="2.43134">
        <ele>411.6</ele>
        <time>2014-04-06T12:42:07Z</time>
      </trkpt>
      <trkpt lat="44.39107" lon="2.43138">
        <ele>411.4</ele>
        <time>2014-04-06T12:42:11Z</time>
      </trkpt>
      <trkpt lat="44.39091" lon="2.43141">
        <ele>411</ele>
        <time>2014-04-06T12:42:18Z</time>
      </trkpt>
      <trkpt lat="44.39078" lon="2.43146">
        <ele>411</ele>
        <time>2014-04-06T12:42:24Z</time>
      </trkpt>
      <trkpt lat="44.39075" lon="2.43147">
        <ele>411</ele>
        <time>2014-04-06T12:42:27Z</time>
      </trkpt>
      <trkpt lat="44.39065" lon="2.43149">
        <ele>410.8</ele>
        <time>2014-04-06T12:42:31Z</time>
      </trkpt>
      <trkpt lat="44.39063" lon="2.43151">
        <ele>410.8</ele>
        <time>2014-04-06T12:42:32Z</time>
      </trkpt>
      <trkpt lat="44.39058" lon="2.43151">
        <ele>410.8</ele>
        <time>2014-04-06T12:42:34Z</time>
      </trkpt>
      <trkpt lat="44.39049" lon="2.43154">
        <ele>410.8</ele>
        <time>2014-04-06T12:42:39Z</time>
      </trkpt>
      <trkpt lat="44.39039" lon="2.43161">
        <ele>411.4</ele>
        <time>2014-04-06T12:42:45Z</time>
      </trkpt>
      <trkpt lat="44.39032" lon="2.43169">
        <ele>412</ele>
        <time>2014-04-06T12:42:49Z</time>
      </trkpt>
      <trkpt lat="44.39032" lon="2.43171">
        <ele>412</ele>
        <time>2014-04-06T12:42:50Z</time>
      </trkpt>
      <trkpt lat="44.39025" lon="2.43179">
        <ele>413.2</ele>
        <time>2014-04-06T12:42:54Z</time>
      </trkpt>
      <trkpt lat="44.39015" lon="2.43199">
        <ele>414.4</ele>
        <time>2014-04-06T12:43:01Z</time>
      </trkpt>
      <trkpt lat="44.3901" lon="2.43208">
        <ele>415.2</ele>
        <time>2014-04-06T12:43:04Z</time>
      </trkpt>
      <trkpt lat="44.39002" lon="2.43232">
        <ele>416.2</ele>
        <time>2014-04-06T12:43:11Z</time>
      </trkpt>
      <trkpt lat="44.39001" lon="2.43237">
        <ele>416.4</ele>
        <time>2014-04-06T12:43:13Z</time>
      </trkpt>
      <trkpt lat="44.3901" lon="2.4324">
        <ele>416.8</ele>
        <time>2014-04-06T12:43:19Z</time>
      </trkpt>
      <trkpt lat="44.39016" lon="2.43243">
        <ele>417</ele>
        <time>2014-04-06T12:43:23Z</time>
      </trkpt>
      <trkpt lat="44.39021" lon="2.43236">
        <ele>416.2</ele>
        <time>2014-04-06T12:43:28Z</time>
      </trkpt>
      <trkpt lat="44.39022" lon="2.43233">
        <ele>415.8</ele>
        <time>2014-04-06T12:43:30Z</time>
      </trkpt>
      <trkpt lat="44.39027" lon="2.43226">
        <ele>414.6</ele>
        <time>2014-04-06T12:43:35Z</time>
      </trkpt>
      <trkpt lat="44.39033" lon="2.43221">
        <ele>413.4</ele>
        <time>2014-04-06T12:43:42Z</time>
      </trkpt>
      <trkpt lat="44.39036" lon="2.43219">
        <ele>412.6</ele>
        <time>2014-04-06T12:43:45Z</time>
      </trkpt>
      <trkpt lat="44.39044" lon="2.43216">
        <ele>411.6</ele>
        <time>2014-04-06T12:43:50Z</time>
      </trkpt>
      <trkpt lat="44.39047" lon="2.43215">
        <ele>411.4</ele>
        <time>2014-04-06T12:43:51Z</time>
      </trkpt>
      <trkpt lat="44.39058" lon="2.4321">
        <ele>409.8</ele>
        <time>2014-04-06T12:43:57Z</time>
      </trkpt>
      <trkpt lat="44.39068" lon="2.4321">
        <ele>408.6</ele>
        <time>2014-04-06T12:44:02Z</time>
      </trkpt>
      <trkpt lat="44.39084" lon="2.43213">
        <ele>406.8</ele>
        <time>2014-04-06T12:44:08Z</time>
      </trkpt>
      <trkpt lat="44.3909" lon="2.43213">
        <ele>405.6</ele>
        <time>2014-04-06T12:44:14Z</time>
      </trkpt>
      <trkpt lat="44.39104" lon="2.43213">
        <ele>404</ele>
        <time>2014-04-06T12:44:24Z</time>
      </trkpt>
      <trkpt lat="44.39106" lon="2.43213">
        <ele>403.8</ele>
        <time>2014-04-06T12:44:25Z</time>
      </trkpt>
      <trkpt lat="44.3911" lon="2.43212">
        <ele>403.6</ele>
        <time>2014-04-06T12:44:27Z</time>
      </trkpt>
      <trkpt lat="44.39115" lon="2.43213">
        <ele>403</ele>
        <time>2014-04-06T12:44:32Z</time>
      </trkpt>
      <trkpt lat="44.39122" lon="2.43217">
        <ele>402.8</ele>
        <time>2014-04-06T12:44:38Z</time>
      </trkpt>
      <trkpt lat="44.39132" lon="2.43216">
        <ele>403.2</ele>
        <time>2014-04-06T12:44:44Z</time>
      </trkpt>
      <trkpt lat="44.39132" lon="2.43215">
        <ele>403.2</ele>
        <time>2014-04-06T12:44:45Z</time>
      </trkpt>
      <trkpt lat="44.39134" lon="2.43213">
        <ele>403.4</ele>
        <time>2014-04-06T12:44:46Z</time>
      </trkpt>
      <trkpt lat="44.39143" lon="2.43214">
        <ele>403.8</ele>
        <time>2014-04-06T12:44:51Z</time>
      </trkpt>
      <trkpt lat="44.39143" lon="2.43214">
        <ele>404</ele>
        <time>2014-04-06T12:44:52Z</time>
      </trkpt>
      <trkpt lat="44.39145" lon="2.43214">
        <ele>404.4</ele>
        <time>2014-04-06T12:44:53Z</time>
      </trkpt>
      <trkpt lat="44.39152" lon="2.43214">
        <ele>405.4</ele>
        <time>2014-04-06T12:44:59Z</time>
      </trkpt>
      <trkpt lat="44.39159" lon="2.43213">
        <ele>406.6</ele>
        <time>2014-04-06T12:45:04Z</time>
      </trkpt>
      <trkpt lat="44.39171" lon="2.43211">
        <ele>407.6</ele>
        <time>2014-04-06T12:45:11Z</time>
      </trkpt>
      <trkpt lat="44.39173" lon="2.43211">
        <ele>408</ele>
        <time>2014-04-06T12:45:14Z</time>
      </trkpt>
      <trkpt lat="44.3918" lon="2.43213">
        <ele>408.2</ele>
        <time>2014-04-06T12:45:18Z</time>
      </trkpt>
      <trkpt lat="44.39183" lon="2.43214">
        <ele>408.2</ele>
        <time>2014-04-06T12:45:20Z</time>
      </trkpt>
      <trkpt lat="44.39183" lon="2.43214">
        <ele>408.2</ele>
        <time>2014-04-06T12:45:21Z</time>
      </trkpt>
      <trkpt lat="44.39189" lon="2.43216">
        <ele>409.2</ele>
        <time>2014-04-06T12:45:25Z</time>
      </trkpt>
      <trkpt lat="44.39191" lon="2.43217">
        <ele>409.4</ele>
        <time>2014-04-06T12:45:27Z</time>
      </trkpt>
      <trkpt lat="44.39201" lon="2.43215">
        <ele>410</ele>
        <time>2014-04-06T12:45:32Z</time>
      </trkpt>
      <trkpt lat="44.39201" lon="2.43214">
        <ele>410</ele>
        <time>2014-04-06T12:45:33Z</time>
      </trkpt>
      <trkpt lat="44.39203" lon="2.43215">
        <ele>410.2</ele>
        <time>2014-04-06T12:45:34Z</time>
      </trkpt>
      <trkpt lat="44.3921" lon="2.43215">
        <ele>410.6</ele>
        <time>2014-04-06T12:45:39Z</time>
      </trkpt>
      <trkpt lat="44.39211" lon="2.43215">
        <ele>410.8</ele>
        <time>2014-04-06T12:45:40Z</time>
      </trkpt>
      <trkpt lat="44.39218" lon="2.43217">
        <ele>411.4</ele>
        <time>2014-04-06T12:45:44Z</time>
      </trkpt>
      <trkpt lat="44.39219" lon="2.43218">
        <ele>411.8</ele>
        <time>2014-04-06T12:45:46Z</time>
      </trkpt>
      <trkpt lat="44.39225" lon="2.4322">
        <ele>412</ele>
        <time>2014-04-06T12:45:50Z</time>
      </trkpt>
      <trkpt lat="44.39228" lon="2.43221">
        <ele>412.2</ele>
        <time>2014-04-06T12:45:52Z</time>
      </trkpt>
      <trkpt lat="44.3923" lon="2.43221">
        <ele>412.2</ele>
        <time>2014-04-06T12:45:54Z</time>
      </trkpt>
      <trkpt lat="44.39235" lon="2.43222">
        <ele>412.6</ele>
        <time>2014-04-06T12:45:57Z</time>
      </trkpt>
      <trkpt lat="44.3924" lon="2.43224">
        <ele>413.2</ele>
        <time>2014-04-06T12:46:00Z</time>
      </trkpt>
      <trkpt lat="44.39246" lon="2.43229">
        <ele>413.8</ele>
        <time>2014-04-06T12:46:04Z</time>
      </trkpt>
      <trkpt lat="44.39251" lon="2.43233">
        <ele>414.2</ele>
        <time>2014-04-06T12:46:07Z</time>
      </trkpt>
      <trkpt lat="44.39255" lon="2.43235">
        <ele>415</ele>
        <time>2014-04-06T12:46:10Z</time>
      </trkpt>
      <trkpt lat="44.39261" lon="2.43239">
        <ele>415.8</ele>
        <time>2014-04-06T12:46:15Z</time>
      </trkpt>
      <trkpt lat="44.39271" lon="2.43246">
        <ele>417</ele>
        <time>2014-04-06T12:46:20Z</time>
      </trkpt>
      <trkpt lat="44.39271" lon="2.43247">
        <ele>417.2</ele>
        <time>2014-04-06T12:46:21Z</time>
      </trkpt>
      <trkpt lat="44.39274" lon="2.43249">
        <ele>417.4</ele>
        <time>2014-04-06T12:46:22Z</time>
      </trkpt>
      <trkpt lat="44.39289" lon="2.43259">
        <ele>419.6</ele>
        <time>2014-04-06T12:46:31Z</time>
      </trkpt>
      <trkpt lat="44.39294" lon="2.43261">
        <ele>420.4</ele>
        <time>2014-04-06T12:46:34Z</time>
      </trkpt>
      <trkpt lat="44.39305" lon="2.43256">
        <ele>421.8</ele>
        <time>2014-04-06T12:46:40Z</time>
      </trkpt>
      <trkpt lat="44.39307" lon="2.43255">
        <ele>422</ele>
        <time>2014-04-06T12:46:41Z</time>
      </trkpt>
      <trkpt lat="44.39311" lon="2.43254">
        <ele>423</ele>
        <time>2014-04-06T12:46:45Z</time>
      </trkpt>
      <trkpt lat="44.39315" lon="2.43256">
        <ele>423.8</ele>
        <time>2014-04-06T12:46:49Z</time>
      </trkpt>
      <trkpt lat="44.39322" lon="2.43256">
        <ele>424.4</ele>
        <time>2014-04-06T12:46:53Z</time>
      </trkpt>
      <trkpt lat="44.39327" lon="2.43256">
        <ele>425.2</ele>
        <time>2014-04-06T12:46:57Z</time>
      </trkpt>
      <trkpt lat="44.39335" lon="2.43257">
        <ele>426.2</ele>
        <time>2014-04-06T12:47:02Z</time>
      </trkpt>
      <trkpt lat="44.39338" lon="2.43258">
        <ele>426.4</ele>
        <time>2014-04-06T12:47:04Z</time>
      </trkpt>
      <trkpt lat="44.39346" lon="2.43262">
        <ele>428</ele>
        <time>2014-04-06T12:47:10Z</time>
      </trkpt>
      <trkpt lat="44.39352" lon="2.43265">
        <ele>428.6</ele>
        <time>2014-04-06T12:47:14Z</time>
      </trkpt>
      <trkpt lat="44.39353" lon="2.43267">
        <ele>429.2</ele>
        <time>2014-04-06T12:47:16Z</time>
      </trkpt>
      <trkpt lat="44.39356" lon="2.4327">
        <ele>430.2</ele>
        <time>2014-04-06T12:47:21Z</time>
      </trkpt>
      <trkpt lat="44.39363" lon="2.43272">
        <ele>431.4</ele>
        <time>2014-04-06T12:47:26Z</time>
      </trkpt>
      <trkpt lat="44.39364" lon="2.43273">
        <ele>431.8</ele>
        <time>2014-04-06T12:47:28Z</time>
      </trkpt>
      <trkpt lat="44.39367" lon="2.43274">
        <ele>432.4</ele>
        <time>2014-04-06T12:47:31Z</time>
      </trkpt>
      <trkpt lat="44.39369" lon="2.43278">
        <ele>432.8</ele>
        <time>2014-04-06T12:47:35Z</time>
      </trkpt>
      <trkpt lat="44.39371" lon="2.43279">
        <ele>433.6</ele>
        <time>2014-04-06T12:47:39Z</time>
      </trkpt>
      <trkpt lat="44.39377" lon="2.43282">
        <ele>434.6</ele>
        <time>2014-04-06T12:47:44Z</time>
      </trkpt>
      <trkpt lat="44.39379" lon="2.43283">
        <ele>434.8</ele>
        <time>2014-04-06T12:47:46Z</time>
      </trkpt>
      <trkpt lat="44.39382" lon="2.43285">
        <ele>435</ele>
        <time>2014-04-06T12:47:49Z</time>
      </trkpt>
      <trkpt lat="44.39384" lon="2.43286">
        <ele>435.4</ele>
        <time>2014-04-06T12:47:51Z</time>
      </trkpt>
      <trkpt lat="44.39386" lon="2.43288">
        <ele>436.2</ele>
        <time>2014-04-06T12:47:54Z</time>
      </trkpt>
      <trkpt lat="44.39388" lon="2.43289">
        <ele>436.8</ele>
        <time>2014-04-06T12:47:57Z</time>
      </trkpt>
      <trkpt lat="44.39392" lon="2.43292">
        <ele>437.6</ele>
        <time>2014-04-06T12:48:02Z</time>
      </trkpt>
      <trkpt lat="44.39394" lon="2.43294">
        <ele>438.4</ele>
        <time>2014-04-06T12:48:05Z</time>
      </trkpt>
      <trkpt lat="44.39399" lon="2.43296">
        <ele>439.2</ele>
        <time>2014-04-06T12:48:10Z</time>
      </trkpt>
      <trkpt lat="44.39401" lon="2.43297">
        <ele>439.2</ele>
        <time>2014-04-06T12:48:11Z</time>
      </trkpt>
      <trkpt lat="44.39404" lon="2.43299">
        <ele>439.4</ele>
        <time>2014-04-06T12:48:14Z</time>
      </trkpt>
      <trkpt lat="44.39406" lon="2.43303">
        <ele>440</ele>
        <time>2014-04-06T12:48:16Z</time>
      </trkpt>
      <trkpt lat="44.39407" lon="2.43305">
        <ele>440.6</ele>
        <time>2014-04-06T12:48:19Z</time>
      </trkpt>
      <trkpt lat="44.39413" lon="2.43308">
        <ele>441</ele>
        <time>2014-04-06T12:48:22Z</time>
      </trkpt>
      <trkpt lat="44.39422" lon="2.43313">
        <ele>441.6</ele>
        <time>2014-04-06T12:48:29Z</time>
      </trkpt>
      <trkpt lat="44.39423" lon="2.43313">
        <ele>441.8</ele>
        <time>2014-04-06T12:48:30Z</time>
      </trkpt>
      <trkpt lat="44.39433" lon="2.43311">
        <ele>443.2</ele>
        <time>2014-04-06T12:48:38Z</time>
      </trkpt>
      <trkpt lat="44.39434" lon="2.43311">
        <ele>443.4</ele>
        <time>2014-04-06T12:48:40Z</time>
      </trkpt>
      <trkpt lat="44.39438" lon="2.4331">
        <ele>443.8</ele>
        <time>2014-04-06T12:48:44Z</time>
      </trkpt>
      <trkpt lat="44.39439" lon="2.43309">
        <ele>443.8</ele>
        <time>2014-04-06T12:48:46Z</time>
      </trkpt>
      <trkpt lat="44.39441" lon="2.43308">
        <ele>444.2</ele>
        <time>2014-04-06T12:48:50Z</time>
      </trkpt>
      <trkpt lat="44.39451" lon="2.43308">
        <ele>445.2</ele>
        <time>2014-04-06T12:48:56Z</time>
      </trkpt>
      <trkpt lat="44.39458" lon="2.43307">
        <ele>445.8</ele>
        <time>2014-04-06T12:49:00Z</time>
      </trkpt>
      <trkpt lat="44.39468" lon="2.43308">
        <ele>446</ele>
        <time>2014-04-06T12:49:05Z</time>
      </trkpt>
      <trkpt lat="44.39469" lon="2.43308">
        <ele>446</ele>
        <time>2014-04-06T12:49:06Z</time>
      </trkpt>
      <trkpt lat="44.39472" lon="2.43309">
        <ele>446.2</ele>
        <time>2014-04-06T12:49:09Z</time>
      </trkpt>
      <trkpt lat="44.39483" lon="2.43307">
        <ele>446.4</ele>
        <time>2014-04-06T12:49:15Z</time>
      </trkpt>
      <trkpt lat="44.39486" lon="2.43306">
        <ele>446.4</ele>
        <time>2014-04-06T12:49:16Z</time>
      </trkpt>
      <trkpt lat="44.39493" lon="2.43304">
        <ele>446.4</ele>
        <time>2014-04-06T12:49:20Z</time>
      </trkpt>
      <trkpt lat="44.395" lon="2.43301">
        <ele>446.4</ele>
        <time>2014-04-06T12:49:23Z</time>
      </trkpt>
      <trkpt lat="44.39507" lon="2.43287">
        <ele>445.6</ele>
        <time>2014-04-06T12:49:29Z</time>
      </trkpt>
      <trkpt lat="44.39508" lon="2.43286">
        <ele>445.4</ele>
        <time>2014-04-06T12:49:30Z</time>
      </trkpt>
      <trkpt lat="44.39513" lon="2.4328">
        <ele>444.4</ele>
        <time>2014-04-06T12:49:35Z</time>
      </trkpt>
      <trkpt lat="44.39517" lon="2.43277">
        <ele>443.6</ele>
        <time>2014-04-06T12:49:39Z</time>
      </trkpt>
      <trkpt lat="44.39524" lon="2.43269">
        <ele>442.6</ele>
        <time>2014-04-06T12:49:43Z</time>
      </trkpt>
      <trkpt lat="44.39531" lon="2.43265">
        <ele>441.4</ele>
        <time>2014-04-06T12:49:49Z</time>
      </trkpt>
      <trkpt lat="44.39535" lon="2.43263">
        <ele>440.4</ele>
        <time>2014-04-06T12:49:52Z</time>
      </trkpt>
      <trkpt lat="44.3954" lon="2.43258">
        <ele>439.2</ele>
        <time>2014-04-06T12:49:56Z</time>
      </trkpt>
      <trkpt lat="44.39542" lon="2.43256">
        <ele>438.6</ele>
        <time>2014-04-06T12:49:58Z</time>
      </trkpt>
      <trkpt lat="44.39546" lon="2.43254">
        <ele>437.6</ele>
        <time>2014-04-06T12:50:01Z</time>
      </trkpt>
      <trkpt lat="44.3955" lon="2.43251">
        <ele>435.6</ele>
        <time>2014-04-06T12:50:08Z</time>
      </trkpt>
      <trkpt lat="44.39556" lon="2.43244">
        <ele>433.8</ele>
        <time>2014-04-06T12:50:14Z</time>
      </trkpt>
      <trkpt lat="44.39562" lon="2.43239">
        <ele>432.4</ele>
        <time>2014-04-06T12:50:19Z</time>
      </trkpt>
      <trkpt lat="44.39563" lon="2.43237">
        <ele>431.8</ele>
        <time>2014-04-06T12:50:21Z</time>
      </trkpt>
      <trkpt lat="44.39579" lon="2.43233">
        <ele>428</ele>
        <time>2014-04-06T12:50:32Z</time>
      </trkpt>
      <trkpt lat="44.39585" lon="2.43228">
        <ele>426.8</ele>
        <time>2014-04-06T12:50:36Z</time>
      </trkpt>
      <trkpt lat="44.3959" lon="2.43227">
        <ele>425.6</ele>
        <time>2014-04-06T12:50:40Z</time>
      </trkpt>
      <trkpt lat="44.39597" lon="2.43223">
        <ele>424.4</ele>
        <time>2014-04-06T12:50:44Z</time>
      </trkpt>
      <trkpt lat="44.396" lon="2.43223">
        <ele>423.8</ele>
        <time>2014-04-06T12:50:46Z</time>
      </trkpt>
      <trkpt lat="44.39608" lon="2.43223">
        <ele>422.4</ele>
        <time>2014-04-06T12:50:50Z</time>
      </trkpt>
      <trkpt lat="44.39609" lon="2.43223">
        <ele>422.2</ele>
        <time>2014-04-06T12:50:51Z</time>
      </trkpt>
      <trkpt lat="44.39612" lon="2.43222">
        <ele>421</ele>
        <time>2014-04-06T12:50:55Z</time>
      </trkpt>
      <trkpt lat="44.39614" lon="2.43221">
        <ele>420.4</ele>
        <time>2014-04-06T12:50:57Z</time>
      </trkpt>
      <trkpt lat="44.39629" lon="2.4321">
        <ele>417.8</ele>
        <time>2014-04-06T12:51:06Z</time>
      </trkpt>
      <trkpt lat="44.39631" lon="2.4321">
        <ele>417.6</ele>
        <time>2014-04-06T12:51:07Z</time>
      </trkpt>
      <trkpt lat="44.39639" lon="2.43209">
        <ele>415.8</ele>
        <time>2014-04-06T12:51:12Z</time>
      </trkpt>
      <trkpt lat="44.3964" lon="2.43209">
        <ele>415.6</ele>
        <time>2014-04-06T12:51:13Z</time>
      </trkpt>
      <trkpt lat="44.39646" lon="2.43205">
        <ele>414</ele>
        <time>2014-04-06T12:51:18Z</time>
      </trkpt>
      <trkpt lat="44.39647" lon="2.43205">
        <ele>413.8</ele>
        <time>2014-04-06T12:51:18Z</time>
      </trkpt>
      <trkpt lat="44.39657" lon="2.43177">
        <ele>410.2</ele>
        <time>2014-04-06T12:51:29Z</time>
      </trkpt>
      <trkpt lat="44.39657" lon="2.43162">
        <ele>408.2</ele>
        <time>2014-04-06T12:51:35Z</time>
      </trkpt>
      <trkpt lat="44.39658" lon="2.43144">
        <ele>407</ele>
        <time>2014-04-06T12:51:40Z</time>
      </trkpt>
      <trkpt lat="44.39659" lon="2.43131">
        <ele>406.4</ele>
        <time>2014-04-06T12:51:43Z</time>
      </trkpt>
      <trkpt lat="44.3966" lon="2.43126">
        <ele>406.2</ele>
        <time>2014-04-06T12:51:45Z</time>
      </trkpt>
      <trkpt lat="44.39664" lon="2.43119">
        <ele>405.4</ele>
        <time>2014-04-06T12:51:49Z</time>
      </trkpt>
      <trkpt lat="44.39667" lon="2.43119">
        <ele>405</ele>
        <time>2014-04-06T12:51:51Z</time>
      </trkpt>
      <trkpt lat="44.39669" lon="2.43117">
        <ele>404.4</ele>
        <time>2014-04-06T12:51:55Z</time>
      </trkpt>
      <trkpt lat="44.39667" lon="2.43118">
        <ele>404</ele>
        <time>2014-04-06T12:51:59Z</time>
      </trkpt>
      <trkpt lat="44.39664" lon="2.43116">
        <ele>403.8</ele>
        <time>2014-04-06T12:52:01Z</time>
      </trkpt>
      <trkpt lat="44.39663" lon="2.43114">
        <ele>403.6</ele>
        <time>2014-04-06T12:52:03Z</time>
      </trkpt>
      <trkpt lat="44.39663" lon="2.43096">
        <ele>402.6</ele>
        <time>2014-04-06T12:52:09Z</time>
      </trkpt>
      <trkpt lat="44.39668" lon="2.43074">
        <ele>401.8</ele>
        <time>2014-04-06T12:52:16Z</time>
      </trkpt>
      <trkpt lat="44.3967" lon="2.4306">
        <ele>401.4</ele>
        <time>2014-04-06T12:52:21Z</time>
      </trkpt>
      <trkpt lat="44.39671" lon="2.43047">
        <ele>400.8</ele>
        <time>2014-04-06T12:52:24Z</time>
      </trkpt>
      <trkpt lat="44.39673" lon="2.43032">
        <ele>400.2</ele>
        <time>2014-04-06T12:52:28Z</time>
      </trkpt>
      <trkpt lat="44.3968" lon="2.43021">
        <ele>399.8</ele>
        <time>2014-04-06T12:52:32Z</time>
      </trkpt>
      <trkpt lat="44.39681" lon="2.43013">
        <ele>399.6</ele>
        <time>2014-04-06T12:52:34Z</time>
      </trkpt>
      <trkpt lat="44.3968" lon="2.43001">
        <ele>399.4</ele>
        <time>2014-04-06T12:52:38Z</time>
      </trkpt>
      <trkpt lat="44.3968" lon="2.42994">
        <ele>398.8</ele>
        <time>2014-04-06T12:52:41Z</time>
      </trkpt>
      <trkpt lat="44.39681" lon="2.42988">
        <ele>398</ele>
        <time>2014-04-06T12:52:46Z</time>
      </trkpt>
      <trkpt lat="44.39683" lon="2.42987">
        <ele>397.4</ele>
        <time>2014-04-06T12:52:54Z</time>
      </trkpt>
      <trkpt lat="44.39686" lon="2.42997">
        <ele>394.8</ele>
        <time>2014-04-06T12:53:13Z</time>
      </trkpt>
      <trkpt lat="44.39685" lon="2.43004">
        <ele>394</ele>
        <time>2014-04-06T12:53:17Z</time>
      </trkpt>
      <trkpt lat="44.39685" lon="2.43006">
        <ele>394</ele>
        <time>2014-04-06T12:53:18Z</time>
      </trkpt>
      <trkpt lat="44.39686" lon="2.43011">
        <ele>393.4</ele>
        <time>2014-04-06T12:53:20Z</time>
      </trkpt>
      <trkpt lat="44.39686" lon="2.43021">
        <ele>392.4</ele>
        <time>2014-04-06T12:53:26Z</time>
      </trkpt>
      <trkpt lat="44.39687" lon="2.43028">
        <ele>391.8</ele>
        <time>2014-04-06T12:53:30Z</time>
      </trkpt>
      <trkpt lat="44.39686" lon="2.43043">
        <ele>391</ele>
        <time>2014-04-06T12:53:37Z</time>
      </trkpt>
      <trkpt lat="44.39689" lon="2.43064">
        <ele>390</ele>
        <time>2014-04-06T12:53:43Z</time>
      </trkpt>
      <trkpt lat="44.39691" lon="2.43067">
        <ele>389.8</ele>
        <time>2014-04-06T12:53:44Z</time>
      </trkpt>
      <trkpt lat="44.39695" lon="2.43072">
        <ele>389.6</ele>
        <time>2014-04-06T12:53:46Z</time>
      </trkpt>
      <trkpt lat="44.39701" lon="2.43082">
        <ele>389.2</ele>
        <time>2014-04-06T12:53:50Z</time>
      </trkpt>
      <trkpt lat="44.39705" lon="2.43086">
        <ele>389.2</ele>
        <time>2014-04-06T12:53:52Z</time>
      </trkpt>
      <trkpt lat="44.3971" lon="2.43096">
        <ele>389</ele>
        <time>2014-04-06T12:53:56Z</time>
      </trkpt>
      <trkpt lat="44.39718" lon="2.43111">
        <ele>388.8</ele>
        <time>2014-04-06T12:54:02Z</time>
      </trkpt>
      <trkpt lat="44.39721" lon="2.4312">
        <ele>388.8</ele>
        <time>2014-04-06T12:54:06Z</time>
      </trkpt>
      <trkpt lat="44.39721" lon="2.43122">
        <ele>388.8</ele>
        <time>2014-04-06T12:54:07Z</time>
      </trkpt>
      <trkpt lat="44.39729" lon="2.43135">
        <ele>388.8</ele>
        <time>2014-04-06T12:54:12Z</time>
      </trkpt>
      <trkpt lat="44.3973" lon="2.43136">
        <ele>388.8</ele>
        <time>2014-04-06T12:54:13Z</time>
      </trkpt>
      <trkpt lat="44.39733" lon="2.43148">
        <ele>388.8</ele>
        <time>2014-04-06T12:54:17Z</time>
      </trkpt>
      <trkpt lat="44.39737" lon="2.43157">
        <ele>388.8</ele>
        <time>2014-04-06T12:54:20Z</time>
      </trkpt>
      <trkpt lat="44.39744" lon="2.43167">
        <ele>388.8</ele>
        <time>2014-04-06T12:54:24Z</time>
      </trkpt>
      <trkpt lat="44.39753" lon="2.43177">
        <ele>389.4</ele>
        <time>2014-04-06T12:54:29Z</time>
      </trkpt>
      <trkpt lat="44.39767" lon="2.43186">
        <ele>390.2</ele>
        <time>2014-04-06T12:54:35Z</time>
      </trkpt>
      <trkpt lat="44.39769" lon="2.43187">
        <ele>390.2</ele>
        <time>2014-04-06T12:54:36Z</time>
      </trkpt>
      <trkpt lat="44.39779" lon="2.43199">
        <ele>391.4</ele>
        <time>2014-04-06T12:54:43Z</time>
      </trkpt>
      <trkpt lat="44.39782" lon="2.43202">
        <ele>392</ele>
        <time>2014-04-06T12:54:49Z</time>
      </trkpt>
      <trkpt lat="44.39788" lon="2.43208">
        <ele>393.8</ele>
        <time>2014-04-06T12:55:00Z</time>
      </trkpt>
      <trkpt lat="44.3979" lon="2.43216">
        <ele>394.2</ele>
        <time>2014-04-06T12:55:05Z</time>
      </trkpt>
      <trkpt lat="44.39793" lon="2.4322">
        <ele>394.4</ele>
        <time>2014-04-06T12:55:07Z</time>
      </trkpt>
      <trkpt lat="44.39794" lon="2.43226">
        <ele>395</ele>
        <time>2014-04-06T12:55:10Z</time>
      </trkpt>
      <trkpt lat="44.39799" lon="2.43239">
        <ele>396</ele>
        <time>2014-04-06T12:55:16Z</time>
      </trkpt>
      <trkpt lat="44.398" lon="2.43242">
        <ele>396</ele>
        <time>2014-04-06T12:55:17Z</time>
      </trkpt>
      <trkpt lat="44.39801" lon="2.43245">
        <ele>396.2</ele>
        <time>2014-04-06T12:55:19Z</time>
      </trkpt>
      <trkpt lat="44.39804" lon="2.43254">
        <ele>396.6</ele>
        <time>2014-04-06T12:55:23Z</time>
      </trkpt>
      <trkpt lat="44.39804" lon="2.4327">
        <ele>397.4</ele>
        <time>2014-04-06T12:55:30Z</time>
      </trkpt>
      <trkpt lat="44.39803" lon="2.43274">
        <ele>397.6</ele>
        <time>2014-04-06T12:55:32Z</time>
      </trkpt>
      <trkpt lat="44.398" lon="2.43288">
        <ele>398.2</ele>
        <time>2014-04-06T12:55:37Z</time>
      </trkpt>
      <trkpt lat="44.39796" lon="2.43301">
        <ele>399.4</ele>
        <time>2014-04-06T12:55:43Z</time>
      </trkpt>
      <trkpt lat="44.39795" lon="2.43304">
        <ele>400.4</ele>
        <time>2014-04-06T12:55:49Z</time>
      </trkpt>
      <trkpt lat="44.39796" lon="2.43301">
        <ele>401</ele>
        <time>2014-04-06T12:55:53Z</time>
      </trkpt>
      <trkpt lat="44.398" lon="2.43287">
        <ele>402.2</ele>
        <time>2014-04-06T12:55:59Z</time>
      </trkpt>
      <trkpt lat="44.39806" lon="2.43273">
        <ele>402.8</ele>
        <time>2014-04-06T12:56:05Z</time>
      </trkpt>
      <trkpt lat="44.39806" lon="2.4327">
        <ele>402.8</ele>
        <time>2014-04-06T12:56:06Z</time>
      </trkpt>
      <trkpt lat="44.39806" lon="2.43265">
        <ele>402.8</ele>
        <time>2014-04-06T12:56:08Z</time>
      </trkpt>
      <trkpt lat="44.398" lon="2.43248">
        <ele>403.2</ele>
        <time>2014-04-06T12:56:14Z</time>
      </trkpt>
      <trkpt lat="44.39793" lon="2.43235">
        <ele>403.2</ele>
        <time>2014-04-06T12:56:19Z</time>
      </trkpt>
      <trkpt lat="44.39789" lon="2.4322">
        <ele>403.2</ele>
        <time>2014-04-06T12:56:23Z</time>
      </trkpt>
      <trkpt lat="44.39788" lon="2.43211">
        <ele>403.2</ele>
        <time>2014-04-06T12:56:27Z</time>
      </trkpt>
      <trkpt lat="44.3979" lon="2.43209">
        <ele>402.8</ele>
        <time>2014-04-06T12:56:30Z</time>
      </trkpt>
      <trkpt lat="44.39794" lon="2.43201">
        <ele>402.2</ele>
        <time>2014-04-06T12:56:34Z</time>
      </trkpt>
      <trkpt lat="44.39799" lon="2.43195">
        <ele>401.8</ele>
        <time>2014-04-06T12:56:39Z</time>
      </trkpt>
      <trkpt lat="44.39804" lon="2.43194">
        <ele>401.6</ele>
        <time>2014-04-06T12:56:43Z</time>
      </trkpt>
      <trkpt lat="44.39806" lon="2.43195">
        <ele>401.6</ele>
        <time>2014-04-06T12:56:44Z</time>
      </trkpt>
      <trkpt lat="44.39811" lon="2.43199">
        <ele>401.4</ele>
        <time>2014-04-06T12:56:50Z</time>
      </trkpt>
      <trkpt lat="44.39813" lon="2.43199">
        <ele>401.4</ele>
        <time>2014-04-06T12:56:52Z</time>
      </trkpt>
      <trkpt lat="44.39818" lon="2.43204">
        <ele>401.4</ele>
        <time>2014-04-06T12:56:58Z</time>
      </trkpt>
      <trkpt lat="44.39818" lon="2.43205">
        <ele>401.4</ele>
        <time>2014-04-06T12:56:59Z</time>
      </trkpt>
      <trkpt lat="44.39819" lon="2.43207">
        <ele>401.4</ele>
        <time>2014-04-06T12:57:01Z</time>
      </trkpt>
      <trkpt lat="44.39824" lon="2.43212">
        <ele>401.4</ele>
        <time>2014-04-06T12:57:07Z</time>
      </trkpt>
      <trkpt lat="44.39825" lon="2.43213">
        <ele>401.4</ele>
        <time>2014-04-06T12:57:08Z</time>
      </trkpt>
      <trkpt lat="44.39826" lon="2.43214">
        <ele>401.4</ele>
        <time>2014-04-06T12:57:10Z</time>
      </trkpt>
      <trkpt lat="44.39827" lon="2.43215">
        <ele>401.4</ele>
        <time>2014-04-06T12:57:11Z</time>
      </trkpt>
      <trkpt lat="44.3983" lon="2.43216">
        <ele>401.4</ele>
        <time>2014-04-06T12:57:15Z</time>
      </trkpt>
      <trkpt lat="44.39833" lon="2.43214">
        <ele>401.4</ele>
        <time>2014-04-06T12:57:22Z</time>
      </trkpt>
      <trkpt lat="44.39835" lon="2.43214">
        <ele>401.6</ele>
        <time>2014-04-06T12:57:29Z</time>
      </trkpt>
      <trkpt lat="44.39834" lon="2.43214">
        <ele>403</ele>
        <time>2014-04-06T12:57:44Z</time>
      </trkpt>
      <trkpt lat="44.39835" lon="2.4321">
        <ele>403.4</ele>
        <time>2014-04-06T12:57:49Z</time>
      </trkpt>
      <trkpt lat="44.39838" lon="2.43207">
        <ele>404.4</ele>
        <time>2014-04-06T12:57:56Z</time>
      </trkpt>
      <trkpt lat="44.3984" lon="2.43203">
        <ele>404.8</ele>
        <time>2014-04-06T12:58:01Z</time>
      </trkpt>
      <trkpt lat="44.39842" lon="2.43198">
        <ele>405</ele>
        <time>2014-04-06T12:58:07Z</time>
      </trkpt>
      <trkpt lat="44.39845" lon="2.43193">
        <ele>405.2</ele>
        <time>2014-04-06T12:58:12Z</time>
      </trkpt>
      <trkpt lat="44.39847" lon="2.43186">
        <ele>406</ele>
        <time>2014-04-06T12:58:20Z</time>
      </trkpt>
      <trkpt lat="44.3985" lon="2.4318">
        <ele>406.8</ele>
        <time>2014-04-06T12:58:27Z</time>
      </trkpt>
      <trkpt lat="44.39854" lon="2.43173">
        <ele>407.2</ele>
        <time>2014-04-06T12:58:33Z</time>
      </trkpt>
      <trkpt lat="44.39854" lon="2.43172">
        <ele>407.2</ele>
        <time>2014-04-06T12:58:34Z</time>
      </trkpt>
      <trkpt lat="44.39859" lon="2.43166">
        <ele>408.4</ele>
        <time>2014-04-06T12:58:40Z</time>
      </trkpt>
      <trkpt lat="44.3986" lon="2.43166">
        <ele>408.4</ele>
        <time>2014-04-06T12:58:41Z</time>
      </trkpt>
      <trkpt lat="44.39861" lon="2.43167">
        <ele>409</ele>
        <time>2014-04-06T12:58:47Z</time>
      </trkpt>
      <trkpt lat="44.39862" lon="2.43173">
        <ele>410.2</ele>
        <time>2014-04-06T12:58:52Z</time>
      </trkpt>
      <trkpt lat="44.39862" lon="2.43176">
        <ele>410.4</ele>
        <time>2014-04-06T12:58:54Z</time>
      </trkpt>
      <trkpt lat="44.39863" lon="2.4318">
        <ele>411</ele>
        <time>2014-04-06T12:58:58Z</time>
      </trkpt>
      <trkpt lat="44.39865" lon="2.43182">
        <ele>412.2</ele>
        <time>2014-04-06T12:59:04Z</time>
      </trkpt>
      <trkpt lat="44.39866" lon="2.43183">
        <ele>413</ele>
        <time>2014-04-06T12:59:09Z</time>
      </trkpt>
      <trkpt lat="44.39868" lon="2.43187">
        <ele>414</ele>
        <time>2014-04-06T12:59:15Z</time>
      </trkpt>
      <trkpt lat="44.39868" lon="2.43193">
        <ele>415</ele>
        <time>2014-04-06T12:59:22Z</time>
      </trkpt>
      <trkpt lat="44.39869" lon="2.43198">
        <ele>415.4</ele>
        <time>2014-04-06T12:59:28Z</time>
      </trkpt>
      <trkpt lat="44.39872" lon="2.432">
        <ele>416.4</ele>
        <time>2014-04-06T12:59:33Z</time>
      </trkpt>
      <trkpt lat="44.39875" lon="2.43204">
        <ele>417.2</ele>
        <time>2014-04-06T12:59:38Z</time>
      </trkpt>
      <trkpt lat="44.39877" lon="2.43204">
        <ele>417.4</ele>
        <time>2014-04-06T12:59:42Z</time>
      </trkpt>
      <trkpt lat="44.39881" lon="2.43203">
        <ele>418</ele>
        <time>2014-04-06T12:59:46Z</time>
      </trkpt>
      <trkpt lat="44.39884" lon="2.43203">
        <ele>419</ele>
        <time>2014-04-06T12:59:51Z</time>
      </trkpt>
      <trkpt lat="44.39887" lon="2.43204">
        <ele>419.8</ele>
        <time>2014-04-06T12:59:55Z</time>
      </trkpt>
      <trkpt lat="44.39889" lon="2.43203">
        <ele>420</ele>
        <time>2014-04-06T12:59:56Z</time>
      </trkpt>
      <trkpt lat="44.39894" lon="2.43205">
        <ele>421.2</ele>
        <time>2014-04-06T13:00:02Z</time>
      </trkpt>
      <trkpt lat="44.39895" lon="2.43205">
        <ele>421.2</ele>
        <time>2014-04-06T13:00:03Z</time>
      </trkpt>
      <trkpt lat="44.39899" lon="2.43212">
        <ele>422.8</ele>
        <time>2014-04-06T13:00:10Z</time>
      </trkpt>
      <trkpt lat="44.39899" lon="2.43217">
        <ele>423</ele>
        <time>2014-04-06T13:00:11Z</time>
      </trkpt>
      <trkpt lat="44.39899" lon="2.4322">
        <ele>423.2</ele>
        <time>2014-04-06T13:00:13Z</time>
      </trkpt>
      <trkpt lat="44.39903" lon="2.43225">
        <ele>423.6</ele>
        <time>2014-04-06T13:00:17Z</time>
      </trkpt>
      <trkpt lat="44.39911" lon="2.43231">
        <ele>425</ele>
        <time>2014-04-06T13:00:25Z</time>
      </trkpt>
      <trkpt lat="44.39915" lon="2.43234">
        <ele>425.4</ele>
        <time>2014-04-06T13:00:28Z</time>
      </trkpt>
      <trkpt lat="44.39918" lon="2.43237">
        <ele>425.8</ele>
        <time>2014-04-06T13:00:31Z</time>
      </trkpt>
      <trkpt lat="44.39926" lon="2.4324">
        <ele>426</ele>
        <time>2014-04-06T13:00:37Z</time>
      </trkpt>
      <trkpt lat="44.39929" lon="2.43241">
        <ele>426.8</ele>
        <time>2014-04-06T13:00:44Z</time>
      </trkpt>
      <trkpt lat="44.39934" lon="2.43248">
        <ele>427.8</ele>
        <time>2014-04-06T13:00:51Z</time>
      </trkpt>
      <trkpt lat="44.39939" lon="2.43256">
        <ele>428.4</ele>
        <time>2014-04-06T13:00:57Z</time>
      </trkpt>
      <trkpt lat="44.39942" lon="2.43258">
        <ele>429</ele>
        <time>2014-04-06T13:01:00Z</time>
      </trkpt>
      <trkpt lat="44.39947" lon="2.4327">
        <ele>429.6</ele>
        <time>2014-04-06T13:01:06Z</time>
      </trkpt>
      <trkpt lat="44.39948" lon="2.43271">
        <ele>429.8</ele>
        <time>2014-04-06T13:01:07Z</time>
      </trkpt>
      <trkpt lat="44.3995" lon="2.43274">
        <ele>430.6</ele>
        <time>2014-04-06T13:01:09Z</time>
      </trkpt>
      <trkpt lat="44.39952" lon="2.43276">
        <ele>431</ele>
        <time>2014-04-06T13:01:13Z</time>
      </trkpt>
      <trkpt lat="44.39958" lon="2.43284">
        <ele>432.2</ele>
        <time>2014-04-06T13:01:20Z</time>
      </trkpt>
      <trkpt lat="44.39959" lon="2.43286">
        <ele>432.6</ele>
        <time>2014-04-06T13:01:21Z</time>
      </trkpt>
      <trkpt lat="44.39965" lon="2.43293">
        <ele>433.8</ele>
        <time>2014-04-06T13:01:28Z</time>
      </trkpt>
      <trkpt lat="44.39966" lon="2.43294">
        <ele>434.2</ele>
        <time>2014-04-06T13:01:29Z</time>
      </trkpt>
      <trkpt lat="44.39969" lon="2.43303">
        <ele>436</ele>
        <time>2014-04-06T13:01:36Z</time>
      </trkpt>
      <trkpt lat="44.3997" lon="2.43311">
        <ele>437.2</ele>
        <time>2014-04-06T13:01:41Z</time>
      </trkpt>
      <trkpt lat="44.39972" lon="2.43315">
        <ele>438.4</ele>
        <time>2014-04-06T13:01:45Z</time>
      </trkpt>
      <trkpt lat="44.39974" lon="2.43319">
        <ele>440.2</ele>
        <time>2014-04-06T13:01:51Z</time>
      </trkpt>
      <trkpt lat="44.39978" lon="2.43321">
        <ele>442.2</ele>
        <time>2014-04-06T13:01:59Z</time>
      </trkpt>
      <trkpt lat="44.39979" lon="2.43322">
        <ele>442.8</ele>
        <time>2014-04-06T13:02:01Z</time>
      </trkpt>
      <trkpt lat="44.39985" lon="2.43325">
        <ele>445</ele>
        <time>2014-04-06T13:02:09Z</time>
      </trkpt>
      <trkpt lat="44.39987" lon="2.43328">
        <ele>446.4</ele>
        <time>2014-04-06T13:02:15Z</time>
      </trkpt>
      <trkpt lat="44.39989" lon="2.4333">
        <ele>447.4</ele>
        <time>2014-04-06T13:02:19Z</time>
      </trkpt>
      <trkpt lat="44.39997" lon="2.43334">
        <ele>448.4</ele>
        <time>2014-04-06T13:02:24Z</time>
      </trkpt>
      <trkpt lat="44.4" lon="2.43335">
        <ele>448.8</ele>
        <time>2014-04-06T13:02:27Z</time>
      </trkpt>
      <trkpt lat="44.40007" lon="2.43337">
        <ele>450.4</ele>
        <time>2014-04-06T13:02:34Z</time>
      </trkpt>
      <trkpt lat="44.4001" lon="2.43339">
        <ele>451</ele>
        <time>2014-04-06T13:02:38Z</time>
      </trkpt>
      <trkpt lat="44.40012" lon="2.43339">
        <ele>451.8</ele>
        <time>2014-04-06T13:02:41Z</time>
      </trkpt>
      <trkpt lat="44.40015" lon="2.43338">
        <ele>452.4</ele>
        <time>2014-04-06T13:02:45Z</time>
      </trkpt>
      <trkpt lat="44.40019" lon="2.43339">
        <ele>454</ele>
        <time>2014-04-06T13:02:52Z</time>
      </trkpt>
      <trkpt lat="44.40022" lon="2.43339">
        <ele>455.2</ele>
        <time>2014-04-06T13:03:01Z</time>
      </trkpt>
      <trkpt lat="44.40025" lon="2.43339">
        <ele>456.2</ele>
        <time>2014-04-06T13:03:05Z</time>
      </trkpt>
      <trkpt lat="44.40026" lon="2.43339">
        <ele>456.6</ele>
        <time>2014-04-06T13:03:07Z</time>
      </trkpt>
      <trkpt lat="44.40029" lon="2.43337">
        <ele>457.2</ele>
        <time>2014-04-06T13:03:11Z</time>
      </trkpt>
      <trkpt lat="44.4003" lon="2.43337">
        <ele>457.6</ele>
        <time>2014-04-06T13:03:13Z</time>
      </trkpt>
      <trkpt lat="44.40033" lon="2.43335">
        <ele>458.4</ele>
        <time>2014-04-06T13:03:16Z</time>
      </trkpt>
      <trkpt lat="44.40035" lon="2.43337">
        <ele>458.8</ele>
        <time>2014-04-06T13:03:19Z</time>
      </trkpt>
      <trkpt lat="44.40036" lon="2.43342">
        <ele>460.2</ele>
        <time>2014-04-06T13:03:24Z</time>
      </trkpt>
      <trkpt lat="44.40036" lon="2.43343">
        <ele>460.4</ele>
        <time>2014-04-06T13:03:25Z</time>
      </trkpt>
      <trkpt lat="44.40036" lon="2.43345">
        <ele>462</ele>
        <time>2014-04-06T13:03:33Z</time>
      </trkpt>
      <trkpt lat="44.40039" lon="2.43346">
        <ele>463.4</ele>
        <time>2014-04-06T13:03:40Z</time>
      </trkpt>
      <trkpt lat="44.40045" lon="2.43352">
        <ele>465.2</ele>
        <time>2014-04-06T13:03:48Z</time>
      </trkpt>
      <trkpt lat="44.40045" lon="2.43353">
        <ele>465.4</ele>
        <time>2014-04-06T13:03:49Z</time>
      </trkpt>
      <trkpt lat="44.4005" lon="2.43358">
        <ele>466.6</ele>
        <time>2014-04-06T13:03:55Z</time>
      </trkpt>
      <trkpt lat="44.4005" lon="2.43359">
        <ele>466.8</ele>
        <time>2014-04-06T13:03:56Z</time>
      </trkpt>
      <trkpt lat="44.40051" lon="2.4336">
        <ele>467</ele>
        <time>2014-04-06T13:03:57Z</time>
      </trkpt>
      <trkpt lat="44.40051" lon="2.43364">
        <ele>467.8</ele>
        <time>2014-04-06T13:04:02Z</time>
      </trkpt>
      <trkpt lat="44.40052" lon="2.43366">
        <ele>468.2</ele>
        <time>2014-04-06T13:04:04Z</time>
      </trkpt>
      <trkpt lat="44.40052" lon="2.43375">
        <ele>469.4</ele>
        <time>2014-04-06T13:04:10Z</time>
      </trkpt>
      <trkpt lat="44.40053" lon="2.43378">
        <ele>469.8</ele>
        <time>2014-04-06T13:04:13Z</time>
      </trkpt>
      <trkpt lat="44.40053" lon="2.43382">
        <ele>470.2</ele>
        <time>2014-04-06T13:04:17Z</time>
      </trkpt>
      <trkpt lat="44.40055" lon="2.43387">
        <ele>471.2</ele>
        <time>2014-04-06T13:04:23Z</time>
      </trkpt>
      <trkpt lat="44.40056" lon="2.43386">
        <ele>473</ele>
        <time>2014-04-06T13:04:35Z</time>
      </trkpt>
      <trkpt lat="44.40056" lon="2.43387">
        <ele>473.6</ele>
        <time>2014-04-06T13:04:39Z</time>
      </trkpt>
      <trkpt lat="44.40055" lon="2.43387">
        <ele>474.6</ele>
        <time>2014-04-06T13:04:44Z</time>
      </trkpt>
      <trkpt lat="44.40056" lon="2.43387">
        <ele>475.8</ele>
        <time>2014-04-06T13:04:50Z</time>
      </trkpt>
      <trkpt lat="44.40057" lon="2.43387">
        <ele>476</ele>
        <time>2014-04-06T13:04:52Z</time>
      </trkpt>
      <trkpt lat="44.40057" lon="2.43403">
        <ele>477.8</ele>
        <time>2014-04-06T13:05:01Z</time>
      </trkpt>
      <trkpt lat="44.40056" lon="2.43406">
        <ele>478</ele>
        <time>2014-04-06T13:05:03Z</time>
      </trkpt>
      <trkpt lat="44.40054" lon="2.43417">
        <ele>478.6</ele>
        <time>2014-04-06T13:05:10Z</time>
      </trkpt>
      <trkpt lat="44.40053" lon="2.43422">
        <ele>479.4</ele>
        <time>2014-04-06T13:05:13Z</time>
      </trkpt>
      <trkpt lat="44.4005" lon="2.43435">
        <ele>480</ele>
        <time>2014-04-06T13:05:18Z</time>
      </trkpt>
      <trkpt lat="44.40048" lon="2.43456">
        <ele>481</ele>
        <time>2014-04-06T13:05:26Z</time>
      </trkpt>
      <trkpt lat="44.40047" lon="2.43471">
        <ele>482</ele>
        <time>2014-04-06T13:05:32Z</time>
      </trkpt>
      <trkpt lat="44.40048" lon="2.43488">
        <ele>482.6</ele>
        <time>2014-04-06T13:05:38Z</time>
      </trkpt>
      <trkpt lat="44.40048" lon="2.43502">
        <ele>483.8</ele>
        <time>2014-04-06T13:05:43Z</time>
      </trkpt>
      <trkpt lat="44.40051" lon="2.43517">
        <ele>484.4</ele>
        <time>2014-04-06T13:05:48Z</time>
      </trkpt>
      <trkpt lat="44.40057" lon="2.43531">
        <ele>485</ele>
        <time>2014-04-06T13:05:53Z</time>
      </trkpt>
      <trkpt lat="44.40065" lon="2.43545">
        <ele>486.2</ele>
        <time>2014-04-06T13:05:59Z</time>
      </trkpt>
      <trkpt lat="44.40068" lon="2.43562">
        <ele>487.6</ele>
        <time>2014-04-06T13:06:05Z</time>
      </trkpt>
      <trkpt lat="44.4007" lon="2.43579">
        <ele>489</ele>
        <time>2014-04-06T13:06:11Z</time>
      </trkpt>
      <trkpt lat="44.40074" lon="2.43596">
        <ele>490.4</ele>
        <time>2014-04-06T13:06:18Z</time>
      </trkpt>
      <trkpt lat="44.40079" lon="2.43615">
        <ele>492.4</ele>
        <time>2014-04-06T13:06:26Z</time>
      </trkpt>
      <trkpt lat="44.40084" lon="2.43631">
        <ele>494.4</ele>
        <time>2014-04-06T13:06:33Z</time>
      </trkpt>
      <trkpt lat="44.4009" lon="2.43648">
        <ele>496.2</ele>
        <time>2014-04-06T13:06:40Z</time>
      </trkpt>
      <trkpt lat="44.40092" lon="2.43663">
        <ele>497.2</ele>
        <time>2014-04-06T13:06:46Z</time>
      </trkpt>
      <trkpt lat="44.40096" lon="2.43676">
        <ele>498.4</ele>
        <time>2014-04-06T13:06:51Z</time>
      </trkpt>
      <trkpt lat="44.40099" lon="2.43695">
        <ele>499.6</ele>
        <time>2014-04-06T13:06:58Z</time>
      </trkpt>
      <trkpt lat="44.40102" lon="2.43714">
        <ele>501.2</ele>
        <time>2014-04-06T13:07:05Z</time>
      </trkpt>
      <trkpt lat="44.401" lon="2.43734">
        <ele>502.6</ele>
        <time>2014-04-06T13:07:12Z</time>
      </trkpt>
      <trkpt lat="44.40097" lon="2.43756">
        <ele>503.6</ele>
        <time>2014-04-06T13:07:19Z</time>
      </trkpt>
      <trkpt lat="44.40088" lon="2.4378">
        <ele>505.2</ele>
        <time>2014-04-06T13:07:28Z</time>
      </trkpt>
      <trkpt lat="44.40081" lon="2.43791">
        <ele>505.8</ele>
        <time>2014-04-06T13:07:33Z</time>
      </trkpt>
      <trkpt lat="44.40071" lon="2.43806">
        <ele>507.4</ele>
        <time>2014-04-06T13:07:41Z</time>
      </trkpt>
      <trkpt lat="44.40065" lon="2.43823">
        <ele>508.6</ele>
        <time>2014-04-06T13:07:48Z</time>
      </trkpt>
      <trkpt lat="44.40059" lon="2.43841">
        <ele>509.8</ele>
        <time>2014-04-06T13:07:55Z</time>
      </trkpt>
      <trkpt lat="44.40052" lon="2.43859">
        <ele>511.2</ele>
        <time>2014-04-06T13:08:02Z</time>
      </trkpt>
      <trkpt lat="44.40047" lon="2.43874">
        <ele>512</ele>
        <time>2014-04-06T13:08:08Z</time>
      </trkpt>
      <trkpt lat="44.40038" lon="2.43894">
        <ele>513.4</ele>
        <time>2014-04-06T13:08:16Z</time>
      </trkpt>
      <trkpt lat="44.40031" lon="2.43907">
        <ele>514.4</ele>
        <time>2014-04-06T13:08:22Z</time>
      </trkpt>
      <trkpt lat="44.40021" lon="2.43918">
        <ele>515.6</ele>
        <time>2014-04-06T13:08:28Z</time>
      </trkpt>
      <trkpt lat="44.4001" lon="2.43925">
        <ele>517</ele>
        <time>2014-04-06T13:08:33Z</time>
      </trkpt>
      <trkpt lat="44.4" lon="2.43928">
        <ele>517.8</ele>
        <time>2014-04-06T13:08:38Z</time>
      </trkpt>
      <trkpt lat="44.39988" lon="2.43928">
        <ele>518.8</ele>
        <time>2014-04-06T13:08:44Z</time>
      </trkpt>
      <trkpt lat="44.39977" lon="2.43927">
        <ele>519.8</ele>
        <time>2014-04-06T13:08:49Z</time>
      </trkpt>
      <trkpt lat="44.39963" lon="2.43923">
        <ele>520.6</ele>
        <time>2014-04-06T13:08:56Z</time>
      </trkpt>
      <trkpt lat="44.39952" lon="2.43922">
        <ele>520.8</ele>
        <time>2014-04-06T13:09:01Z</time>
      </trkpt>
      <trkpt lat="44.39941" lon="2.43919">
        <ele>521</ele>
        <time>2014-04-06T13:09:07Z</time>
      </trkpt>
      <trkpt lat="44.39923" lon="2.43917">
        <ele>521.2</ele>
        <time>2014-04-06T13:09:15Z</time>
      </trkpt>
      <trkpt lat="44.39908" lon="2.43914">
        <ele>521.2</ele>
        <time>2014-04-06T13:09:22Z</time>
      </trkpt>
      <trkpt lat="44.39894" lon="2.43909">
        <ele>521.4</ele>
        <time>2014-04-06T13:09:29Z</time>
      </trkpt>
      <trkpt lat="44.39882" lon="2.43912">
        <ele>522</ele>
        <time>2014-04-06T13:09:35Z</time>
      </trkpt>
      <trkpt lat="44.39872" lon="2.43916">
        <ele>522.6</ele>
        <time>2014-04-06T13:09:40Z</time>
      </trkpt>
      <trkpt lat="44.39857" lon="2.43923">
        <ele>523.6</ele>
        <time>2014-04-06T13:09:47Z</time>
      </trkpt>
      <trkpt lat="44.39846" lon="2.43928">
        <ele>524.4</ele>
        <time>2014-04-06T13:09:52Z</time>
      </trkpt>
      <trkpt lat="44.39835" lon="2.43933">
        <ele>525.6</ele>
        <time>2014-04-06T13:09:58Z</time>
      </trkpt>
      <trkpt lat="44.39825" lon="2.43935">
        <ele>526.4</ele>
        <time>2014-04-06T13:10:03Z</time>
      </trkpt>
      <trkpt lat="44.39813" lon="2.43936">
        <ele>527</ele>
        <time>2014-04-06T13:10:09Z</time>
      </trkpt>
      <trkpt lat="44.39799" lon="2.43939">
        <ele>528.4</ele>
        <time>2014-04-06T13:10:16Z</time>
      </trkpt>
      <trkpt lat="44.39785" lon="2.43942">
        <ele>529.2</ele>
        <time>2014-04-06T13:10:23Z</time>
      </trkpt>
      <trkpt lat="44.39776" lon="2.43948">
        <ele>530.2</ele>
        <time>2014-04-06T13:10:28Z</time>
      </trkpt>
      <trkpt lat="44.39768" lon="2.43954">
        <ele>530.8</ele>
        <time>2014-04-06T13:10:33Z</time>
      </trkpt>
      <trkpt lat="44.3976" lon="2.43962">
        <ele>531.8</ele>
        <time>2014-04-06T13:10:38Z</time>
      </trkpt>
      <trkpt lat="44.39753" lon="2.43968">
        <ele>532.8</ele>
        <time>2014-04-06T13:10:43Z</time>
      </trkpt>
      <trkpt lat="44.39743" lon="2.43979">
        <ele>534.2</ele>
        <time>2014-04-06T13:10:49Z</time>
      </trkpt>
      <trkpt lat="44.39734" lon="2.4399">
        <ele>535.8</ele>
        <time>2014-04-06T13:10:55Z</time>
      </trkpt>
      <trkpt lat="44.39724" lon="2.44004">
        <ele>537.8</ele>
        <time>2014-04-06T13:11:02Z</time>
      </trkpt>
      <trkpt lat="44.39715" lon="2.44017">
        <ele>539.8</ele>
        <time>2014-04-06T13:11:09Z</time>
      </trkpt>
      <trkpt lat="44.39705" lon="2.44032">
        <ele>541.8</ele>
        <time>2014-04-06T13:11:17Z</time>
      </trkpt>
      <trkpt lat="44.39694" lon="2.44045">
        <ele>543.8</ele>
        <time>2014-04-06T13:11:25Z</time>
      </trkpt>
      <trkpt lat="44.39686" lon="2.44053">
        <ele>545.4</ele>
        <time>2014-04-06T13:11:31Z</time>
      </trkpt>
      <trkpt lat="44.39677" lon="2.44062">
        <ele>546.6</ele>
        <time>2014-04-06T13:11:37Z</time>
      </trkpt>
      <trkpt lat="44.39666" lon="2.44072">
        <ele>547.8</ele>
        <time>2014-04-06T13:11:44Z</time>
      </trkpt>
      <trkpt lat="44.39657" lon="2.44082">
        <ele>548.6</ele>
        <time>2014-04-06T13:11:50Z</time>
      </trkpt>
      <trkpt lat="44.39654" lon="2.44085">
        <ele>549.2</ele>
        <time>2014-04-06T13:11:52Z</time>
      </trkpt>
      <trkpt lat="44.39646" lon="2.44093">
        <ele>550</ele>
        <time>2014-04-06T13:11:57Z</time>
      </trkpt>
      <trkpt lat="44.39637" lon="2.441">
        <ele>550.4</ele>
        <time>2014-04-06T13:12:02Z</time>
      </trkpt>
      <trkpt lat="44.39625" lon="2.44112">
        <ele>551.4</ele>
        <time>2014-04-06T13:12:09Z</time>
      </trkpt>
      <trkpt lat="44.39612" lon="2.44127">
        <ele>552.4</ele>
        <time>2014-04-06T13:12:16Z</time>
      </trkpt>
      <trkpt lat="44.39603" lon="2.44138">
        <ele>553.4</ele>
        <time>2014-04-06T13:12:22Z</time>
      </trkpt>
      <trkpt lat="44.39593" lon="2.44149">
        <ele>554.4</ele>
        <time>2014-04-06T13:12:28Z</time>
      </trkpt>
      <trkpt lat="44.39583" lon="2.4416">
        <ele>555</ele>
        <time>2014-04-06T13:12:34Z</time>
      </trkpt>
      <trkpt lat="44.39572" lon="2.44172">
        <ele>556.4</ele>
        <time>2014-04-06T13:12:41Z</time>
      </trkpt>
      <trkpt lat="44.39562" lon="2.44183">
        <ele>557.2</ele>
        <time>2014-04-06T13:12:48Z</time>
      </trkpt>
      <trkpt lat="44.39553" lon="2.44193">
        <ele>558.4</ele>
        <time>2014-04-06T13:12:54Z</time>
      </trkpt>
      <trkpt lat="44.39545" lon="2.44203">
        <ele>559</ele>
        <time>2014-04-06T13:13:00Z</time>
      </trkpt>
      <trkpt lat="44.39532" lon="2.44217">
        <ele>560.4</ele>
        <time>2014-04-06T13:13:08Z</time>
      </trkpt>
      <trkpt lat="44.39521" lon="2.4423">
        <ele>561.2</ele>
        <time>2014-04-06T13:13:15Z</time>
      </trkpt>
      <trkpt lat="44.3951" lon="2.44246">
        <ele>562</ele>
        <time>2014-04-06T13:13:23Z</time>
      </trkpt>
      <trkpt lat="44.39498" lon="2.44265">
        <ele>563</ele>
        <time>2014-04-06T13:13:31Z</time>
      </trkpt>
      <trkpt lat="44.39489" lon="2.44279">
        <ele>563.8</ele>
        <time>2014-04-06T13:13:37Z</time>
      </trkpt>
      <trkpt lat="44.39481" lon="2.44294">
        <ele>564.8</ele>
        <time>2014-04-06T13:13:43Z</time>
      </trkpt>
      <trkpt lat="44.39471" lon="2.44315">
        <ele>566.2</ele>
        <time>2014-04-06T13:13:50Z</time>
      </trkpt>
      <trkpt lat="44.39468" lon="2.44326">
        <ele>567.4</ele>
        <time>2014-04-06T13:13:56Z</time>
      </trkpt>
      <trkpt lat="44.39464" lon="2.44336">
        <ele>568.6</ele>
        <time>2014-04-06T13:14:02Z</time>
      </trkpt>
      <trkpt lat="44.39463" lon="2.44345">
        <ele>569.6</ele>
        <time>2014-04-06T13:14:09Z</time>
      </trkpt>
      <trkpt lat="44.39462" lon="2.44349">
        <ele>570.4</ele>
        <time>2014-04-06T13:14:12Z</time>
      </trkpt>
      <trkpt lat="44.39455" lon="2.44357">
        <ele>571.2</ele>
        <time>2014-04-06T13:14:18Z</time>
      </trkpt>
      <trkpt lat="44.39448" lon="2.44358">
        <ele>571.6</ele>
        <time>2014-04-06T13:14:24Z</time>
      </trkpt>
      <trkpt lat="44.39436" lon="2.44357">
        <ele>572</ele>
        <time>2014-04-06T13:14:30Z</time>
      </trkpt>
      <trkpt lat="44.39421" lon="2.44351">
        <ele>572</ele>
        <time>2014-04-06T13:14:36Z</time>
      </trkpt>
      <trkpt lat="44.39416" lon="2.44348">
        <ele>572</ele>
        <time>2014-04-06T13:14:40Z</time>
      </trkpt>
      <trkpt lat="44.39416" lon="2.44348">
        <ele>572.2</ele>
        <time>2014-04-06T13:14:44Z</time>
      </trkpt>
      <trkpt lat="44.39416" lon="2.44348">
        <ele>572.2</ele>
        <time>2014-04-06T13:14:48Z</time>
      </trkpt>
      <trkpt lat="44.3941" lon="2.44344">
        <ele>572.2</ele>
        <time>2014-04-06T13:14:53Z</time>
      </trkpt>
      <trkpt lat="44.394" lon="2.44334">
        <ele>572.2</ele>
        <time>2014-04-06T13:14:58Z</time>
      </trkpt>
      <trkpt lat="44.39399" lon="2.44333">
        <ele>572.2</ele>
        <time>2014-04-06T13:15:02Z</time>
      </trkpt>
      <trkpt lat="44.39395" lon="2.44328">
        <ele>572.2</ele>
        <time>2014-04-06T13:15:05Z</time>
      </trkpt>
      <trkpt lat="44.39381" lon="2.44311">
        <ele>572.2</ele>
        <time>2014-04-06T13:15:12Z</time>
      </trkpt>
      <trkpt lat="44.39369" lon="2.44295">
        <ele>572.2</ele>
        <time>2014-04-06T13:15:18Z</time>
      </trkpt>
      <trkpt lat="44.39356" lon="2.44276">
        <ele>571.8</ele>
        <time>2014-04-06T13:15:25Z</time>
      </trkpt>
      <trkpt lat="44.39348" lon="2.44254">
        <ele>571</ele>
        <time>2014-04-06T13:15:32Z</time>
      </trkpt>
      <trkpt lat="44.39342" lon="2.44232">
        <ele>570.6</ele>
        <time>2014-04-06T13:15:38Z</time>
      </trkpt>
      <trkpt lat="44.39337" lon="2.44206">
        <ele>570.4</ele>
        <time>2014-04-06T13:15:45Z</time>
      </trkpt>
      <trkpt lat="44.39333" lon="2.44183">
        <ele>569.4</ele>
        <time>2014-04-06T13:15:51Z</time>
      </trkpt>
      <trkpt lat="44.39328" lon="2.44158">
        <ele>568.6</ele>
        <time>2014-04-06T13:15:58Z</time>
      </trkpt>
      <trkpt lat="44.39323" lon="2.44135">
        <ele>568.4</ele>
        <time>2014-04-06T13:16:04Z</time>
      </trkpt>
      <trkpt lat="44.39318" lon="2.44106">
        <ele>568.2</ele>
        <time>2014-04-06T13:16:12Z</time>
      </trkpt>
      <trkpt lat="44.39317" lon="2.44088">
        <ele>568.2</ele>
        <time>2014-04-06T13:16:17Z</time>
      </trkpt>
      <trkpt lat="44.39318" lon="2.4406">
        <ele>567.4</ele>
        <time>2014-04-06T13:16:25Z</time>
      </trkpt>
      <trkpt lat="44.39319" lon="2.44037">
        <ele>566.8</ele>
        <time>2014-04-06T13:16:31Z</time>
      </trkpt>
      <trkpt lat="44.39322" lon="2.44022">
        <ele>566</ele>
        <time>2014-04-06T13:16:35Z</time>
      </trkpt>
      <trkpt lat="44.39323" lon="2.44">
        <ele>565</ele>
        <time>2014-04-06T13:16:41Z</time>
      </trkpt>
      <trkpt lat="44.39322" lon="2.43983">
        <ele>563.6</ele>
        <time>2014-04-06T13:16:46Z</time>
      </trkpt>
      <trkpt lat="44.39318" lon="2.43967">
        <ele>561.8</ele>
        <time>2014-04-06T13:16:51Z</time>
      </trkpt>
      <trkpt lat="44.39313" lon="2.4395">
        <ele>560</ele>
        <time>2014-04-06T13:16:56Z</time>
      </trkpt>
      <trkpt lat="44.39309" lon="2.43933">
        <ele>558</ele>
        <time>2014-04-06T13:17:01Z</time>
      </trkpt>
      <trkpt lat="44.39303" lon="2.43918">
        <ele>555.6</ele>
        <time>2014-04-06T13:17:06Z</time>
      </trkpt>
      <trkpt lat="44.393" lon="2.43902">
        <ele>553.6</ele>
        <time>2014-04-06T13:17:12Z</time>
      </trkpt>
      <trkpt lat="44.39301" lon="2.43904">
        <ele>552.2</ele>
        <time>2014-04-06T13:17:16Z</time>
      </trkpt>
      <trkpt lat="44.39296" lon="2.43907">
        <ele>550.4</ele>
        <time>2014-04-06T13:17:22Z</time>
      </trkpt>
      <trkpt lat="44.39291" lon="2.43903">
        <ele>549.6</ele>
        <time>2014-04-06T13:17:27Z</time>
      </trkpt>
      <trkpt lat="44.39283" lon="2.43906">
        <ele>548.8</ele>
        <time>2014-04-06T13:17:35Z</time>
      </trkpt>
      <trkpt lat="44.39282" lon="2.43911">
        <ele>548.8</ele>
        <time>2014-04-06T13:17:39Z</time>
      </trkpt>
      <trkpt lat="44.39281" lon="2.43922">
        <ele>548.6</ele>
        <time>2014-04-06T13:17:46Z</time>
      </trkpt>
      <trkpt lat="44.3928" lon="2.43936">
        <ele>548.4</ele>
        <time>2014-04-06T13:17:51Z</time>
      </trkpt>
      <trkpt lat="44.39279" lon="2.43964">
        <ele>548.4</ele>
        <time>2014-04-06T13:17:59Z</time>
      </trkpt>
      <trkpt lat="44.39278" lon="2.43983">
        <ele>548.4</ele>
        <time>2014-04-06T13:18:05Z</time>
      </trkpt>
      <trkpt lat="44.39277" lon="2.44">
        <ele>547.8</ele>
        <time>2014-04-06T13:18:11Z</time>
      </trkpt>
      <trkpt lat="44.39276" lon="2.44012">
        <ele>547.2</ele>
        <time>2014-04-06T13:18:16Z</time>
      </trkpt>
      <trkpt lat="44.39275" lon="2.44015">
        <ele>546.8</ele>
        <time>2014-04-06T13:18:22Z</time>
      </trkpt>
      <trkpt lat="44.39276" lon="2.44016">
        <ele>546.8</ele>
        <time>2014-04-06T13:18:23Z</time>
      </trkpt>
      <trkpt lat="44.39279" lon="2.4403">
        <ele>546.6</ele>
        <time>2014-04-06T13:18:28Z</time>
      </trkpt>
      <trkpt lat="44.39279" lon="2.44037">
        <ele>546.6</ele>
        <time>2014-04-06T13:18:30Z</time>
      </trkpt>
      <trkpt lat="44.39281" lon="2.44055">
        <ele>546.4</ele>
        <time>2014-04-06T13:18:36Z</time>
      </trkpt>
      <trkpt lat="44.39282" lon="2.44058">
        <ele>546.4</ele>
        <time>2014-04-06T13:18:37Z</time>
      </trkpt>
      <trkpt lat="44.39286" lon="2.44072">
        <ele>546.4</ele>
        <time>2014-04-06T13:18:42Z</time>
      </trkpt>
      <trkpt lat="44.39287" lon="2.44089">
        <ele>546.4</ele>
        <time>2014-04-06T13:18:47Z</time>
      </trkpt>
      <trkpt lat="44.39292" lon="2.44104">
        <ele>546.4</ele>
        <time>2014-04-06T13:18:52Z</time>
      </trkpt>
      <trkpt lat="44.39293" lon="2.44114">
        <ele>546.4</ele>
        <time>2014-04-06T13:18:55Z</time>
      </trkpt>
      <trkpt lat="44.39296" lon="2.44124">
        <ele>546.4</ele>
        <time>2014-04-06T13:19:00Z</time>
      </trkpt>
      <trkpt lat="44.39296" lon="2.44126">
        <ele>546.4</ele>
        <time>2014-04-06T13:19:01Z</time>
      </trkpt>
      <trkpt lat="44.39297" lon="2.44128">
        <ele>546.4</ele>
        <time>2014-04-06T13:19:02Z</time>
      </trkpt>
      <trkpt lat="44.393" lon="2.44137">
        <ele>546.6</ele>
        <time>2014-04-06T13:19:07Z</time>
      </trkpt>
      <trkpt lat="44.39302" lon="2.44141">
        <ele>546.8</ele>
        <time>2014-04-06T13:19:09Z</time>
      </trkpt>
      <trkpt lat="44.39304" lon="2.44144">
        <ele>547.2</ele>
        <time>2014-04-06T13:19:11Z</time>
      </trkpt>
      <trkpt lat="44.39305" lon="2.44148">
        <ele>547.4</ele>
        <time>2014-04-06T13:19:13Z</time>
      </trkpt>
      <trkpt lat="44.39308" lon="2.44153">
        <ele>547.6</ele>
        <time>2014-04-06T13:19:16Z</time>
      </trkpt>
      <trkpt lat="44.3931" lon="2.44163">
        <ele>548.6</ele>
        <time>2014-04-06T13:19:21Z</time>
      </trkpt>
      <trkpt lat="44.3931" lon="2.44164">
        <ele>548.8</ele>
        <time>2014-04-06T13:19:22Z</time>
      </trkpt>
      <trkpt lat="44.39313" lon="2.44171">
        <ele>549.6</ele>
        <time>2014-04-06T13:19:27Z</time>
      </trkpt>
      <trkpt lat="44.39317" lon="2.44178">
        <ele>550.6</ele>
        <time>2014-04-06T13:19:33Z</time>
      </trkpt>
      <trkpt lat="44.39322" lon="2.44184">
        <ele>551.6</ele>
        <time>2014-04-06T13:19:40Z</time>
      </trkpt>
      <trkpt lat="44.39322" lon="2.44185">
        <ele>551.8</ele>
        <time>2014-04-06T13:19:41Z</time>
      </trkpt>
      <trkpt lat="44.39322" lon="2.44186">
        <ele>552</ele>
        <time>2014-04-06T13:19:43Z</time>
      </trkpt>
      <trkpt lat="44.39324" lon="2.44191">
        <ele>553</ele>
        <time>2014-04-06T13:19:49Z</time>
      </trkpt>
      <trkpt lat="44.39327" lon="2.44197">
        <ele>553.6</ele>
        <time>2014-04-06T13:19:54Z</time>
      </trkpt>
      <trkpt lat="44.3933" lon="2.44204">
        <ele>554.2</ele>
        <time>2014-04-06T13:20:00Z</time>
      </trkpt>
      <trkpt lat="44.39332" lon="2.44214">
        <ele>555.2</ele>
        <time>2014-04-06T13:20:07Z</time>
      </trkpt>
      <trkpt lat="44.39335" lon="2.44223">
        <ele>556</ele>
        <time>2014-04-06T13:20:13Z</time>
      </trkpt>
      <trkpt lat="44.39337" lon="2.44225">
        <ele>556</ele>
        <time>2014-04-06T13:20:14Z</time>
      </trkpt>
      <trkpt lat="44.3934" lon="2.44226">
        <ele>557.2</ele>
        <time>2014-04-06T13:20:20Z</time>
      </trkpt>
      <trkpt lat="44.39345" lon="2.44242">
        <ele>558</ele>
        <time>2014-04-06T13:20:28Z</time>
      </trkpt>
      <trkpt lat="44.39352" lon="2.44265">
        <ele>559.6</ele>
        <time>2014-04-06T13:20:36Z</time>
      </trkpt>
      <trkpt lat="44.39362" lon="2.44283">
        <ele>560.8</ele>
        <time>2014-04-06T13:20:43Z</time>
      </trkpt>
      <trkpt lat="44.39365" lon="2.44288">
        <ele>561.4</ele>
        <time>2014-04-06T13:20:46Z</time>
      </trkpt>
      <trkpt lat="44.39361" lon="2.44288">
        <ele>562</ele>
        <time>2014-04-06T13:20:50Z</time>
      </trkpt>
      <trkpt lat="44.39355" lon="2.44291">
        <ele>562.4</ele>
        <time>2014-04-06T13:20:56Z</time>
      </trkpt>
      <trkpt lat="44.39353" lon="2.44292">
        <ele>562.6</ele>
        <time>2014-04-06T13:20:58Z</time>
      </trkpt>
      <trkpt lat="44.39353" lon="2.44293">
        <ele>562.8</ele>
        <time>2014-04-06T13:21:05Z</time>
      </trkpt>
      <trkpt lat="44.39356" lon="2.4429">
        <ele>563</ele>
        <time>2014-04-06T13:21:28Z</time>
      </trkpt>
      <trkpt lat="44.39359" lon="2.44287">
        <ele>563.6</ele>
        <time>2014-04-06T13:21:33Z</time>
      </trkpt>
      <trkpt lat="44.39362" lon="2.44287">
        <ele>564.2</ele>
        <time>2014-04-06T13:21:38Z</time>
      </trkpt>
      <trkpt lat="44.39358" lon="2.44282">
        <ele>564.8</ele>
        <time>2014-04-06T13:21:48Z</time>
      </trkpt>
      <trkpt lat="44.39352" lon="2.4427">
        <ele>565</ele>
        <time>2014-04-06T13:21:53Z</time>
      </trkpt>
      <trkpt lat="44.39345" lon="2.44253">
        <ele>565</ele>
        <time>2014-04-06T13:22:00Z</time>
      </trkpt>
      <trkpt lat="44.39342" lon="2.44243">
        <ele>565</ele>
        <time>2014-04-06T13:22:12Z</time>
      </trkpt>
      <trkpt lat="44.39339" lon="2.44233">
        <ele>565</ele>
        <time>2014-04-06T13:22:15Z</time>
      </trkpt>
      <trkpt lat="44.39336" lon="2.44228">
        <ele>565</ele>
        <time>2014-04-06T13:22:18Z</time>
      </trkpt>
      <trkpt lat="44.3933" lon="2.44208">
        <ele>565.2</ele>
        <time>2014-04-06T13:22:25Z</time>
      </trkpt>
      <trkpt lat="44.39326" lon="2.44193">
        <ele>565.2</ele>
        <time>2014-04-06T13:22:31Z</time>
      </trkpt>
      <trkpt lat="44.39326" lon="2.44192">
        <ele>565.2</ele>
        <time>2014-04-06T13:22:32Z</time>
      </trkpt>
      <trkpt lat="44.39322" lon="2.44185">
        <ele>565.2</ele>
        <time>2014-04-06T13:22:38Z</time>
      </trkpt>
      <trkpt lat="44.39318" lon="2.44182">
        <ele>565.2</ele>
        <time>2014-04-06T13:22:41Z</time>
      </trkpt>
      <trkpt lat="44.39318" lon="2.44179">
        <ele>565.2</ele>
        <time>2014-04-06T13:22:43Z</time>
      </trkpt>
      <trkpt lat="44.39313" lon="2.44169">
        <ele>564.2</ele>
        <time>2014-04-06T13:22:50Z</time>
      </trkpt>
      <trkpt lat="44.39312" lon="2.44167">
        <ele>564.2</ele>
        <time>2014-04-06T13:22:51Z</time>
      </trkpt>
      <trkpt lat="44.39311" lon="2.44162">
        <ele>563.6</ele>
        <time>2014-04-06T13:22:53Z</time>
      </trkpt>
      <trkpt lat="44.39306" lon="2.4415">
        <ele>562</ele>
        <time>2014-04-06T13:22:59Z</time>
      </trkpt>
      <trkpt lat="44.39304" lon="2.44146">
        <ele>561.4</ele>
        <time>2014-04-06T13:23:01Z</time>
      </trkpt>
      <trkpt lat="44.39302" lon="2.44141">
        <ele>561</ele>
        <time>2014-04-06T13:23:03Z</time>
      </trkpt>
      <trkpt lat="44.393" lon="2.44138">
        <ele>560.4</ele>
        <time>2014-04-06T13:23:05Z</time>
      </trkpt>
      <trkpt lat="44.39294" lon="2.44128">
        <ele>558.8</ele>
        <time>2014-04-06T13:23:10Z</time>
      </trkpt>
      <trkpt lat="44.39291" lon="2.44114">
        <ele>557.4</ele>
        <time>2014-04-06T13:23:15Z</time>
      </trkpt>
      <trkpt lat="44.39285" lon="2.44094">
        <ele>556.2</ele>
        <time>2014-04-06T13:23:21Z</time>
      </trkpt>
      <trkpt lat="44.39282" lon="2.44076">
        <ele>555.4</ele>
        <time>2014-04-06T13:23:26Z</time>
      </trkpt>
      <trkpt lat="44.39278" lon="2.4406">
        <ele>554.4</ele>
        <time>2014-04-06T13:23:31Z</time>
      </trkpt>
      <trkpt lat="44.39275" lon="2.44042">
        <ele>553.8</ele>
        <time>2014-04-06T13:23:36Z</time>
      </trkpt>
      <trkpt lat="44.39273" lon="2.44024">
        <ele>553.4</ele>
        <time>2014-04-06T13:23:41Z</time>
      </trkpt>
      <trkpt lat="44.39269" lon="2.44013">
        <ele>552.6</ele>
        <time>2014-04-06T13:23:45Z</time>
      </trkpt>
      <trkpt lat="44.39267" lon="2.44">
        <ele>551.6</ele>
        <time>2014-04-06T13:23:51Z</time>
      </trkpt>
      <trkpt lat="44.39263" lon="2.43989">
        <ele>550.4</ele>
        <time>2014-04-06T13:23:56Z</time>
      </trkpt>
      <trkpt lat="44.39264" lon="2.43986">
        <ele>550</ele>
        <time>2014-04-06T13:23:58Z</time>
      </trkpt>
      <trkpt lat="44.39262" lon="2.43977">
        <ele>548.6</ele>
        <time>2014-04-06T13:24:03Z</time>
      </trkpt>
      <trkpt lat="44.39257" lon="2.43973">
        <ele>547</ele>
        <time>2014-04-06T13:24:08Z</time>
      </trkpt>
      <trkpt lat="44.39253" lon="2.43959">
        <ele>545</ele>
        <time>2014-04-06T13:24:16Z</time>
      </trkpt>
      <trkpt lat="44.39253" lon="2.43958">
        <ele>544.8</ele>
        <time>2014-04-06T13:24:17Z</time>
      </trkpt>
      <trkpt lat="44.3925" lon="2.43949">
        <ele>543.2</ele>
        <time>2014-04-06T13:24:22Z</time>
      </trkpt>
      <trkpt lat="44.39246" lon="2.43939">
        <ele>541.2</ele>
        <time>2014-04-06T13:24:28Z</time>
      </trkpt>
      <trkpt lat="44.39241" lon="2.43933">
        <ele>539.2</ele>
        <time>2014-04-06T13:24:34Z</time>
      </trkpt>
      <trkpt lat="44.39238" lon="2.43924">
        <ele>538</ele>
        <time>2014-04-06T13:24:38Z</time>
      </trkpt>
      <trkpt lat="44.39232" lon="2.43912">
        <ele>535.8</ele>
        <time>2014-04-06T13:24:44Z</time>
      </trkpt>
      <trkpt lat="44.39227" lon="2.43904">
        <ele>535</ele>
        <time>2014-04-06T13:24:47Z</time>
      </trkpt>
      <trkpt lat="44.39219" lon="2.43882">
        <ele>533</ele>
        <time>2014-04-06T13:24:54Z</time>
      </trkpt>
      <trkpt lat="44.39215" lon="2.43864">
        <ele>531.4</ele>
        <time>2014-04-06T13:24:59Z</time>
      </trkpt>
      <trkpt lat="44.39206" lon="2.43853">
        <ele>529.6</ele>
        <time>2014-04-06T13:25:06Z</time>
      </trkpt>
      <trkpt lat="44.39203" lon="2.43848">
        <ele>528.6</ele>
        <time>2014-04-06T13:25:10Z</time>
      </trkpt>
      <trkpt lat="44.39198" lon="2.43845">
        <ele>527.4</ele>
        <time>2014-04-06T13:25:14Z</time>
      </trkpt>
      <trkpt lat="44.39195" lon="2.43842">
        <ele>526.8</ele>
        <time>2014-04-06T13:25:16Z</time>
      </trkpt>
      <trkpt lat="44.39192" lon="2.43833">
        <ele>525.4</ele>
        <time>2014-04-06T13:25:20Z</time>
      </trkpt>
      <trkpt lat="44.39188" lon="2.43827">
        <ele>524</ele>
        <time>2014-04-06T13:25:24Z</time>
      </trkpt>
      <trkpt lat="44.39184" lon="2.4382">
        <ele>522.4</ele>
        <time>2014-04-06T13:25:29Z</time>
      </trkpt>
      <trkpt lat="44.39183" lon="2.43815">
        <ele>520.2</ele>
        <time>2014-04-06T13:25:35Z</time>
      </trkpt>
      <trkpt lat="44.39182" lon="2.43813">
        <ele>520</ele>
        <time>2014-04-06T13:25:36Z</time>
      </trkpt>
      <trkpt lat="44.39182" lon="2.438">
        <ele>518.4</ele>
        <time>2014-04-06T13:25:41Z</time>
      </trkpt>
      <trkpt lat="44.39183" lon="2.43798">
        <ele>518.2</ele>
        <time>2014-04-06T13:25:42Z</time>
      </trkpt>
      <trkpt lat="44.39185" lon="2.43792">
        <ele>517</ele>
        <time>2014-04-06T13:25:45Z</time>
      </trkpt>
      <trkpt lat="44.39186" lon="2.43786">
        <ele>516</ele>
        <time>2014-04-06T13:25:48Z</time>
      </trkpt>
      <trkpt lat="44.39183" lon="2.43783">
        <ele>514.4</ele>
        <time>2014-04-06T13:25:52Z</time>
      </trkpt>
      <trkpt lat="44.39173" lon="2.43787">
        <ele>512.4</ele>
        <time>2014-04-06T13:25:58Z</time>
      </trkpt>
      <trkpt lat="44.39163" lon="2.4379">
        <ele>510.8</ele>
        <time>2014-04-06T13:26:03Z</time>
      </trkpt>
      <trkpt lat="44.39149" lon="2.43794">
        <ele>508.8</ele>
        <time>2014-04-06T13:26:09Z</time>
      </trkpt>
      <trkpt lat="44.39133" lon="2.43798">
        <ele>506.6</ele>
        <time>2014-04-06T13:26:16Z</time>
      </trkpt>
      <trkpt lat="44.39132" lon="2.438">
        <ele>506.4</ele>
        <time>2014-04-06T13:26:17Z</time>
      </trkpt>
      <trkpt lat="44.39131" lon="2.43814">
        <ele>504.6</ele>
        <time>2014-04-06T13:26:22Z</time>
      </trkpt>
      <trkpt lat="44.39134" lon="2.43819">
        <ele>504.2</ele>
        <time>2014-04-06T13:26:24Z</time>
      </trkpt>
      <trkpt lat="44.39131" lon="2.43829">
        <ele>502.8</ele>
        <time>2014-04-06T13:26:28Z</time>
      </trkpt>
      <trkpt lat="44.39124" lon="2.43825">
        <ele>501.8</ele>
        <time>2014-04-06T13:26:31Z</time>
      </trkpt>
      <trkpt lat="44.39108" lon="2.43816">
        <ele>499.4</ele>
        <time>2014-04-06T13:26:38Z</time>
      </trkpt>
      <trkpt lat="44.39102" lon="2.43821">
        <ele>498.2</ele>
        <time>2014-04-06T13:26:42Z</time>
      </trkpt>
      <trkpt lat="44.39101" lon="2.43823">
        <ele>498</ele>
        <time>2014-04-06T13:26:43Z</time>
      </trkpt>
      <trkpt lat="44.39102" lon="2.43828">
        <ele>497.2</ele>
        <time>2014-04-06T13:26:46Z</time>
      </trkpt>
      <trkpt lat="44.39096" lon="2.43818">
        <ele>495.6</ele>
        <time>2014-04-06T13:26:52Z</time>
      </trkpt>
      <trkpt lat="44.39089" lon="2.43809">
        <ele>494.6</ele>
        <time>2014-04-06T13:26:56Z</time>
      </trkpt>
      <trkpt lat="44.39087" lon="2.43807">
        <ele>494.4</ele>
        <time>2014-04-06T13:26:57Z</time>
      </trkpt>
      <trkpt lat="44.39084" lon="2.43803">
        <ele>493.8</ele>
        <time>2014-04-06T13:26:59Z</time>
      </trkpt>
      <trkpt lat="44.39082" lon="2.43801">
        <ele>492.4</ele>
        <time>2014-04-06T13:27:08Z</time>
      </trkpt>
      <trkpt lat="44.39077" lon="2.43797">
        <ele>491.4</ele>
        <time>2014-04-06T13:27:12Z</time>
      </trkpt>
      <trkpt lat="44.39072" lon="2.43788">
        <ele>490.2</ele>
        <time>2014-04-06T13:27:17Z</time>
      </trkpt>
      <trkpt lat="44.39071" lon="2.43776">
        <ele>488.6</ele>
        <time>2014-04-06T13:27:22Z</time>
      </trkpt>
      <trkpt lat="44.39073" lon="2.43766">
        <ele>487.2</ele>
        <time>2014-04-06T13:27:26Z</time>
      </trkpt>
      <trkpt lat="44.39076" lon="2.43762">
        <ele>486.4</ele>
        <time>2014-04-06T13:27:28Z</time>
      </trkpt>
      <trkpt lat="44.39076" lon="2.43754">
        <ele>484.6</ele>
        <time>2014-04-06T13:27:32Z</time>
      </trkpt>
      <trkpt lat="44.39069" lon="2.43751">
        <ele>482.6</ele>
        <time>2014-04-06T13:27:36Z</time>
      </trkpt>
      <trkpt lat="44.39061" lon="2.43744">
        <ele>480.8</ele>
        <time>2014-04-06T13:27:40Z</time>
      </trkpt>
      <trkpt lat="44.39055" lon="2.43735">
        <ele>479</ele>
        <time>2014-04-06T13:27:45Z</time>
      </trkpt>
      <trkpt lat="44.39054" lon="2.43735">
        <ele>478.6</ele>
        <time>2014-04-06T13:27:46Z</time>
      </trkpt>
      <trkpt lat="44.39054" lon="2.43734">
        <ele>478</ele>
        <time>2014-04-06T13:27:47Z</time>
      </trkpt>
      <trkpt lat="44.3905" lon="2.43722">
        <ele>476.6</ele>
        <time>2014-04-06T13:27:52Z</time>
      </trkpt>
      <trkpt lat="44.39049" lon="2.43719">
        <ele>476.2</ele>
        <time>2014-04-06T13:27:53Z</time>
      </trkpt>
      <trkpt lat="44.39049" lon="2.43718">
        <ele>476</ele>
        <time>2014-04-06T13:27:54Z</time>
      </trkpt>
      <trkpt lat="44.39044" lon="2.43709">
        <ele>474.2</ele>
        <time>2014-04-06T13:28:00Z</time>
      </trkpt>
      <trkpt lat="44.39039" lon="2.43695">
        <ele>472.8</ele>
        <time>2014-04-06T13:28:05Z</time>
      </trkpt>
      <trkpt lat="44.39035" lon="2.43691">
        <ele>472.2</ele>
        <time>2014-04-06T13:28:07Z</time>
      </trkpt>
      <trkpt lat="44.39033" lon="2.43689">
        <ele>471.8</ele>
        <time>2014-04-06T13:28:08Z</time>
      </trkpt>
      <trkpt lat="44.39022" lon="2.43682">
        <ele>471</ele>
        <time>2014-04-06T13:28:14Z</time>
      </trkpt>
      <trkpt lat="44.39019" lon="2.43681">
        <ele>471</ele>
        <time>2014-04-06T13:28:15Z</time>
      </trkpt>
      <trkpt lat="44.39011" lon="2.43678">
        <ele>470.6</ele>
        <time>2014-04-06T13:28:21Z</time>
      </trkpt>
      <trkpt lat="44.39006" lon="2.43676">
        <ele>470.4</ele>
        <time>2014-04-06T13:28:26Z</time>
      </trkpt>
      <trkpt lat="44.39004" lon="2.43674">
        <ele>470</ele>
        <time>2014-04-06T13:28:27Z</time>
      </trkpt>
      <trkpt lat="44.39002" lon="2.43674">
        <ele>469.8</ele>
        <time>2014-04-06T13:28:28Z</time>
      </trkpt>
      <trkpt lat="44.38988" lon="2.43678">
        <ele>469</ele>
        <time>2014-04-06T13:28:34Z</time>
      </trkpt>
      <trkpt lat="44.38981" lon="2.43691">
        <ele>468.6</ele>
        <time>2014-04-06T13:28:39Z</time>
      </trkpt>
      <trkpt lat="44.3898" lon="2.43694">
        <ele>468.2</ele>
        <time>2014-04-06T13:28:40Z</time>
      </trkpt>
      <trkpt lat="44.38974" lon="2.43694">
        <ele>467.4</ele>
        <time>2014-04-06T13:28:44Z</time>
      </trkpt>
      <trkpt lat="44.38973" lon="2.43687">
        <ele>467.2</ele>
        <time>2014-04-06T13:28:46Z</time>
      </trkpt>
      <trkpt lat="44.38972" lon="2.43673">
        <ele>466</ele>
        <time>2014-04-06T13:28:51Z</time>
      </trkpt>
      <trkpt lat="44.38974" lon="2.43658">
        <ele>465</ele>
        <time>2014-04-06T13:28:55Z</time>
      </trkpt>
      <trkpt lat="44.38975" lon="2.43655">
        <ele>464.6</ele>
        <time>2014-04-06T13:28:56Z</time>
      </trkpt>
      <trkpt lat="44.38979" lon="2.43642">
        <ele>463.6</ele>
        <time>2014-04-06T13:29:00Z</time>
      </trkpt>
      <trkpt lat="44.38984" lon="2.43626">
        <ele>462.4</ele>
        <time>2014-04-06T13:29:05Z</time>
      </trkpt>
      <trkpt lat="44.38989" lon="2.4362">
        <ele>461.6</ele>
        <time>2014-04-06T13:29:08Z</time>
      </trkpt>
      <trkpt lat="44.38991" lon="2.43616">
        <ele>461</ele>
        <time>2014-04-06T13:29:10Z</time>
      </trkpt>
      <trkpt lat="44.38996" lon="2.43613">
        <ele>460</ele>
        <time>2014-04-06T13:29:13Z</time>
      </trkpt>
      <trkpt lat="44.38998" lon="2.43601">
        <ele>458.6</ele>
        <time>2014-04-06T13:29:18Z</time>
      </trkpt>
      <trkpt lat="44.38994" lon="2.43588">
        <ele>456.6</ele>
        <time>2014-04-06T13:29:24Z</time>
      </trkpt>
      <trkpt lat="44.38992" lon="2.43581">
        <ele>455.6</ele>
        <time>2014-04-06T13:29:27Z</time>
      </trkpt>
      <trkpt lat="44.38991" lon="2.43573">
        <ele>454</ele>
        <time>2014-04-06T13:29:31Z</time>
      </trkpt>
      <trkpt lat="44.38991" lon="2.4357">
        <ele>452.8</ele>
        <time>2014-04-06T13:29:34Z</time>
      </trkpt>
      <trkpt lat="44.38996" lon="2.43566">
        <ele>450.8</ele>
        <time>2014-04-06T13:29:39Z</time>
      </trkpt>
      <trkpt lat="44.38999" lon="2.43559">
        <ele>448.8</ele>
        <time>2014-04-06T13:29:44Z</time>
      </trkpt>
      <trkpt lat="44.38999" lon="2.43555">
        <ele>447.6</ele>
        <time>2014-04-06T13:29:47Z</time>
      </trkpt>
      <trkpt lat="44.38999" lon="2.43553">
        <ele>447.2</ele>
        <time>2014-04-06T13:29:48Z</time>
      </trkpt>
      <trkpt lat="44.38999" lon="2.43549">
        <ele>446.6</ele>
        <time>2014-04-06T13:29:50Z</time>
      </trkpt>
      <trkpt lat="44.39" lon="2.43539">
        <ele>444.8</ele>
        <time>2014-04-06T13:29:56Z</time>
      </trkpt>
      <trkpt lat="44.38995" lon="2.43529">
        <ele>443.6</ele>
        <time>2014-04-06T13:30:01Z</time>
      </trkpt>
      <trkpt lat="44.38989" lon="2.43515">
        <ele>442.8</ele>
        <time>2014-04-06T13:30:06Z</time>
      </trkpt>
      <trkpt lat="44.38988" lon="2.43512">
        <ele>442.6</ele>
        <time>2014-04-06T13:30:07Z</time>
      </trkpt>
      <trkpt lat="44.38986" lon="2.43507">
        <ele>442</ele>
        <time>2014-04-06T13:30:09Z</time>
      </trkpt>
      <trkpt lat="44.38988" lon="2.43497">
        <ele>441.2</ele>
        <time>2014-04-06T13:30:13Z</time>
      </trkpt>
      <trkpt lat="44.38986" lon="2.43487">
        <ele>440</ele>
        <time>2014-04-06T13:30:19Z</time>
      </trkpt>
      <trkpt lat="44.38985" lon="2.43475">
        <ele>439.2</ele>
        <time>2014-04-06T13:30:23Z</time>
      </trkpt>
      <trkpt lat="44.38984" lon="2.43472">
        <ele>439</ele>
        <time>2014-04-06T13:30:24Z</time>
      </trkpt>
      <trkpt lat="44.38983" lon="2.43462">
        <ele>438.6</ele>
        <time>2014-04-06T13:30:27Z</time>
      </trkpt>
      <trkpt lat="44.38982" lon="2.43451">
        <ele>437.4</ele>
        <time>2014-04-06T13:30:33Z</time>
      </trkpt>
      <trkpt lat="44.38982" lon="2.43451">
        <ele>437.2</ele>
        <time>2014-04-06T13:30:34Z</time>
      </trkpt>
      <trkpt lat="44.38983" lon="2.43445">
        <ele>436.6</ele>
        <time>2014-04-06T13:30:39Z</time>
      </trkpt>
      <trkpt lat="44.38986" lon="2.4344">
        <ele>436</ele>
        <time>2014-04-06T13:30:46Z</time>
      </trkpt>
      <trkpt lat="44.38986" lon="2.43426">
        <ele>435.4</ele>
        <time>2014-04-06T13:30:51Z</time>
      </trkpt>
      <trkpt lat="44.38987" lon="2.43423">
        <ele>434.4</ele>
        <time>2014-04-06T13:30:59Z</time>
      </trkpt>
      <trkpt lat="44.38989" lon="2.4341">
        <ele>434</ele>
        <time>2014-04-06T13:31:04Z</time>
      </trkpt>
      <trkpt lat="44.38991" lon="2.434">
        <ele>433.2</ele>
        <time>2014-04-06T13:31:08Z</time>
      </trkpt>
      <trkpt lat="44.38992" lon="2.43399">
        <ele>433</ele>
        <time>2014-04-06T13:31:10Z</time>
      </trkpt>
      <trkpt lat="44.38994" lon="2.43398">
        <ele>432.6</ele>
        <time>2014-04-06T13:31:12Z</time>
      </trkpt>
      <trkpt lat="44.38993" lon="2.4339">
        <ele>431.8</ele>
        <time>2014-04-06T13:31:16Z</time>
      </trkpt>
      <trkpt lat="44.38987" lon="2.43387">
        <ele>430.2</ele>
        <time>2014-04-06T13:31:22Z</time>
      </trkpt>
      <trkpt lat="44.38987" lon="2.43388">
        <ele>428.8</ele>
        <time>2014-04-06T13:31:28Z</time>
      </trkpt>
      <trkpt lat="44.38987" lon="2.43388">
        <ele>427.6</ele>
        <time>2014-04-06T13:31:32Z</time>
      </trkpt>
      <trkpt lat="44.38987" lon="2.43388">
        <ele>426.6</ele>
        <time>2014-04-06T13:31:37Z</time>
      </trkpt>
      <trkpt lat="44.38987" lon="2.43388">
        <ele>424.2</ele>
        <time>2014-04-06T13:31:53Z</time>
      </trkpt>
      <trkpt lat="44.38987" lon="2.43387">
        <ele>423.6</ele>
        <time>2014-04-06T13:31:59Z</time>
      </trkpt>
      <trkpt lat="44.38986" lon="2.43388">
        <ele>423.4</ele>
        <time>2014-04-06T13:32:06Z</time>
      </trkpt>
      <trkpt lat="44.38983" lon="2.43392">
        <ele>423.2</ele>
        <time>2014-04-06T13:32:10Z</time>
      </trkpt>
      <trkpt lat="44.38981" lon="2.43393">
        <ele>423.2</ele>
        <time>2014-04-06T13:32:11Z</time>
      </trkpt>
      <trkpt lat="44.38978" lon="2.43396">
        <ele>423.2</ele>
        <time>2014-04-06T13:32:15Z</time>
      </trkpt>
      <trkpt lat="44.38976" lon="2.43397">
        <ele>423</ele>
        <time>2014-04-06T13:32:18Z</time>
      </trkpt>
      <trkpt lat="44.38973" lon="2.43401">
        <ele>423</ele>
        <time>2014-04-06T13:32:24Z</time>
      </trkpt>
      <trkpt lat="44.38969" lon="2.43404">
        <ele>423</ele>
        <time>2014-04-06T13:32:31Z</time>
      </trkpt>
      <trkpt lat="44.38967" lon="2.43404">
        <ele>423</ele>
        <time>2014-04-06T13:32:32Z</time>
      </trkpt>
      <trkpt lat="44.38962" lon="2.43409">
        <ele>423</ele>
        <time>2014-04-06T13:32:39Z</time>
      </trkpt>
      <trkpt lat="44.38962" lon="2.4341">
        <ele>423</ele>
        <time>2014-04-06T13:32:40Z</time>
      </trkpt>
      <trkpt lat="44.38955" lon="2.43417">
        <ele>423</ele>
        <time>2014-04-06T13:32:47Z</time>
      </trkpt>
      <trkpt lat="44.38954" lon="2.43418">
        <ele>423</ele>
        <time>2014-04-06T13:32:48Z</time>
      </trkpt>
      <trkpt lat="44.38953" lon="2.43419">
        <ele>423</ele>
        <time>2014-04-06T13:32:50Z</time>
      </trkpt>
      <trkpt lat="44.3895" lon="2.43422">
        <ele>423</ele>
        <time>2014-04-06T13:32:55Z</time>
      </trkpt>
      <trkpt lat="44.38946" lon="2.43425">
        <ele>423</ele>
        <time>2014-04-06T13:32:57Z</time>
      </trkpt>
      <trkpt lat="44.38939" lon="2.43428">
        <ele>423</ele>
        <time>2014-04-06T13:33:00Z</time>
      </trkpt>
      <trkpt lat="44.38931" lon="2.43444">
        <ele>423</ele>
        <time>2014-04-06T13:33:06Z</time>
      </trkpt>
      <trkpt lat="44.38925" lon="2.43455">
        <ele>423</ele>
        <time>2014-04-06T13:33:10Z</time>
      </trkpt>
      <trkpt lat="44.38916" lon="2.43468">
        <ele>423</ele>
        <time>2014-04-06T13:33:16Z</time>
      </trkpt>
      <trkpt lat="44.3891" lon="2.4348">
        <ele>423</ele>
        <time>2014-04-06T13:33:20Z</time>
      </trkpt>
      <trkpt lat="44.38903" lon="2.43498">
        <ele>422.2</ele>
        <time>2014-04-06T13:33:25Z</time>
      </trkpt>
      <trkpt lat="44.38895" lon="2.43516">
        <ele>421.2</ele>
        <time>2014-04-06T13:33:30Z</time>
      </trkpt>
      <trkpt lat="44.38885" lon="2.43539">
        <ele>419.8</ele>
        <time>2014-04-06T13:33:37Z</time>
      </trkpt>
      <trkpt lat="44.38877" lon="2.43559">
        <ele>418.2</ele>
        <time>2014-04-06T13:33:43Z</time>
      </trkpt>
      <trkpt lat="44.38872" lon="2.43578">
        <ele>417.4</ele>
        <time>2014-04-06T13:33:49Z</time>
      </trkpt>
      <trkpt lat="44.38867" lon="2.43603">
        <ele>416.2</ele>
        <time>2014-04-06T13:33:56Z</time>
      </trkpt>
      <trkpt lat="44.38863" lon="2.43625">
        <ele>415.4</ele>
        <time>2014-04-06T13:34:02Z</time>
      </trkpt>
      <trkpt lat="44.38859" lon="2.43646">
        <ele>414.8</ele>
        <time>2014-04-06T13:34:08Z</time>
      </trkpt>
      <trkpt lat="44.38856" lon="2.43663">
        <ele>414.6</ele>
        <time>2014-04-06T13:34:13Z</time>
      </trkpt>
      <trkpt lat="44.38851" lon="2.43682">
        <ele>414.6</ele>
        <time>2014-04-06T13:34:19Z</time>
      </trkpt>
      <trkpt lat="44.38849" lon="2.43695">
        <ele>414.4</ele>
        <time>2014-04-06T13:34:23Z</time>
      </trkpt>
      <trkpt lat="44.38847" lon="2.43712">
        <ele>414.4</ele>
        <time>2014-04-06T13:34:28Z</time>
      </trkpt>
      <trkpt lat="44.3885" lon="2.4373">
        <ele>414.4</ele>
        <time>2014-04-06T13:34:33Z</time>
      </trkpt>
      <trkpt lat="44.38853" lon="2.43744">
        <ele>414.4</ele>
        <time>2014-04-06T13:34:37Z</time>
      </trkpt>
      <trkpt lat="44.38853" lon="2.43747">
        <ele>414.4</ele>
        <time>2014-04-06T13:34:38Z</time>
      </trkpt>
      <trkpt lat="44.38856" lon="2.43769">
        <ele>414.4</ele>
        <time>2014-04-06T13:34:44Z</time>
      </trkpt>
      <trkpt lat="44.38859" lon="2.43785">
        <ele>414.4</ele>
        <time>2014-04-06T13:34:48Z</time>
      </trkpt>
      <trkpt lat="44.38861" lon="2.43801">
        <ele>414.4</ele>
        <time>2014-04-06T13:34:53Z</time>
      </trkpt>
      <trkpt lat="44.38866" lon="2.43818">
        <ele>414.4</ele>
        <time>2014-04-06T13:34:58Z</time>
      </trkpt>
      <trkpt lat="44.38867" lon="2.43821">
        <ele>414.4</ele>
        <time>2014-04-06T13:34:59Z</time>
      </trkpt>
      <trkpt lat="44.38874" lon="2.43836">
        <ele>414.4</ele>
        <time>2014-04-06T13:35:04Z</time>
      </trkpt>
      <trkpt lat="44.38884" lon="2.43848">
        <ele>414.4</ele>
        <time>2014-04-06T13:35:09Z</time>
      </trkpt>
      <trkpt lat="44.38895" lon="2.43873">
        <ele>414.6</ele>
        <time>2014-04-06T13:35:17Z</time>
      </trkpt>
      <trkpt lat="44.38905" lon="2.43892">
        <ele>415.4</ele>
        <time>2014-04-06T13:35:23Z</time>
      </trkpt>
      <trkpt lat="44.38913" lon="2.43906">
        <ele>415.8</ele>
        <time>2014-04-06T13:35:28Z</time>
      </trkpt>
      <trkpt lat="44.38926" lon="2.43929">
        <ele>417.2</ele>
        <time>2014-04-06T13:35:35Z</time>
      </trkpt>
      <trkpt lat="44.38929" lon="2.43935">
        <ele>417.4</ele>
        <time>2014-04-06T13:35:37Z</time>
      </trkpt>
      <trkpt lat="44.38937" lon="2.43953">
        <ele>418</ele>
        <time>2014-04-06T13:35:43Z</time>
      </trkpt>
      <trkpt lat="44.38941" lon="2.43972">
        <ele>418.2</ele>
        <time>2014-04-06T13:35:48Z</time>
      </trkpt>
      <trkpt lat="44.38944" lon="2.43998">
        <ele>418.4</ele>
        <time>2014-04-06T13:35:55Z</time>
      </trkpt>
      <trkpt lat="44.38949" lon="2.44015">
        <ele>418.4</ele>
        <time>2014-04-06T13:36:00Z</time>
      </trkpt>
      <trkpt lat="44.38954" lon="2.44037">
        <ele>418.4</ele>
        <time>2014-04-06T13:36:06Z</time>
      </trkpt>
      <trkpt lat="44.38957" lon="2.4406">
        <ele>418.4</ele>
        <time>2014-04-06T13:36:12Z</time>
      </trkpt>
      <trkpt lat="44.38957" lon="2.44079">
        <ele>418.6</ele>
        <time>2014-04-06T13:36:17Z</time>
      </trkpt>
      <trkpt lat="44.38957" lon="2.44084">
        <ele>418.6</ele>
        <time>2014-04-06T13:36:18Z</time>
      </trkpt>
      <trkpt lat="44.38959" lon="2.44102">
        <ele>418.6</ele>
        <time>2014-04-06T13:36:23Z</time>
      </trkpt>
      <trkpt lat="44.38962" lon="2.44113">
        <ele>418.6</ele>
        <time>2014-04-06T13:36:26Z</time>
      </trkpt>
      <trkpt lat="44.38972" lon="2.44134">
        <ele>417.6</ele>
        <time>2014-04-06T13:36:32Z</time>
      </trkpt>
      <trkpt lat="44.3898" lon="2.44148">
        <ele>417.2</ele>
        <time>2014-04-06T13:36:37Z</time>
      </trkpt>
      <trkpt lat="44.38989" lon="2.44163">
        <ele>416.8</ele>
        <time>2014-04-06T13:36:42Z</time>
      </trkpt>
      <trkpt lat="44.38996" lon="2.44174">
        <ele>416.8</ele>
        <time>2014-04-06T13:36:46Z</time>
      </trkpt>
      <trkpt lat="44.39001" lon="2.44182">
        <ele>416.6</ele>
        <time>2014-04-06T13:36:49Z</time>
      </trkpt>
      <trkpt lat="44.39007" lon="2.44192">
        <ele>416.6</ele>
        <time>2014-04-06T13:36:53Z</time>
      </trkpt>
      <trkpt lat="44.39016" lon="2.44205">
        <ele>416.6</ele>
        <time>2014-04-06T13:36:58Z</time>
      </trkpt>
      <trkpt lat="44.39023" lon="2.44225">
        <ele>416.6</ele>
        <time>2014-04-06T13:37:04Z</time>
      </trkpt>
      <trkpt lat="44.39025" lon="2.44244">
        <ele>416.6</ele>
        <time>2014-04-06T13:37:09Z</time>
      </trkpt>
      <trkpt lat="44.39026" lon="2.44265">
        <ele>416.6</ele>
        <time>2014-04-06T13:37:14Z</time>
      </trkpt>
      <trkpt lat="44.39032" lon="2.44287">
        <ele>417.2</ele>
        <time>2014-04-06T13:37:20Z</time>
      </trkpt>
      <trkpt lat="44.39038" lon="2.44304">
        <ele>417.8</ele>
        <time>2014-04-06T13:37:25Z</time>
      </trkpt>
      <trkpt lat="44.39045" lon="2.44319">
        <ele>418</ele>
        <time>2014-04-06T13:37:30Z</time>
      </trkpt>
      <trkpt lat="44.3905" lon="2.44336">
        <ele>418.2</ele>
        <time>2014-04-06T13:37:35Z</time>
      </trkpt>
      <trkpt lat="44.39055" lon="2.44348">
        <ele>418.6</ele>
        <time>2014-04-06T13:37:39Z</time>
      </trkpt>
      <trkpt lat="44.39061" lon="2.44361">
        <ele>419.4</ele>
        <time>2014-04-06T13:37:44Z</time>
      </trkpt>
      <trkpt lat="44.39066" lon="2.44372">
        <ele>419.8</ele>
        <time>2014-04-06T13:37:48Z</time>
      </trkpt>
      <trkpt lat="44.39073" lon="2.44383">
        <ele>420.4</ele>
        <time>2014-04-06T13:37:53Z</time>
      </trkpt>
      <trkpt lat="44.39084" lon="2.444">
        <ele>421.6</ele>
        <time>2014-04-06T13:38:01Z</time>
      </trkpt>
      <trkpt lat="44.39091" lon="2.44411">
        <ele>422.4</ele>
        <time>2014-04-06T13:38:06Z</time>
      </trkpt>
      <trkpt lat="44.39093" lon="2.44415">
        <ele>423.2</ele>
        <time>2014-04-06T13:38:09Z</time>
      </trkpt>
      <trkpt lat="44.39096" lon="2.44421">
        <ele>423.8</ele>
        <time>2014-04-06T13:38:14Z</time>
      </trkpt>
      <trkpt lat="44.39102" lon="2.44432">
        <ele>424.4</ele>
        <time>2014-04-06T13:38:21Z</time>
      </trkpt>
      <trkpt lat="44.39106" lon="2.44445">
        <ele>425.2</ele>
        <time>2014-04-06T13:38:27Z</time>
      </trkpt>
      <trkpt lat="44.3911" lon="2.44458">
        <ele>425.8</ele>
        <time>2014-04-06T13:38:32Z</time>
      </trkpt>
      <trkpt lat="44.39116" lon="2.44469">
        <ele>426.2</ele>
        <time>2014-04-06T13:38:37Z</time>
      </trkpt>
      <trkpt lat="44.39121" lon="2.44481">
        <ele>426.6</ele>
        <time>2014-04-06T13:38:42Z</time>
      </trkpt>
      <trkpt lat="44.39123" lon="2.44496">
        <ele>427.8</ele>
        <time>2014-04-06T13:38:48Z</time>
      </trkpt>
      <trkpt lat="44.39126" lon="2.44516">
        <ele>428.4</ele>
        <time>2014-04-06T13:38:55Z</time>
      </trkpt>
      <trkpt lat="44.39129" lon="2.44535">
        <ele>429.2</ele>
        <time>2014-04-06T13:39:02Z</time>
      </trkpt>
      <trkpt lat="44.39128" lon="2.44548">
        <ele>430</ele>
        <time>2014-04-06T13:39:07Z</time>
      </trkpt>
      <trkpt lat="44.3913" lon="2.44565">
        <ele>430.6</ele>
        <time>2014-04-06T13:39:13Z</time>
      </trkpt>
      <trkpt lat="44.39132" lon="2.4458">
        <ele>430.8</ele>
        <time>2014-04-06T13:39:20Z</time>
      </trkpt>
      <trkpt lat="44.39134" lon="2.44586">
        <ele>431.2</ele>
        <time>2014-04-06T13:39:25Z</time>
      </trkpt>
      <trkpt lat="44.39139" lon="2.44598">
        <ele>432</ele>
        <time>2014-04-06T13:39:31Z</time>
      </trkpt>
      <trkpt lat="44.3914" lon="2.44599">
        <ele>432.2</ele>
        <time>2014-04-06T13:39:32Z</time>
      </trkpt>
      <trkpt lat="44.39145" lon="2.4461">
        <ele>432.8</ele>
        <time>2014-04-06T13:39:37Z</time>
      </trkpt>
      <trkpt lat="44.39146" lon="2.44612">
        <ele>433</ele>
        <time>2014-04-06T13:39:38Z</time>
      </trkpt>
      <trkpt lat="44.3915" lon="2.4463">
        <ele>434.2</ele>
        <time>2014-04-06T13:39:45Z</time>
      </trkpt>
      <trkpt lat="44.3915" lon="2.44648">
        <ele>435.6</ele>
        <time>2014-04-06T13:39:52Z</time>
      </trkpt>
      <trkpt lat="44.39151" lon="2.4465">
        <ele>435.8</ele>
        <time>2014-04-06T13:39:53Z</time>
      </trkpt>
      <trkpt lat="44.39154" lon="2.44667">
        <ele>437.2</ele>
        <time>2014-04-06T13:40:00Z</time>
      </trkpt>
      <trkpt lat="44.39157" lon="2.44675">
        <ele>438.2</ele>
        <time>2014-04-06T13:40:05Z</time>
      </trkpt>
      <trkpt lat="44.39162" lon="2.44683">
        <ele>439.4</ele>
        <time>2014-04-06T13:40:11Z</time>
      </trkpt>
      <trkpt lat="44.3917" lon="2.44693">
        <ele>440.6</ele>
        <time>2014-04-06T13:40:18Z</time>
      </trkpt>
      <trkpt lat="44.3918" lon="2.44706">
        <ele>442</ele>
        <time>2014-04-06T13:40:28Z</time>
      </trkpt>
      <trkpt lat="44.3919" lon="2.44713">
        <ele>443</ele>
        <time>2014-04-06T13:40:36Z</time>
      </trkpt>
      <trkpt lat="44.39191" lon="2.44714">
        <ele>443</ele>
        <time>2014-04-06T13:40:37Z</time>
      </trkpt>
      <trkpt lat="44.39195" lon="2.4471">
        <ele>443.8</ele>
        <time>2014-04-06T13:40:43Z</time>
      </trkpt>
      <trkpt lat="44.39193" lon="2.44703">
        <ele>444.6</ele>
        <time>2014-04-06T13:40:48Z</time>
      </trkpt>
      <trkpt lat="44.39187" lon="2.44695">
        <ele>445.2</ele>
        <time>2014-04-06T13:40:54Z</time>
      </trkpt>
      <trkpt lat="44.39184" lon="2.44684">
        <ele>445.4</ele>
        <time>2014-04-06T13:41:01Z</time>
      </trkpt>
      <trkpt lat="44.39182" lon="2.4467">
        <ele>445.6</ele>
        <time>2014-04-06T13:41:08Z</time>
      </trkpt>
      <trkpt lat="44.39185" lon="2.44655">
        <ele>445.6</ele>
        <time>2014-04-06T13:41:16Z</time>
      </trkpt>
      <trkpt lat="44.39187" lon="2.44648">
        <ele>445.6</ele>
        <time>2014-04-06T13:41:20Z</time>
      </trkpt>
      <trkpt lat="44.39194" lon="2.44637">
        <ele>445.6</ele>
        <time>2014-04-06T13:41:27Z</time>
      </trkpt>
      <trkpt lat="44.39196" lon="2.44633">
        <ele>445.6</ele>
        <time>2014-04-06T13:41:29Z</time>
      </trkpt>
      <trkpt lat="44.392" lon="2.44626">
        <ele>445.6</ele>
        <time>2014-04-06T13:41:33Z</time>
      </trkpt>
      <trkpt lat="44.39202" lon="2.44605">
        <ele>445.8</ele>
        <time>2014-04-06T13:41:40Z</time>
      </trkpt>
      <trkpt lat="44.39202" lon="2.44588">
        <ele>445.8</ele>
        <time>2014-04-06T13:41:46Z</time>
      </trkpt>
      <trkpt lat="44.39202" lon="2.44587">
        <ele>445.8</ele>
        <time>2014-04-06T13:41:47Z</time>
      </trkpt>
      <trkpt lat="44.39207" lon="2.44591">
        <ele>445.8</ele>
        <time>2014-04-06T13:41:50Z</time>
      </trkpt>
      <trkpt lat="44.39207" lon="2.44592">
        <ele>446</ele>
        <time>2014-04-06T13:41:51Z</time>
      </trkpt>
      <trkpt lat="44.39214" lon="2.44611">
        <ele>447</ele>
        <time>2014-04-06T13:41:59Z</time>
      </trkpt>
      <trkpt lat="44.39214" lon="2.44624">
        <ele>448</ele>
        <time>2014-04-06T13:42:04Z</time>
      </trkpt>
      <trkpt lat="44.39211" lon="2.44639">
        <ele>448.8</ele>
        <time>2014-04-06T13:42:09Z</time>
      </trkpt>
      <trkpt lat="44.39211" lon="2.44658">
        <ele>450</ele>
        <time>2014-04-06T13:42:16Z</time>
      </trkpt>
      <trkpt lat="44.39211" lon="2.44661">
        <ele>450.2</ele>
        <time>2014-04-06T13:42:17Z</time>
      </trkpt>
      <trkpt lat="44.39219" lon="2.44665">
        <ele>451</ele>
        <time>2014-04-06T13:42:22Z</time>
      </trkpt>
      <trkpt lat="44.39226" lon="2.44663">
        <ele>451.4</ele>
        <time>2014-04-06T13:42:26Z</time>
      </trkpt>
      <trkpt lat="44.39234" lon="2.4466">
        <ele>452.6</ele>
        <time>2014-04-06T13:42:32Z</time>
      </trkpt>
      <trkpt lat="44.39236" lon="2.44659">
        <ele>452.8</ele>
        <time>2014-04-06T13:42:33Z</time>
      </trkpt>
      <trkpt lat="44.39239" lon="2.44658">
        <ele>453.4</ele>
        <time>2014-04-06T13:42:37Z</time>
      </trkpt>
      <trkpt lat="44.39248" lon="2.44658">
        <ele>454.4</ele>
        <time>2014-04-06T13:42:44Z</time>
      </trkpt>
      <trkpt lat="44.39249" lon="2.44658">
        <ele>454.6</ele>
        <time>2014-04-06T13:42:45Z</time>
      </trkpt>
      <trkpt lat="44.39256" lon="2.44656">
        <ele>455.2</ele>
        <time>2014-04-06T13:42:50Z</time>
      </trkpt>
      <trkpt lat="44.39257" lon="2.44656">
        <ele>455.4</ele>
        <time>2014-04-06T13:42:51Z</time>
      </trkpt>
      <trkpt lat="44.39263" lon="2.44659">
        <ele>455.8</ele>
        <time>2014-04-06T13:42:55Z</time>
      </trkpt>
      <trkpt lat="44.39268" lon="2.44666">
        <ele>457</ele>
        <time>2014-04-06T13:43:00Z</time>
      </trkpt>
      <trkpt lat="44.39275" lon="2.44678">
        <ele>458.4</ele>
        <time>2014-04-06T13:43:07Z</time>
      </trkpt>
      <trkpt lat="44.39281" lon="2.4469">
        <ele>460.4</ele>
        <time>2014-04-06T13:43:14Z</time>
      </trkpt>
      <trkpt lat="44.39286" lon="2.447">
        <ele>461.8</ele>
        <time>2014-04-06T13:43:19Z</time>
      </trkpt>
      <trkpt lat="44.39293" lon="2.44716">
        <ele>464.4</ele>
        <time>2014-04-06T13:43:27Z</time>
      </trkpt>
      <trkpt lat="44.39295" lon="2.4472">
        <ele>464.8</ele>
        <time>2014-04-06T13:43:29Z</time>
      </trkpt>
      <trkpt lat="44.393" lon="2.44725">
        <ele>466</ele>
        <time>2014-04-06T13:43:33Z</time>
      </trkpt>
      <trkpt lat="44.39311" lon="2.44732">
        <ele>468.8</ele>
        <time>2014-04-06T13:43:43Z</time>
      </trkpt>
      <trkpt lat="44.39312" lon="2.44732">
        <ele>469.2</ele>
        <time>2014-04-06T13:43:44Z</time>
      </trkpt>
      <trkpt lat="44.39316" lon="2.44731">
        <ele>470.6</ele>
        <time>2014-04-06T13:43:51Z</time>
      </trkpt>
      <trkpt lat="44.39317" lon="2.44731">
        <ele>471</ele>
        <time>2014-04-06T13:43:52Z</time>
      </trkpt>
      <trkpt lat="44.39324" lon="2.44727">
        <ele>472</ele>
        <time>2014-04-06T13:43:57Z</time>
      </trkpt>
      <trkpt lat="44.3933" lon="2.44724">
        <ele>472.6</ele>
        <time>2014-04-06T13:44:01Z</time>
      </trkpt>
      <trkpt lat="44.39339" lon="2.4472">
        <ele>473.4</ele>
        <time>2014-04-06T13:44:07Z</time>
      </trkpt>
      <trkpt lat="44.39346" lon="2.44715">
        <ele>474.4</ele>
        <time>2014-04-06T13:44:13Z</time>
      </trkpt>
      <trkpt lat="44.3935" lon="2.44714">
        <ele>474.8</ele>
        <time>2014-04-06T13:44:17Z</time>
      </trkpt>
      <trkpt lat="44.39354" lon="2.44713">
        <ele>475</ele>
        <time>2014-04-06T13:44:22Z</time>
      </trkpt>
      <trkpt lat="44.39358" lon="2.4471">
        <ele>475.2</ele>
        <time>2014-04-06T13:44:27Z</time>
      </trkpt>
      <trkpt lat="44.3936" lon="2.44709">
        <ele>475.6</ele>
        <time>2014-04-06T13:44:29Z</time>
      </trkpt>
      <trkpt lat="44.39363" lon="2.44708">
        <ele>476.4</ele>
        <time>2014-04-06T13:44:34Z</time>
      </trkpt>
      <trkpt lat="44.39361" lon="2.4471">
        <ele>476.8</ele>
        <time>2014-04-06T13:44:39Z</time>
      </trkpt>
      <trkpt lat="44.39352" lon="2.44712">
        <ele>478</ele>
        <time>2014-04-06T13:44:47Z</time>
      </trkpt>
      <trkpt lat="44.39352" lon="2.44712">
        <ele>478.2</ele>
        <time>2014-04-06T13:44:48Z</time>
      </trkpt>
      <trkpt lat="44.39348" lon="2.44716">
        <ele>478.8</ele>
        <time>2014-04-06T13:44:54Z</time>
      </trkpt>
      <trkpt lat="44.39346" lon="2.44717">
        <ele>479</ele>
        <time>2014-04-06T13:44:56Z</time>
      </trkpt>
      <trkpt lat="44.39339" lon="2.44722">
        <ele>479.2</ele>
        <time>2014-04-06T13:45:02Z</time>
      </trkpt>
      <trkpt lat="44.39325" lon="2.44732">
        <ele>479.4</ele>
        <time>2014-04-06T13:45:13Z</time>
      </trkpt>
      <trkpt lat="44.39315" lon="2.44736">
        <ele>479.6</ele>
        <time>2014-04-06T13:45:20Z</time>
      </trkpt>
      <trkpt lat="44.39312" lon="2.44737">
        <ele>479.6</ele>
        <time>2014-04-06T13:45:22Z</time>
      </trkpt>
      <trkpt lat="44.39307" lon="2.44734">
        <ele>479.6</ele>
        <time>2014-04-06T13:45:26Z</time>
      </trkpt>
      <trkpt lat="44.39301" lon="2.44729">
        <ele>479.6</ele>
        <time>2014-04-06T13:45:31Z</time>
      </trkpt>
      <trkpt lat="44.39293" lon="2.44717">
        <ele>479.6</ele>
        <time>2014-04-06T13:45:38Z</time>
      </trkpt>
      <trkpt lat="44.39288" lon="2.44706">
        <ele>479.6</ele>
        <time>2014-04-06T13:45:45Z</time>
      </trkpt>
      <trkpt lat="44.39289" lon="2.44697">
        <ele>478.6</ele>
        <time>2014-04-06T13:45:50Z</time>
      </trkpt>
      <trkpt lat="44.3929" lon="2.44696">
        <ele>478.6</ele>
        <time>2014-04-06T13:45:51Z</time>
      </trkpt>
      <trkpt lat="44.39292" lon="2.44695">
        <ele>478.4</ele>
        <time>2014-04-06T13:45:53Z</time>
      </trkpt>
      <trkpt lat="44.39294" lon="2.4469">
        <ele>478</ele>
        <time>2014-04-06T13:45:56Z</time>
      </trkpt>
      <trkpt lat="44.39294" lon="2.44679">
        <ele>477.8</ele>
        <time>2014-04-06T13:46:01Z</time>
      </trkpt>
      <trkpt lat="44.39294" lon="2.44677">
        <ele>477.8</ele>
        <time>2014-04-06T13:46:02Z</time>
      </trkpt>
      <trkpt lat="44.39294" lon="2.44672">
        <ele>477.8</ele>
        <time>2014-04-06T13:46:04Z</time>
      </trkpt>
      <trkpt lat="44.39296" lon="2.44669">
        <ele>477.6</ele>
        <time>2014-04-06T13:46:06Z</time>
      </trkpt>
      <trkpt lat="44.39298" lon="2.44669">
        <ele>477.6</ele>
        <time>2014-04-06T13:46:09Z</time>
      </trkpt>
      <trkpt lat="44.39298" lon="2.44669">
        <ele>477.6</ele>
        <time>2014-04-06T13:46:10Z</time>
      </trkpt>
      <trkpt lat="44.393" lon="2.44662">
        <ele>477.6</ele>
        <time>2014-04-06T13:46:14Z</time>
      </trkpt>
      <trkpt lat="44.39302" lon="2.44654">
        <ele>477.4</ele>
        <time>2014-04-06T13:46:19Z</time>
      </trkpt>
      <trkpt lat="44.39303" lon="2.44649">
        <ele>477.4</ele>
        <time>2014-04-06T13:46:22Z</time>
      </trkpt>
      <trkpt lat="44.39303" lon="2.44647">
        <ele>477.4</ele>
        <time>2014-04-06T13:46:23Z</time>
      </trkpt>
      <trkpt lat="44.39304" lon="2.44636">
        <ele>477.4</ele>
        <time>2014-04-06T13:46:30Z</time>
      </trkpt>
      <trkpt lat="44.39307" lon="2.44634">
        <ele>477.4</ele>
        <time>2014-04-06T13:46:34Z</time>
      </trkpt>
      <trkpt lat="44.39309" lon="2.44641">
        <ele>478.4</ele>
        <time>2014-04-06T13:46:40Z</time>
      </trkpt>
      <trkpt lat="44.3931" lon="2.44641">
        <ele>478.6</ele>
        <time>2014-04-06T13:46:42Z</time>
      </trkpt>
      <trkpt lat="44.39314" lon="2.44636">
        <ele>480</ele>
        <time>2014-04-06T13:46:48Z</time>
      </trkpt>
      <trkpt lat="44.39317" lon="2.44628">
        <ele>481.4</ele>
        <time>2014-04-06T13:46:54Z</time>
      </trkpt>
      <trkpt lat="44.39321" lon="2.4462">
        <ele>482.4</ele>
        <time>2014-04-06T13:47:00Z</time>
      </trkpt>
      <trkpt lat="44.39324" lon="2.44618">
        <ele>482.8</ele>
        <time>2014-04-06T13:47:03Z</time>
      </trkpt>
      <trkpt lat="44.39327" lon="2.44612">
        <ele>483.6</ele>
        <time>2014-04-06T13:47:07Z</time>
      </trkpt>
      <trkpt lat="44.39337" lon="2.44611">
        <ele>485.2</ele>
        <time>2014-04-06T13:47:17Z</time>
      </trkpt>
      <trkpt lat="44.39346" lon="2.44613">
        <ele>487</ele>
        <time>2014-04-06T13:47:26Z</time>
      </trkpt>
      <trkpt lat="44.39347" lon="2.44614">
        <ele>487.4</ele>
        <time>2014-04-06T13:47:27Z</time>
      </trkpt>
      <trkpt lat="44.39352" lon="2.44613">
        <ele>488.6</ele>
        <time>2014-04-06T13:47:32Z</time>
      </trkpt>
      <trkpt lat="44.39353" lon="2.44613">
        <ele>488.6</ele>
        <time>2014-04-06T13:47:33Z</time>
      </trkpt>
      <trkpt lat="44.39358" lon="2.44614">
        <ele>490</ele>
        <time>2014-04-06T13:47:37Z</time>
      </trkpt>
      <trkpt lat="44.39359" lon="2.44614">
        <ele>490.2</ele>
        <time>2014-04-06T13:47:38Z</time>
      </trkpt>
      <trkpt lat="44.39365" lon="2.44615">
        <ele>492</ele>
        <time>2014-04-06T13:47:44Z</time>
      </trkpt>
      <trkpt lat="44.39375" lon="2.44617">
        <ele>494.2</ele>
        <time>2014-04-06T13:47:51Z</time>
      </trkpt>
      <trkpt lat="44.39376" lon="2.44617">
        <ele>494.4</ele>
        <time>2014-04-06T13:47:52Z</time>
      </trkpt>
      <trkpt lat="44.39383" lon="2.44617">
        <ele>496.4</ele>
        <time>2014-04-06T13:47:58Z</time>
      </trkpt>
      <trkpt lat="44.3939" lon="2.44618">
        <ele>498</ele>
        <time>2014-04-06T13:48:04Z</time>
      </trkpt>
      <trkpt lat="44.39392" lon="2.44619">
        <ele>498.6</ele>
        <time>2014-04-06T13:48:06Z</time>
      </trkpt>
      <trkpt lat="44.394" lon="2.44619">
        <ele>500.8</ele>
        <time>2014-04-06T13:48:13Z</time>
      </trkpt>
      <trkpt lat="44.39407" lon="2.44625">
        <ele>502.4</ele>
        <time>2014-04-06T13:48:18Z</time>
      </trkpt>
      <trkpt lat="44.39414" lon="2.44628">
        <ele>504</ele>
        <time>2014-04-06T13:48:24Z</time>
      </trkpt>
      <trkpt lat="44.39423" lon="2.44629">
        <ele>505.8</ele>
        <time>2014-04-06T13:48:31Z</time>
      </trkpt>
      <trkpt lat="44.39428" lon="2.44625">
        <ele>507</ele>
        <time>2014-04-06T13:48:36Z</time>
      </trkpt>
      <trkpt lat="44.39431" lon="2.44624">
        <ele>507.8</ele>
        <time>2014-04-06T13:48:39Z</time>
      </trkpt>
      <trkpt lat="44.39435" lon="2.44622">
        <ele>508.4</ele>
        <time>2014-04-06T13:48:43Z</time>
      </trkpt>
      <trkpt lat="44.39444" lon="2.44619">
        <ele>509.2</ele>
        <time>2014-04-06T13:48:49Z</time>
      </trkpt>
      <trkpt lat="44.39448" lon="2.44616">
        <ele>510</ele>
        <time>2014-04-06T13:48:53Z</time>
      </trkpt>
      <trkpt lat="44.39452" lon="2.44613">
        <ele>510.6</ele>
        <time>2014-04-06T13:48:57Z</time>
      </trkpt>
      <trkpt lat="44.39453" lon="2.44611">
        <ele>510.8</ele>
        <time>2014-04-06T13:48:59Z</time>
      </trkpt>
      <trkpt lat="44.39459" lon="2.44607">
        <ele>511.6</ele>
        <time>2014-04-06T13:49:03Z</time>
      </trkpt>
      <trkpt lat="44.39462" lon="2.44606">
        <ele>512.2</ele>
        <time>2014-04-06T13:49:06Z</time>
      </trkpt>
      <trkpt lat="44.39466" lon="2.44603">
        <ele>512.6</ele>
        <time>2014-04-06T13:49:09Z</time>
      </trkpt>
      <trkpt lat="44.39473" lon="2.44599">
        <ele>513.4</ele>
        <time>2014-04-06T13:49:15Z</time>
      </trkpt>
      <trkpt lat="44.39474" lon="2.44598">
        <ele>513.6</ele>
        <time>2014-04-06T13:49:16Z</time>
      </trkpt>
      <trkpt lat="44.39478" lon="2.44596">
        <ele>514.2</ele>
        <time>2014-04-06T13:49:19Z</time>
      </trkpt>
      <trkpt lat="44.39488" lon="2.44585">
        <ele>516.2</ele>
        <time>2014-04-06T13:49:31Z</time>
      </trkpt>
      <trkpt lat="44.39492" lon="2.44582">
        <ele>516.8</ele>
        <time>2014-04-06T13:49:35Z</time>
      </trkpt>
      <trkpt lat="44.39494" lon="2.4458">
        <ele>517.2</ele>
        <time>2014-04-06T13:49:37Z</time>
      </trkpt>
      <trkpt lat="44.39498" lon="2.44576">
        <ele>518.4</ele>
        <time>2014-04-06T13:49:42Z</time>
      </trkpt>
      <trkpt lat="44.39503" lon="2.44572">
        <ele>519.4</ele>
        <time>2014-04-06T13:49:47Z</time>
      </trkpt>
      <trkpt lat="44.39505" lon="2.44571">
        <ele>520</ele>
        <time>2014-04-06T13:49:49Z</time>
      </trkpt>
      <trkpt lat="44.3951" lon="2.44565">
        <ele>521.4</ele>
        <time>2014-04-06T13:49:56Z</time>
      </trkpt>
      <trkpt lat="44.39511" lon="2.44564">
        <ele>521.8</ele>
        <time>2014-04-06T13:49:57Z</time>
      </trkpt>
      <trkpt lat="44.39514" lon="2.44563">
        <ele>522.4</ele>
        <time>2014-04-06T13:50:00Z</time>
      </trkpt>
      <trkpt lat="44.39517" lon="2.44557">
        <ele>524.2</ele>
        <time>2014-04-06T13:50:07Z</time>
      </trkpt>
      <trkpt lat="44.39519" lon="2.44555">
        <ele>524.8</ele>
        <time>2014-04-06T13:50:10Z</time>
      </trkpt>
      <trkpt lat="44.39523" lon="2.44551">
        <ele>526.8</ele>
        <time>2014-04-06T13:50:18Z</time>
      </trkpt>
      <trkpt lat="44.39527" lon="2.44548">
        <ele>528.4</ele>
        <time>2014-04-06T13:50:24Z</time>
      </trkpt>
      <trkpt lat="44.39531" lon="2.44548">
        <ele>530</ele>
        <time>2014-04-06T13:50:29Z</time>
      </trkpt>
      <trkpt lat="44.39535" lon="2.44546">
        <ele>531.8</ele>
        <time>2014-04-06T13:50:35Z</time>
      </trkpt>
      <trkpt lat="44.39536" lon="2.44545">
        <ele>532</ele>
        <time>2014-04-06T13:50:36Z</time>
      </trkpt>
      <trkpt lat="44.3954" lon="2.44542">
        <ele>534</ele>
        <time>2014-04-06T13:50:41Z</time>
      </trkpt>
      <trkpt lat="44.39543" lon="2.4454">
        <ele>534.6</ele>
        <time>2014-04-06T13:50:43Z</time>
      </trkpt>
      <trkpt lat="44.39546" lon="2.44537">
        <ele>536</ele>
        <time>2014-04-06T13:50:47Z</time>
      </trkpt>
      <trkpt lat="44.39551" lon="2.44536">
        <ele>537.8</ele>
        <time>2014-04-06T13:50:52Z</time>
      </trkpt>
      <trkpt lat="44.39555" lon="2.44534">
        <ele>539.6</ele>
        <time>2014-04-06T13:50:58Z</time>
      </trkpt>
      <trkpt lat="44.39562" lon="2.44529">
        <ele>541.4</ele>
        <time>2014-04-06T13:51:05Z</time>
      </trkpt>
      <trkpt lat="44.39562" lon="2.44529">
        <ele>541.8</ele>
        <time>2014-04-06T13:51:06Z</time>
      </trkpt>
      <trkpt lat="44.39564" lon="2.44528">
        <ele>542.4</ele>
        <time>2014-04-06T13:51:08Z</time>
      </trkpt>
      <trkpt lat="44.39568" lon="2.44527">
        <ele>543.2</ele>
        <time>2014-04-06T13:51:12Z</time>
      </trkpt>
      <trkpt lat="44.39569" lon="2.44527">
        <ele>543.6</ele>
        <time>2014-04-06T13:51:14Z</time>
      </trkpt>
      <trkpt lat="44.39574" lon="2.44525">
        <ele>544.8</ele>
        <time>2014-04-06T13:51:18Z</time>
      </trkpt>
      <trkpt lat="44.39581" lon="2.44523">
        <ele>545.8</ele>
        <time>2014-04-06T13:51:24Z</time>
      </trkpt>
      <trkpt lat="44.39586" lon="2.44522">
        <ele>546.8</ele>
        <time>2014-04-06T13:51:28Z</time>
      </trkpt>
      <trkpt lat="44.3959" lon="2.44519">
        <ele>547.8</ele>
        <time>2014-04-06T13:51:32Z</time>
      </trkpt>
      <trkpt lat="44.39592" lon="2.44518">
        <ele>548</ele>
        <time>2014-04-06T13:51:34Z</time>
      </trkpt>
      <trkpt lat="44.39598" lon="2.44514">
        <ele>548.6</ele>
        <time>2014-04-06T13:51:40Z</time>
      </trkpt>
      <trkpt lat="44.39601" lon="2.44512">
        <ele>548.8</ele>
        <time>2014-04-06T13:51:42Z</time>
      </trkpt>
      <trkpt lat="44.39607" lon="2.44507">
        <ele>549</ele>
        <time>2014-04-06T13:51:48Z</time>
      </trkpt>
      <trkpt lat="44.39616" lon="2.44505">
        <ele>549.8</ele>
        <time>2014-04-06T13:51:56Z</time>
      </trkpt>
      <trkpt lat="44.39617" lon="2.44505">
        <ele>549.8</ele>
        <time>2014-04-06T13:51:57Z</time>
      </trkpt>
      <trkpt lat="44.3962" lon="2.44508">
        <ele>550.2</ele>
        <time>2014-04-06T13:52:00Z</time>
      </trkpt>
      <trkpt lat="44.39619" lon="2.4452">
        <ele>550.8</ele>
        <time>2014-04-06T13:52:07Z</time>
      </trkpt>
      <trkpt lat="44.39615" lon="2.44537">
        <ele>551.2</ele>
        <time>2014-04-06T13:52:15Z</time>
      </trkpt>
      <trkpt lat="44.39609" lon="2.44553">
        <ele>551.2</ele>
        <time>2014-04-06T13:52:22Z</time>
      </trkpt>
      <trkpt lat="44.39603" lon="2.44569">
        <ele>550.4</ele>
        <time>2014-04-06T13:52:29Z</time>
      </trkpt>
      <trkpt lat="44.39601" lon="2.44575">
        <ele>550.2</ele>
        <time>2014-04-06T13:52:32Z</time>
      </trkpt>
      <trkpt lat="44.396" lon="2.44579">
        <ele>549.2</ele>
        <time>2014-04-06T13:52:37Z</time>
      </trkpt>
      <trkpt lat="44.39596" lon="2.4459">
        <ele>548.2</ele>
        <time>2014-04-06T13:52:43Z</time>
      </trkpt>
      <trkpt lat="44.39592" lon="2.44604">
        <ele>547</ele>
        <time>2014-04-06T13:52:49Z</time>
      </trkpt>
      <trkpt lat="44.39588" lon="2.44614">
        <ele>546</ele>
        <time>2014-04-06T13:52:54Z</time>
      </trkpt>
      <trkpt lat="44.39583" lon="2.44629">
        <ele>544.4</ele>
        <time>2014-04-06T13:53:01Z</time>
      </trkpt>
      <trkpt lat="44.39579" lon="2.44638">
        <ele>543.4</ele>
        <time>2014-04-06T13:53:06Z</time>
      </trkpt>
      <trkpt lat="44.39578" lon="2.44643">
        <ele>542.8</ele>
        <time>2014-04-06T13:53:09Z</time>
      </trkpt>
      <trkpt lat="44.39574" lon="2.4465">
        <ele>542</ele>
        <time>2014-04-06T13:53:13Z</time>
      </trkpt>
      <trkpt lat="44.39572" lon="2.44654">
        <ele>541.6</ele>
        <time>2014-04-06T13:53:15Z</time>
      </trkpt>
      <trkpt lat="44.39566" lon="2.44668">
        <ele>540</ele>
        <time>2014-04-06T13:53:22Z</time>
      </trkpt>
      <trkpt lat="44.39557" lon="2.44688">
        <ele>537.4</ele>
        <time>2014-04-06T13:53:31Z</time>
      </trkpt>
      <trkpt lat="44.39551" lon="2.44699">
        <ele>536</ele>
        <time>2014-04-06T13:53:36Z</time>
      </trkpt>
      <trkpt lat="44.39545" lon="2.44717">
        <ele>533.6</ele>
        <time>2014-04-06T13:53:43Z</time>
      </trkpt>
      <trkpt lat="44.39544" lon="2.4472">
        <ele>533.2</ele>
        <time>2014-04-06T13:53:44Z</time>
      </trkpt>
      <trkpt lat="44.39538" lon="2.44731">
        <ele>531.6</ele>
        <time>2014-04-06T13:53:49Z</time>
      </trkpt>
      <trkpt lat="44.39536" lon="2.44732">
        <ele>531.2</ele>
        <time>2014-04-06T13:53:50Z</time>
      </trkpt>
      <trkpt lat="44.39532" lon="2.44737">
        <ele>530.4</ele>
        <time>2014-04-06T13:53:53Z</time>
      </trkpt>
      <trkpt lat="44.39525" lon="2.44751">
        <ele>528.2</ele>
        <time>2014-04-06T13:53:59Z</time>
      </trkpt>
      <trkpt lat="44.39518" lon="2.4476">
        <ele>526.4</ele>
        <time>2014-04-06T13:54:04Z</time>
      </trkpt>
      <trkpt lat="44.39515" lon="2.44767">
        <ele>525.4</ele>
        <time>2014-04-06T13:54:07Z</time>
      </trkpt>
      <trkpt lat="44.39507" lon="2.44775">
        <ele>523</ele>
        <time>2014-04-06T13:54:12Z</time>
      </trkpt>
      <trkpt lat="44.39499" lon="2.44783">
        <ele>521</ele>
        <time>2014-04-06T13:54:17Z</time>
      </trkpt>
      <trkpt lat="44.3949" lon="2.44792">
        <ele>519.2</ele>
        <time>2014-04-06T13:54:22Z</time>
      </trkpt>
      <trkpt lat="44.39483" lon="2.44807">
        <ele>517.2</ele>
        <time>2014-04-06T13:54:28Z</time>
      </trkpt>
      <trkpt lat="44.39478" lon="2.44815">
        <ele>515.8</ele>
        <time>2014-04-06T13:54:31Z</time>
      </trkpt>
      <trkpt lat="44.39473" lon="2.44827">
        <ele>514.8</ele>
        <time>2014-04-06T13:54:35Z</time>
      </trkpt>
      <trkpt lat="44.39467" lon="2.44852">
        <ele>512.4</ele>
        <time>2014-04-06T13:54:42Z</time>
      </trkpt>
      <trkpt lat="44.39467" lon="2.44854">
        <ele>512</ele>
        <time>2014-04-06T13:54:43Z</time>
      </trkpt>
      <trkpt lat="44.39466" lon="2.44862">
        <ele>510.2</ele>
        <time>2014-04-06T13:54:49Z</time>
      </trkpt>
      <trkpt lat="44.39462" lon="2.44889">
        <ele>508.2</ele>
        <time>2014-04-06T13:54:56Z</time>
      </trkpt>
      <trkpt lat="44.39457" lon="2.44914">
        <ele>506.8</ele>
        <time>2014-04-06T13:55:03Z</time>
      </trkpt>
      <trkpt lat="44.39451" lon="2.44937">
        <ele>505.6</ele>
        <time>2014-04-06T13:55:09Z</time>
      </trkpt>
      <trkpt lat="44.39444" lon="2.44965">
        <ele>504.4</ele>
        <time>2014-04-06T13:55:16Z</time>
      </trkpt>
      <trkpt lat="44.39442" lon="2.44988">
        <ele>503.2</ele>
        <time>2014-04-06T13:55:22Z</time>
      </trkpt>
      <trkpt lat="44.39443" lon="2.45007">
        <ele>502.2</ele>
        <time>2014-04-06T13:55:27Z</time>
      </trkpt>
      <trkpt lat="44.39445" lon="2.45029">
        <ele>501</ele>
        <time>2014-04-06T13:55:33Z</time>
      </trkpt>
      <trkpt lat="44.3945" lon="2.45047">
        <ele>499.6</ele>
        <time>2014-04-06T13:55:38Z</time>
      </trkpt>
      <trkpt lat="44.39458" lon="2.45061">
        <ele>498.8</ele>
        <time>2014-04-06T13:55:43Z</time>
      </trkpt>
      <trkpt lat="44.39465" lon="2.45076">
        <ele>497.4</ele>
        <time>2014-04-06T13:55:48Z</time>
      </trkpt>
      <trkpt lat="44.39474" lon="2.45092">
        <ele>496.2</ele>
        <time>2014-04-06T13:55:53Z</time>
      </trkpt>
      <trkpt lat="44.3948" lon="2.45108">
        <ele>495</ele>
        <time>2014-04-06T13:55:58Z</time>
      </trkpt>
      <trkpt lat="44.39483" lon="2.45119">
        <ele>494.6</ele>
        <time>2014-04-06T13:56:01Z</time>
      </trkpt>
      <trkpt lat="44.39492" lon="2.45135">
        <ele>493.2</ele>
        <time>2014-04-06T13:56:07Z</time>
      </trkpt>
      <trkpt lat="44.39497" lon="2.45142">
        <ele>492.6</ele>
        <time>2014-04-06T13:56:10Z</time>
      </trkpt>
      <trkpt lat="44.39507" lon="2.45152">
        <ele>491.4</ele>
        <time>2014-04-06T13:56:15Z</time>
      </trkpt>
      <trkpt lat="44.39509" lon="2.45154">
        <ele>491.2</ele>
        <time>2014-04-06T13:56:16Z</time>
      </trkpt>
      <trkpt lat="44.3951" lon="2.45157">
        <ele>491</ele>
        <time>2014-04-06T13:56:17Z</time>
      </trkpt>
      <trkpt lat="44.39516" lon="2.45174">
        <ele>489.8</ele>
        <time>2014-04-06T13:56:23Z</time>
      </trkpt>
      <trkpt lat="44.39524" lon="2.45184">
        <ele>488.6</ele>
        <time>2014-04-06T13:56:28Z</time>
      </trkpt>
      <trkpt lat="44.39529" lon="2.45191">
        <ele>487.8</ele>
        <time>2014-04-06T13:56:32Z</time>
      </trkpt>
      <trkpt lat="44.39535" lon="2.45198">
        <ele>486.8</ele>
        <time>2014-04-06T13:56:36Z</time>
      </trkpt>
      <trkpt lat="44.39547" lon="2.4521">
        <ele>485.4</ele>
        <time>2014-04-06T13:56:43Z</time>
      </trkpt>
      <trkpt lat="44.39555" lon="2.4522">
        <ele>484.2</ele>
        <time>2014-04-06T13:56:48Z</time>
      </trkpt>
      <trkpt lat="44.3956" lon="2.45223">
        <ele>483.8</ele>
        <time>2014-04-06T13:56:51Z</time>
      </trkpt>
      <trkpt lat="44.39568" lon="2.45235">
        <ele>482.4</ele>
        <time>2014-04-06T13:56:57Z</time>
      </trkpt>
      <trkpt lat="44.39574" lon="2.45242">
        <ele>481.4</ele>
        <time>2014-04-06T13:57:02Z</time>
      </trkpt>
      <trkpt lat="44.39575" lon="2.45243">
        <ele>481</ele>
        <time>2014-04-06T13:57:03Z</time>
      </trkpt>
      <trkpt lat="44.39579" lon="2.4525">
        <ele>480.2</ele>
        <time>2014-04-06T13:57:07Z</time>
      </trkpt>
      <trkpt lat="44.39582" lon="2.45255">
        <ele>479.4</ele>
        <time>2014-04-06T13:57:11Z</time>
      </trkpt>
      <trkpt lat="44.39584" lon="2.45267">
        <ele>477.8</ele>
        <time>2014-04-06T13:57:17Z</time>
      </trkpt>
      <trkpt lat="44.39584" lon="2.45269">
        <ele>477.6</ele>
        <time>2014-04-06T13:57:18Z</time>
      </trkpt>
      <trkpt lat="44.39587" lon="2.45277">
        <ele>476.2</ele>
        <time>2014-04-06T13:57:23Z</time>
      </trkpt>
      <trkpt lat="44.39596" lon="2.45284">
        <ele>474.6</ele>
        <time>2014-04-06T13:57:29Z</time>
      </trkpt>
      <trkpt lat="44.39602" lon="2.4529">
        <ele>473.4</ele>
        <time>2014-04-06T13:57:34Z</time>
      </trkpt>
      <trkpt lat="44.39603" lon="2.4529">
        <ele>473.2</ele>
        <time>2014-04-06T13:57:35Z</time>
      </trkpt>
      <trkpt lat="44.39611" lon="2.45294">
        <ele>471.8</ele>
        <time>2014-04-06T13:57:43Z</time>
      </trkpt>
      <trkpt lat="44.39613" lon="2.45296">
        <ele>471.2</ele>
        <time>2014-04-06T13:57:46Z</time>
      </trkpt>
      <trkpt lat="44.39623" lon="2.453">
        <ele>470.4</ele>
        <time>2014-04-06T13:57:53Z</time>
      </trkpt>
      <trkpt lat="44.3963" lon="2.45302">
        <ele>469.8</ele>
        <time>2014-04-06T13:57:58Z</time>
      </trkpt>
      <trkpt lat="44.39634" lon="2.45304">
        <ele>469.2</ele>
        <time>2014-04-06T13:58:01Z</time>
      </trkpt>
      <trkpt lat="44.39644" lon="2.45306">
        <ele>468.2</ele>
        <time>2014-04-06T13:58:09Z</time>
      </trkpt>
      <trkpt lat="44.3965" lon="2.45306">
        <ele>467.2</ele>
        <time>2014-04-06T13:58:15Z</time>
      </trkpt>
      <trkpt lat="44.39657" lon="2.45308">
        <ele>466.6</ele>
        <time>2014-04-06T13:58:20Z</time>
      </trkpt>
      <trkpt lat="44.39662" lon="2.45313">
        <ele>466.2</ele>
        <time>2014-04-06T13:58:24Z</time>
      </trkpt>
      <trkpt lat="44.39662" lon="2.45315">
        <ele>466.2</ele>
        <time>2014-04-06T13:58:25Z</time>
      </trkpt>
      <trkpt lat="44.39662" lon="2.45318">
        <ele>466</ele>
        <time>2014-04-06T13:58:27Z</time>
      </trkpt>
      <trkpt lat="44.39662" lon="2.45325">
        <ele>465.8</ele>
        <time>2014-04-06T13:58:32Z</time>
      </trkpt>
      <trkpt lat="44.39662" lon="2.4533">
        <ele>465.8</ele>
        <time>2014-04-06T13:58:35Z</time>
      </trkpt>
      <trkpt lat="44.39663" lon="2.45332">
        <ele>465.8</ele>
        <time>2014-04-06T13:58:37Z</time>
      </trkpt>
      <trkpt lat="44.39663" lon="2.45332">
        <ele>465.6</ele>
        <time>2014-04-06T13:58:38Z</time>
      </trkpt>
      <trkpt lat="44.39667" lon="2.45335">
        <ele>465.4</ele>
        <time>2014-04-06T13:58:43Z</time>
      </trkpt>
      <trkpt lat="44.39673" lon="2.45335">
        <ele>464.8</ele>
        <time>2014-04-06T13:58:47Z</time>
      </trkpt>
      <trkpt lat="44.39678" lon="2.45335">
        <ele>464.2</ele>
        <time>2014-04-06T13:58:52Z</time>
      </trkpt>
      <trkpt lat="44.39687" lon="2.45337">
        <ele>463.8</ele>
        <time>2014-04-06T13:59:00Z</time>
      </trkpt>
      <trkpt lat="44.39688" lon="2.45338">
        <ele>463.8</ele>
        <time>2014-04-06T13:59:01Z</time>
      </trkpt>
      <trkpt lat="44.39694" lon="2.45339">
        <ele>463.6</ele>
        <time>2014-04-06T13:59:06Z</time>
      </trkpt>
      <trkpt lat="44.39695" lon="2.45339">
        <ele>463.6</ele>
        <time>2014-04-06T13:59:07Z</time>
      </trkpt>
      <trkpt lat="44.39699" lon="2.45339">
        <ele>463.6</ele>
        <time>2014-04-06T13:59:10Z</time>
      </trkpt>
      <trkpt lat="44.39706" lon="2.45341">
        <ele>463.4</ele>
        <time>2014-04-06T13:59:17Z</time>
      </trkpt>
      <trkpt lat="44.39717" lon="2.45343">
        <ele>463.4</ele>
        <time>2014-04-06T13:59:24Z</time>
      </trkpt>
      <trkpt lat="44.39728" lon="2.45346">
        <ele>463.4</ele>
        <time>2014-04-06T13:59:30Z</time>
      </trkpt>
      <trkpt lat="44.39731" lon="2.45346">
        <ele>463.4</ele>
        <time>2014-04-06T13:59:32Z</time>
      </trkpt>
      <trkpt lat="44.39737" lon="2.4535">
        <ele>463.4</ele>
        <time>2014-04-06T13:59:35Z</time>
      </trkpt>
      <trkpt lat="44.39734" lon="2.45358">
        <ele>463.4</ele>
        <time>2014-04-06T13:59:40Z</time>
      </trkpt>
      <trkpt lat="44.39731" lon="2.45359">
        <ele>463.4</ele>
        <time>2014-04-06T13:59:42Z</time>
      </trkpt>
      <trkpt lat="44.3972" lon="2.4536">
        <ele>463.4</ele>
        <time>2014-04-06T13:59:49Z</time>
      </trkpt>
      <trkpt lat="44.3971" lon="2.45365">
        <ele>463.4</ele>
        <time>2014-04-06T13:59:55Z</time>
      </trkpt>
      <trkpt lat="44.39702" lon="2.45367">
        <ele>463.4</ele>
        <time>2014-04-06T14:00:00Z</time>
      </trkpt>
      <trkpt lat="44.39701" lon="2.45368">
        <ele>463.4</ele>
        <time>2014-04-06T14:00:01Z</time>
      </trkpt>
      <trkpt lat="44.39689" lon="2.45375">
        <ele>464</ele>
        <time>2014-04-06T14:00:08Z</time>
      </trkpt>
      <trkpt lat="44.39679" lon="2.45381">
        <ele>464.8</ele>
        <time>2014-04-06T14:00:14Z</time>
      </trkpt>
      <trkpt lat="44.39671" lon="2.45386">
        <ele>465</ele>
        <time>2014-04-06T14:00:19Z</time>
      </trkpt>
      <trkpt lat="44.39661" lon="2.45392">
        <ele>466</ele>
        <time>2014-04-06T14:00:25Z</time>
      </trkpt>
      <trkpt lat="44.39652" lon="2.45395">
        <ele>466.6</ele>
        <time>2014-04-06T14:00:30Z</time>
      </trkpt>
      <trkpt lat="44.39642" lon="2.45398">
        <ele>467.2</ele>
        <time>2014-04-06T14:00:35Z</time>
      </trkpt>
      <trkpt lat="44.39639" lon="2.45399">
        <ele>467.8</ele>
        <time>2014-04-06T14:00:37Z</time>
      </trkpt>
      <trkpt lat="44.39629" lon="2.45404">
        <ele>468.6</ele>
        <time>2014-04-06T14:00:43Z</time>
      </trkpt>
      <trkpt lat="44.39619" lon="2.45408">
        <ele>469.8</ele>
        <time>2014-04-06T14:00:48Z</time>
      </trkpt>
      <trkpt lat="44.39608" lon="2.45414">
        <ele>471.2</ele>
        <time>2014-04-06T14:00:54Z</time>
      </trkpt>
      <trkpt lat="44.39595" lon="2.45421">
        <ele>472.6</ele>
        <time>2014-04-06T14:01:01Z</time>
      </trkpt>
      <trkpt lat="44.39591" lon="2.45423">
        <ele>473</ele>
        <time>2014-04-06T14:01:03Z</time>
      </trkpt>
      <trkpt lat="44.39578" lon="2.45428">
        <ele>474.2</ele>
        <time>2014-04-06T14:01:10Z</time>
      </trkpt>
      <trkpt lat="44.39565" lon="2.45438">
        <ele>475.2</ele>
        <time>2014-04-06T14:01:17Z</time>
      </trkpt>
      <trkpt lat="44.39552" lon="2.4545">
        <ele>476.4</ele>
        <time>2014-04-06T14:01:25Z</time>
      </trkpt>
      <trkpt lat="44.39541" lon="2.45462">
        <ele>477.6</ele>
        <time>2014-04-06T14:01:32Z</time>
      </trkpt>
      <trkpt lat="44.39531" lon="2.45476">
        <ele>479</ele>
        <time>2014-04-06T14:01:39Z</time>
      </trkpt>
      <trkpt lat="44.39523" lon="2.4549">
        <ele>480.6</ele>
        <time>2014-04-06T14:01:46Z</time>
      </trkpt>
      <trkpt lat="44.39517" lon="2.45506">
        <ele>482.4</ele>
        <time>2014-04-06T14:01:53Z</time>
      </trkpt>
      <trkpt lat="44.39514" lon="2.45523">
        <ele>484</ele>
        <time>2014-04-06T14:02:00Z</time>
      </trkpt>
      <trkpt lat="44.39511" lon="2.45538">
        <ele>485.4</ele>
        <time>2014-04-06T14:02:07Z</time>
      </trkpt>
      <trkpt lat="44.39508" lon="2.45555">
        <ele>487.2</ele>
        <time>2014-04-06T14:02:14Z</time>
      </trkpt>
      <trkpt lat="44.39507" lon="2.45573">
        <ele>488.4</ele>
        <time>2014-04-06T14:02:21Z</time>
      </trkpt>
      <trkpt lat="44.39509" lon="2.4559">
        <ele>489.6</ele>
        <time>2014-04-06T14:02:27Z</time>
      </trkpt>
      <trkpt lat="44.39513" lon="2.45606">
        <ele>490.8</ele>
        <time>2014-04-06T14:02:33Z</time>
      </trkpt>
      <trkpt lat="44.39518" lon="2.4562">
        <ele>491.8</ele>
        <time>2014-04-06T14:02:39Z</time>
      </trkpt>
      <trkpt lat="44.39525" lon="2.45637">
        <ele>492.8</ele>
        <time>2014-04-06T14:02:46Z</time>
      </trkpt>
      <trkpt lat="44.39532" lon="2.45654">
        <ele>493.8</ele>
        <time>2014-04-06T14:02:53Z</time>
      </trkpt>
      <trkpt lat="44.3954" lon="2.45667">
        <ele>494.8</ele>
        <time>2014-04-06T14:02:59Z</time>
      </trkpt>
      <trkpt lat="44.39547" lon="2.45681">
        <ele>495.8</ele>
        <time>2014-04-06T14:03:05Z</time>
      </trkpt>
      <trkpt lat="44.39561" lon="2.45708">
        <ele>498</ele>
        <time>2014-04-06T14:03:19Z</time>
      </trkpt>
      <trkpt lat="44.39563" lon="2.45718">
        <ele>498.6</ele>
        <time>2014-04-06T14:03:23Z</time>
      </trkpt>
      <trkpt lat="44.39557" lon="2.45732">
        <ele>499.8</ele>
        <time>2014-04-06T14:03:29Z</time>
      </trkpt>
      <trkpt lat="44.39556" lon="2.45733">
        <ele>499.8</ele>
        <time>2014-04-06T14:03:30Z</time>
      </trkpt>
      <trkpt lat="44.39541" lon="2.45741">
        <ele>501.8</ele>
        <time>2014-04-06T14:03:38Z</time>
      </trkpt>
      <trkpt lat="44.39539" lon="2.45742">
        <ele>502.2</ele>
        <time>2014-04-06T14:03:39Z</time>
      </trkpt>
      <trkpt lat="44.39532" lon="2.45746">
        <ele>503.4</ele>
        <time>2014-04-06T14:03:44Z</time>
      </trkpt>
      <trkpt lat="44.3952" lon="2.45754">
        <ele>505.4</ele>
        <time>2014-04-06T14:03:52Z</time>
      </trkpt>
      <trkpt lat="44.39509" lon="2.45762">
        <ele>506.6</ele>
        <time>2014-04-06T14:04:00Z</time>
      </trkpt>
      <trkpt lat="44.39506" lon="2.45765">
        <ele>506.8</ele>
        <time>2014-04-06T14:04:03Z</time>
      </trkpt>
      <trkpt lat="44.39498" lon="2.45775">
        <ele>507.4</ele>
        <time>2014-04-06T14:04:12Z</time>
      </trkpt>
      <trkpt lat="44.39488" lon="2.45785">
        <ele>508.8</ele>
        <time>2014-04-06T14:04:22Z</time>
      </trkpt>
      <trkpt lat="44.3948" lon="2.45793">
        <ele>509.2</ele>
        <time>2014-04-06T14:04:29Z</time>
      </trkpt>
      <trkpt lat="44.39473" lon="2.45805">
        <ele>509.4</ele>
        <time>2014-04-06T14:04:37Z</time>
      </trkpt>
      <trkpt lat="44.39468" lon="2.45819">
        <ele>510.4</ele>
        <time>2014-04-06T14:04:44Z</time>
      </trkpt>
      <trkpt lat="44.39463" lon="2.45834">
        <ele>511.8</ele>
        <time>2014-04-06T14:04:52Z</time>
      </trkpt>
      <trkpt lat="44.39459" lon="2.45847">
        <ele>513.4</ele>
        <time>2014-04-06T14:05:00Z</time>
      </trkpt>
      <trkpt lat="44.39451" lon="2.45864">
        <ele>515</ele>
        <time>2014-04-06T14:05:09Z</time>
      </trkpt>
      <trkpt lat="44.39447" lon="2.45877">
        <ele>516.4</ele>
        <time>2014-04-06T14:05:15Z</time>
      </trkpt>
      <trkpt lat="44.39442" lon="2.45891">
        <ele>517.2</ele>
        <time>2014-04-06T14:05:21Z</time>
      </trkpt>
      <trkpt lat="44.39441" lon="2.45896">
        <ele>517.6</ele>
        <time>2014-04-06T14:05:23Z</time>
      </trkpt>
      <trkpt lat="44.3944" lon="2.45899">
        <ele>518</ele>
        <time>2014-04-06T14:05:24Z</time>
      </trkpt>
      <trkpt lat="44.39434" lon="2.45914">
        <ele>519</ele>
        <time>2014-04-06T14:05:30Z</time>
      </trkpt>
      <trkpt lat="44.39428" lon="2.45928">
        <ele>520</ele>
        <time>2014-04-06T14:05:36Z</time>
      </trkpt>
      <trkpt lat="44.39425" lon="2.45941">
        <ele>521.2</ele>
        <time>2014-04-06T14:05:42Z</time>
      </trkpt>
      <trkpt lat="44.39421" lon="2.45953">
        <ele>522.4</ele>
        <time>2014-04-06T14:05:49Z</time>
      </trkpt>
      <trkpt lat="44.39416" lon="2.45968">
        <ele>524.2</ele>
        <time>2014-04-06T14:05:58Z</time>
      </trkpt>
      <trkpt lat="44.39411" lon="2.45978">
        <ele>525.4</ele>
        <time>2014-04-06T14:06:04Z</time>
      </trkpt>
      <trkpt lat="44.39403" lon="2.4599">
        <ele>526.8</ele>
        <time>2014-04-06T14:06:12Z</time>
      </trkpt>
      <trkpt lat="44.39402" lon="2.45991">
        <ele>527</ele>
        <time>2014-04-06T14:06:13Z</time>
      </trkpt>
      <trkpt lat="44.39394" lon="2.46003">
        <ele>528.2</ele>
        <time>2014-04-06T14:06:21Z</time>
      </trkpt>
      <trkpt lat="44.39383" lon="2.46016">
        <ele>529.6</ele>
        <time>2014-04-06T14:06:31Z</time>
      </trkpt>
      <trkpt lat="44.39375" lon="2.46024">
        <ele>530.4</ele>
        <time>2014-04-06T14:06:39Z</time>
      </trkpt>
      <trkpt lat="44.39368" lon="2.46033">
        <ele>530.6</ele>
        <time>2014-04-06T14:06:46Z</time>
      </trkpt>
      <trkpt lat="44.39364" lon="2.46043">
        <ele>531.6</ele>
        <time>2014-04-06T14:06:52Z</time>
      </trkpt>
      <trkpt lat="44.39357" lon="2.4606">
        <ele>533</ele>
        <time>2014-04-06T14:07:02Z</time>
      </trkpt>
      <trkpt lat="44.39356" lon="2.46062">
        <ele>533.2</ele>
        <time>2014-04-06T14:07:03Z</time>
      </trkpt>
      <trkpt lat="44.39352" lon="2.4607">
        <ele>534</ele>
        <time>2014-04-06T14:07:08Z</time>
      </trkpt>
      <trkpt lat="44.3935" lon="2.46074">
        <ele>534.2</ele>
        <time>2014-04-06T14:07:11Z</time>
      </trkpt>
      <trkpt lat="44.39344" lon="2.46093">
        <ele>535.8</ele>
        <time>2014-04-06T14:07:23Z</time>
      </trkpt>
      <trkpt lat="44.39342" lon="2.46109">
        <ele>536.6</ele>
        <time>2014-04-06T14:07:31Z</time>
      </trkpt>
      <trkpt lat="44.39338" lon="2.46123">
        <ele>538</ele>
        <time>2014-04-06T14:07:39Z</time>
      </trkpt>
      <trkpt lat="44.39333" lon="2.46135">
        <ele>538.6</ele>
        <time>2014-04-06T14:07:45Z</time>
      </trkpt>
      <trkpt lat="44.39331" lon="2.46144">
        <ele>539.2</ele>
        <time>2014-04-06T14:07:48Z</time>
      </trkpt>
      <trkpt lat="44.39323" lon="2.46164">
        <ele>540.2</ele>
        <time>2014-04-06T14:07:55Z</time>
      </trkpt>
      <trkpt lat="44.39317" lon="2.46187">
        <ele>540.8</ele>
        <time>2014-04-06T14:08:02Z</time>
      </trkpt>
      <trkpt lat="44.39315" lon="2.46206">
        <ele>541</ele>
        <time>2014-04-06T14:08:08Z</time>
      </trkpt>
      <trkpt lat="44.39315" lon="2.46224">
        <ele>541.8</ele>
        <time>2014-04-06T14:08:14Z</time>
      </trkpt>
      <trkpt lat="44.39315" lon="2.46244">
        <ele>542.6</ele>
        <time>2014-04-06T14:08:21Z</time>
      </trkpt>
      <trkpt lat="44.39312" lon="2.4626">
        <ele>543</ele>
        <time>2014-04-06T14:08:27Z</time>
      </trkpt>
      <trkpt lat="44.39305" lon="2.46269">
        <ele>544</ele>
        <time>2014-04-06T14:08:32Z</time>
      </trkpt>
      <trkpt lat="44.39291" lon="2.46267">
        <ele>544.6</ele>
        <time>2014-04-06T14:08:38Z</time>
      </trkpt>
      <trkpt lat="44.39288" lon="2.46264">
        <ele>544.8</ele>
        <time>2014-04-06T14:08:40Z</time>
      </trkpt>
      <trkpt lat="44.39277" lon="2.4625">
        <ele>545.6</ele>
        <time>2014-04-06T14:08:46Z</time>
      </trkpt>
      <trkpt lat="44.39267" lon="2.4624">
        <ele>546.4</ele>
        <time>2014-04-06T14:08:51Z</time>
      </trkpt>
      <trkpt lat="44.39255" lon="2.46233">
        <ele>546.8</ele>
        <time>2014-04-06T14:08:56Z</time>
      </trkpt>
      <trkpt lat="44.39244" lon="2.46227">
        <ele>547.2</ele>
        <time>2014-04-06T14:09:01Z</time>
      </trkpt>
      <trkpt lat="44.39237" lon="2.46214">
        <ele>547.2</ele>
        <time>2014-04-06T14:09:06Z</time>
      </trkpt>
      <trkpt lat="44.39234" lon="2.46204">
        <ele>547.4</ele>
        <time>2014-04-06T14:09:09Z</time>
      </trkpt>
      <trkpt lat="44.39229" lon="2.4619">
        <ele>547.4</ele>
        <time>2014-04-06T14:09:13Z</time>
      </trkpt>
      <trkpt lat="44.39219" lon="2.46174">
        <ele>546.6</ele>
        <time>2014-04-06T14:09:19Z</time>
      </trkpt>
      <trkpt lat="44.39207" lon="2.46163">
        <ele>546.2</ele>
        <time>2014-04-06T14:09:24Z</time>
      </trkpt>
      <trkpt lat="44.39193" lon="2.46156">
        <ele>545.8</ele>
        <time>2014-04-06T14:09:30Z</time>
      </trkpt>
      <trkpt lat="44.39181" lon="2.46153">
        <ele>545.6</ele>
        <time>2014-04-06T14:09:35Z</time>
      </trkpt>
      <trkpt lat="44.39178" lon="2.46151">
        <ele>545.6</ele>
        <time>2014-04-06T14:09:37Z</time>
      </trkpt>
      <trkpt lat="44.39176" lon="2.46139">
        <ele>545.6</ele>
        <time>2014-04-06T14:09:42Z</time>
      </trkpt>
      <trkpt lat="44.39176" lon="2.4612">
        <ele>545.6</ele>
        <time>2014-04-06T14:09:47Z</time>
      </trkpt>
      <trkpt lat="44.39177" lon="2.46117">
        <ele>545.6</ele>
        <time>2014-04-06T14:09:48Z</time>
      </trkpt>
      <trkpt lat="44.39179" lon="2.46109">
        <ele>545.4</ele>
        <time>2014-04-06T14:09:50Z</time>
      </trkpt>
      <trkpt lat="44.39181" lon="2.46102">
        <ele>545.4</ele>
        <time>2014-04-06T14:09:52Z</time>
      </trkpt>
      <trkpt lat="44.39181" lon="2.46086">
        <ele>545.4</ele>
        <time>2014-04-06T14:09:56Z</time>
      </trkpt>
      <trkpt lat="44.39182" lon="2.46063">
        <ele>544.4</ele>
        <time>2014-04-06T14:10:02Z</time>
      </trkpt>
      <trkpt lat="44.39183" lon="2.46048">
        <ele>544.2</ele>
        <time>2014-04-06T14:10:06Z</time>
      </trkpt>
      <trkpt lat="44.39184" lon="2.46045">
        <ele>544</ele>
        <time>2014-04-06T14:10:07Z</time>
      </trkpt>
      <trkpt lat="44.39185" lon="2.46041">
        <ele>544</ele>
        <time>2014-04-06T14:10:08Z</time>
      </trkpt>
      <trkpt lat="44.39184" lon="2.4602">
        <ele>543.2</ele>
        <time>2014-04-06T14:10:13Z</time>
      </trkpt>
      <trkpt lat="44.39184" lon="2.46015">
        <ele>543</ele>
        <time>2014-04-06T14:10:14Z</time>
      </trkpt>
      <trkpt lat="44.39187" lon="2.45992">
        <ele>542.2</ele>
        <time>2014-04-06T14:10:20Z</time>
      </trkpt>
      <trkpt lat="44.39187" lon="2.45984">
        <ele>541.6</ele>
        <time>2014-04-06T14:10:22Z</time>
      </trkpt>
      <trkpt lat="44.39183" lon="2.45963">
        <ele>540.6</ele>
        <time>2014-04-06T14:10:27Z</time>
      </trkpt>
      <trkpt lat="44.39179" lon="2.45953">
        <ele>539.6</ele>
        <time>2014-04-06T14:10:30Z</time>
      </trkpt>
      <trkpt lat="44.39168" lon="2.45945">
        <ele>538.4</ele>
        <time>2014-04-06T14:10:35Z</time>
      </trkpt>
      <trkpt lat="44.39158" lon="2.45937">
        <ele>537.2</ele>
        <time>2014-04-06T14:10:40Z</time>
      </trkpt>
      <trkpt lat="44.39156" lon="2.45924">
        <ele>536.4</ele>
        <time>2014-04-06T14:10:44Z</time>
      </trkpt>
      <trkpt lat="44.39157" lon="2.45908">
        <ele>535.8</ele>
        <time>2014-04-06T14:10:48Z</time>
      </trkpt>
      <trkpt lat="44.39158" lon="2.45904">
        <ele>535.6</ele>
        <time>2014-04-06T14:10:49Z</time>
      </trkpt>
      <trkpt lat="44.39158" lon="2.45885">
        <ele>535.2</ele>
        <time>2014-04-06T14:10:54Z</time>
      </trkpt>
      <trkpt lat="44.39157" lon="2.45865">
        <ele>534.8</ele>
        <time>2014-04-06T14:10:59Z</time>
      </trkpt>
      <trkpt lat="44.39157" lon="2.4586">
        <ele>534.6</ele>
        <time>2014-04-06T14:11:00Z</time>
      </trkpt>
      <trkpt lat="44.39154" lon="2.45842">
        <ele>534</ele>
        <time>2014-04-06T14:11:04Z</time>
      </trkpt>
      <trkpt lat="44.39152" lon="2.45826">
        <ele>533.6</ele>
        <time>2014-04-06T14:11:08Z</time>
      </trkpt>
      <trkpt lat="44.39152" lon="2.45822">
        <ele>533.4</ele>
        <time>2014-04-06T14:11:09Z</time>
      </trkpt>
      <trkpt lat="44.39155" lon="2.45813">
        <ele>532.6</ele>
        <time>2014-04-06T14:11:12Z</time>
      </trkpt>
      <trkpt lat="44.39154" lon="2.45801">
        <ele>532</ele>
        <time>2014-04-06T14:11:16Z</time>
      </trkpt>
      <trkpt lat="44.39152" lon="2.45793">
        <ele>531.8</ele>
        <time>2014-04-06T14:11:18Z</time>
      </trkpt>
      <trkpt lat="44.39151" lon="2.4577">
        <ele>531.2</ele>
        <time>2014-04-06T14:11:24Z</time>
      </trkpt>
      <trkpt lat="44.3915" lon="2.45767">
        <ele>531.2</ele>
        <time>2014-04-06T14:11:25Z</time>
      </trkpt>
      <trkpt lat="44.3915" lon="2.45749">
        <ele>531</ele>
        <time>2014-04-06T14:11:29Z</time>
      </trkpt>
      <trkpt lat="44.39152" lon="2.45727">
        <ele>530.4</ele>
        <time>2014-04-06T14:11:35Z</time>
      </trkpt>
      <trkpt lat="44.39152" lon="2.45702">
        <ele>529.6</ele>
        <time>2014-04-06T14:11:41Z</time>
      </trkpt>
      <trkpt lat="44.39149" lon="2.45686">
        <ele>529.4</ele>
        <time>2014-04-06T14:11:44Z</time>
      </trkpt>
      <trkpt lat="44.39151" lon="2.45671">
        <ele>529</ele>
        <time>2014-04-06T14:11:48Z</time>
      </trkpt>
      <trkpt lat="44.39152" lon="2.45663">
        <ele>529</ele>
        <time>2014-04-06T14:11:50Z</time>
      </trkpt>
      <trkpt lat="44.39155" lon="2.45649">
        <ele>528.8</ele>
        <time>2014-04-06T14:11:54Z</time>
      </trkpt>
      <trkpt lat="44.3915" lon="2.4563">
        <ele>528.4</ele>
        <time>2014-04-06T14:11:58Z</time>
      </trkpt>
      <trkpt lat="44.3915" lon="2.45614">
        <ele>527.8</ele>
        <time>2014-04-06T14:12:02Z</time>
      </trkpt>
      <trkpt lat="44.39149" lon="2.45611">
        <ele>527.6</ele>
        <time>2014-04-06T14:12:03Z</time>
      </trkpt>
      <trkpt lat="44.39145" lon="2.45602">
        <ele>527.4</ele>
        <time>2014-04-06T14:12:05Z</time>
      </trkpt>
      <trkpt lat="44.39146" lon="2.45592">
        <ele>527.2</ele>
        <time>2014-04-06T14:12:08Z</time>
      </trkpt>
      <trkpt lat="44.39146" lon="2.45589">
        <ele>527.2</ele>
        <time>2014-04-06T14:12:09Z</time>
      </trkpt>
      <trkpt lat="44.39146" lon="2.45573">
        <ele>527</ele>
        <time>2014-04-06T14:12:13Z</time>
      </trkpt>
      <trkpt lat="44.39147" lon="2.45569">
        <ele>527</ele>
        <time>2014-04-06T14:12:14Z</time>
      </trkpt>
      <trkpt lat="44.39147" lon="2.45549">
        <ele>526.8</ele>
        <time>2014-04-06T14:12:19Z</time>
      </trkpt>
      <trkpt lat="44.39148" lon="2.45545">
        <ele>526.8</ele>
        <time>2014-04-06T14:12:20Z</time>
      </trkpt>
      <trkpt lat="44.39149" lon="2.45537">
        <ele>526.8</ele>
        <time>2014-04-06T14:12:22Z</time>
      </trkpt>
      <trkpt lat="44.39147" lon="2.45505">
        <ele>526.6</ele>
        <time>2014-04-06T14:12:29Z</time>
      </trkpt>
      <trkpt lat="44.39148" lon="2.45485">
        <ele>526.6</ele>
        <time>2014-04-06T14:12:34Z</time>
      </trkpt>
      <trkpt lat="44.39149" lon="2.45464">
        <ele>526.6</ele>
        <time>2014-04-06T14:12:40Z</time>
      </trkpt>
      <trkpt lat="44.3915" lon="2.45456">
        <ele>526.6</ele>
        <time>2014-04-06T14:12:43Z</time>
      </trkpt>
      <trkpt lat="44.39147" lon="2.45431">
        <ele>526.6</ele>
        <time>2014-04-06T14:12:50Z</time>
      </trkpt>
      <trkpt lat="44.39147" lon="2.4542">
        <ele>526.6</ele>
        <time>2014-04-06T14:12:54Z</time>
      </trkpt>
      <trkpt lat="44.39145" lon="2.45405">
        <ele>526.6</ele>
        <time>2014-04-06T14:12:59Z</time>
      </trkpt>
      <trkpt lat="44.39144" lon="2.45402">
        <ele>526.6</ele>
        <time>2014-04-06T14:13:00Z</time>
      </trkpt>
      <trkpt lat="44.39142" lon="2.45395">
        <ele>526.6</ele>
        <time>2014-04-06T14:13:02Z</time>
      </trkpt>
      <trkpt lat="44.39142" lon="2.45384">
        <ele>526.6</ele>
        <time>2014-04-06T14:13:06Z</time>
      </trkpt>
      <trkpt lat="44.3914" lon="2.45371">
        <ele>526.6</ele>
        <time>2014-04-06T14:13:11Z</time>
      </trkpt>
      <trkpt lat="44.39136" lon="2.45349">
        <ele>526.6</ele>
        <time>2014-04-06T14:13:19Z</time>
      </trkpt>
      <trkpt lat="44.39135" lon="2.45346">
        <ele>526.6</ele>
        <time>2014-04-06T14:13:20Z</time>
      </trkpt>
      <trkpt lat="44.39133" lon="2.45333">
        <ele>526.6</ele>
        <time>2014-04-06T14:13:25Z</time>
      </trkpt>
      <trkpt lat="44.39131" lon="2.45327">
        <ele>526.6</ele>
        <time>2014-04-06T14:13:27Z</time>
      </trkpt>
      <trkpt lat="44.39126" lon="2.45316">
        <ele>526.6</ele>
        <time>2014-04-06T14:13:31Z</time>
      </trkpt>
      <trkpt lat="44.39119" lon="2.45308">
        <ele>526.6</ele>
        <time>2014-04-06T14:13:35Z</time>
      </trkpt>
      <trkpt lat="44.39106" lon="2.45302">
        <ele>526.6</ele>
        <time>2014-04-06T14:13:41Z</time>
      </trkpt>
      <trkpt lat="44.39097" lon="2.45301">
        <ele>526.6</ele>
        <time>2014-04-06T14:13:46Z</time>
      </trkpt>
      <trkpt lat="44.39086" lon="2.45302">
        <ele>526.6</ele>
        <time>2014-04-06T14:13:52Z</time>
      </trkpt>
      <trkpt lat="44.39075" lon="2.45302">
        <ele>526.6</ele>
        <time>2014-04-06T14:13:58Z</time>
      </trkpt>
      <trkpt lat="44.39073" lon="2.45302">
        <ele>526.6</ele>
        <time>2014-04-06T14:13:59Z</time>
      </trkpt>
      <trkpt lat="44.39065" lon="2.45303">
        <ele>526.6</ele>
        <time>2014-04-06T14:14:04Z</time>
      </trkpt>
      <trkpt lat="44.39063" lon="2.45303">
        <ele>526.6</ele>
        <time>2014-04-06T14:14:05Z</time>
      </trkpt>
      <trkpt lat="44.39049" lon="2.45301">
        <ele>526.6</ele>
        <time>2014-04-06T14:14:11Z</time>
      </trkpt>
      <trkpt lat="44.39042" lon="2.453">
        <ele>526.6</ele>
        <time>2014-04-06T14:14:14Z</time>
      </trkpt>
      <trkpt lat="44.39033" lon="2.45304">
        <ele>526.6</ele>
        <time>2014-04-06T14:14:19Z</time>
      </trkpt>
      <trkpt lat="44.3903" lon="2.45306">
        <ele>526.6</ele>
        <time>2014-04-06T14:14:21Z</time>
      </trkpt>
      <trkpt lat="44.39014" lon="2.45309">
        <ele>527.4</ele>
        <time>2014-04-06T14:14:27Z</time>
      </trkpt>
      <trkpt lat="44.38997" lon="2.45312">
        <ele>528</ele>
        <time>2014-04-06T14:14:33Z</time>
      </trkpt>
      <trkpt lat="44.38983" lon="2.45316">
        <ele>528.2</ele>
        <time>2014-04-06T14:14:38Z</time>
      </trkpt>
      <trkpt lat="44.38969" lon="2.45322">
        <ele>529.2</ele>
        <time>2014-04-06T14:14:44Z</time>
      </trkpt>
      <trkpt lat="44.38954" lon="2.4533">
        <ele>530</ele>
        <time>2014-04-06T14:14:50Z</time>
      </trkpt>
      <trkpt lat="44.38941" lon="2.45333">
        <ele>530.4</ele>
        <time>2014-04-06T14:14:56Z</time>
      </trkpt>
      <trkpt lat="44.38926" lon="2.45339">
        <ele>530.4</ele>
        <time>2014-04-06T14:15:02Z</time>
      </trkpt>
      <trkpt lat="44.38914" lon="2.45347">
        <ele>531.6</ele>
        <time>2014-04-06T14:15:08Z</time>
      </trkpt>
      <trkpt lat="44.38904" lon="2.45358">
        <ele>532</ele>
        <time>2014-04-06T14:15:13Z</time>
      </trkpt>
      <trkpt lat="44.38892" lon="2.45373">
        <ele>532.4</ele>
        <time>2014-04-06T14:15:20Z</time>
      </trkpt>
      <trkpt lat="44.38878" lon="2.45392">
        <ele>532.6</ele>
        <time>2014-04-06T14:15:27Z</time>
      </trkpt>
      <trkpt lat="44.3887" lon="2.45405">
        <ele>532.6</ele>
        <time>2014-04-06T14:15:32Z</time>
      </trkpt>
      <trkpt lat="44.38859" lon="2.4542">
        <ele>532.6</ele>
        <time>2014-04-06T14:15:38Z</time>
      </trkpt>
      <trkpt lat="44.38846" lon="2.45438">
        <ele>532.6</ele>
        <time>2014-04-06T14:15:45Z</time>
      </trkpt>
      <trkpt lat="44.38837" lon="2.45451">
        <ele>532.6</ele>
        <time>2014-04-06T14:15:50Z</time>
      </trkpt>
      <trkpt lat="44.38825" lon="2.45469">
        <ele>533.6</ele>
        <time>2014-04-06T14:15:57Z</time>
      </trkpt>
      <trkpt lat="44.38816" lon="2.45483">
        <ele>534.2</ele>
        <time>2014-04-06T14:16:02Z</time>
      </trkpt>
      <trkpt lat="44.3881" lon="2.45497">
        <ele>534.4</ele>
        <time>2014-04-06T14:16:07Z</time>
      </trkpt>
      <trkpt lat="44.38806" lon="2.45515">
        <ele>534.6</ele>
        <time>2014-04-06T14:16:13Z</time>
      </trkpt>
      <trkpt lat="44.38799" lon="2.45536">
        <ele>534.8</ele>
        <time>2014-04-06T14:16:20Z</time>
      </trkpt>
      <trkpt lat="44.38799" lon="2.45537">
        <ele>534.8</ele>
        <time>2014-04-06T14:16:21Z</time>
      </trkpt>
      <trkpt lat="44.38796" lon="2.45549">
        <ele>534.8</ele>
        <time>2014-04-06T14:16:27Z</time>
      </trkpt>
      <trkpt lat="44.38795" lon="2.45557">
        <ele>534.8</ele>
        <time>2014-04-06T14:16:32Z</time>
      </trkpt>
      <trkpt lat="44.38789" lon="2.4557">
        <ele>534.8</ele>
        <time>2014-04-06T14:16:40Z</time>
      </trkpt>
      <trkpt lat="44.38785" lon="2.4558">
        <ele>535.4</ele>
        <time>2014-04-06T14:16:46Z</time>
      </trkpt>
      <trkpt lat="44.38782" lon="2.45589">
        <ele>536</ele>
        <time>2014-04-06T14:16:51Z</time>
      </trkpt>
      <trkpt lat="44.38775" lon="2.456">
        <ele>536.4</ele>
        <time>2014-04-06T14:16:58Z</time>
      </trkpt>
      <trkpt lat="44.3877" lon="2.45613">
        <ele>536.6</ele>
        <time>2014-04-06T14:17:05Z</time>
      </trkpt>
      <trkpt lat="44.38766" lon="2.45641">
        <ele>537.2</ele>
        <time>2014-04-06T14:17:17Z</time>
      </trkpt>
      <trkpt lat="44.38765" lon="2.45656">
        <ele>538</ele>
        <time>2014-04-06T14:17:23Z</time>
      </trkpt>
      <trkpt lat="44.38762" lon="2.45677">
        <ele>539</ele>
        <time>2014-04-06T14:17:31Z</time>
      </trkpt>
      <trkpt lat="44.3876" lon="2.45691">
        <ele>539.8</ele>
        <time>2014-04-06T14:17:36Z</time>
      </trkpt>
      <trkpt lat="44.38759" lon="2.45708">
        <ele>540.4</ele>
        <time>2014-04-06T14:17:43Z</time>
      </trkpt>
      <trkpt lat="44.38755" lon="2.45724">
        <ele>541.8</ele>
        <time>2014-04-06T14:17:50Z</time>
      </trkpt>
      <trkpt lat="44.38755" lon="2.4573">
        <ele>542</ele>
        <time>2014-04-06T14:17:52Z</time>
      </trkpt>
      <trkpt lat="44.3875" lon="2.45741">
        <ele>542.4</ele>
        <time>2014-04-06T14:17:57Z</time>
      </trkpt>
      <trkpt lat="44.38744" lon="2.4575">
        <ele>542.8</ele>
        <time>2014-04-06T14:18:02Z</time>
      </trkpt>
      <trkpt lat="44.3872" lon="2.45778">
        <ele>544.4</ele>
        <time>2014-04-06T14:18:18Z</time>
      </trkpt>
      <trkpt lat="44.38711" lon="2.45793">
        <ele>544.8</ele>
        <time>2014-04-06T14:18:24Z</time>
      </trkpt>
      <trkpt lat="44.38701" lon="2.45807">
        <ele>545</ele>
        <time>2014-04-06T14:18:30Z</time>
      </trkpt>
      <trkpt lat="44.38692" lon="2.45821">
        <ele>545</ele>
        <time>2014-04-06T14:18:36Z</time>
      </trkpt>
      <trkpt lat="44.38685" lon="2.45831">
        <ele>545</ele>
        <time>2014-04-06T14:18:40Z</time>
      </trkpt>
      <trkpt lat="44.38674" lon="2.45847">
        <ele>545.8</ele>
        <time>2014-04-06T14:18:46Z</time>
      </trkpt>
      <trkpt lat="44.38664" lon="2.45858">
        <ele>546.4</ele>
        <time>2014-04-06T14:18:51Z</time>
      </trkpt>
      <trkpt lat="44.3865" lon="2.4587">
        <ele>546.8</ele>
        <time>2014-04-06T14:18:57Z</time>
      </trkpt>
      <trkpt lat="44.3864" lon="2.45877">
        <ele>547</ele>
        <time>2014-04-06T14:19:02Z</time>
      </trkpt>
      <trkpt lat="44.38629" lon="2.45886">
        <ele>547.6</ele>
        <time>2014-04-06T14:19:08Z</time>
      </trkpt>
      <trkpt lat="44.38621" lon="2.45891">
        <ele>548.4</ele>
        <time>2014-04-06T14:19:14Z</time>
      </trkpt>
      <trkpt lat="44.38617" lon="2.45892">
        <ele>548.6</ele>
        <time>2014-04-06T14:19:17Z</time>
      </trkpt>
      <trkpt lat="44.3861" lon="2.45895">
        <ele>549</ele>
        <time>2014-04-06T14:19:23Z</time>
      </trkpt>
      <trkpt lat="44.386" lon="2.459">
        <ele>549.2</ele>
        <time>2014-04-06T14:19:30Z</time>
      </trkpt>
      <trkpt lat="44.38592" lon="2.45903">
        <ele>550.2</ele>
        <time>2014-04-06T14:19:35Z</time>
      </trkpt>
      <trkpt lat="44.38586" lon="2.45908">
        <ele>550.6</ele>
        <time>2014-04-06T14:19:40Z</time>
      </trkpt>
      <trkpt lat="44.38579" lon="2.45911">
        <ele>550.8</ele>
        <time>2014-04-06T14:19:45Z</time>
      </trkpt>
      <trkpt lat="44.38571" lon="2.45915">
        <ele>551</ele>
        <time>2014-04-06T14:19:50Z</time>
      </trkpt>
      <trkpt lat="44.38563" lon="2.4592">
        <ele>552.2</ele>
        <time>2014-04-06T14:19:56Z</time>
      </trkpt>
      <trkpt lat="44.38562" lon="2.45921">
        <ele>552.2</ele>
        <time>2014-04-06T14:19:57Z</time>
      </trkpt>
      <trkpt lat="44.38559" lon="2.45923">
        <ele>552.4</ele>
        <time>2014-04-06T14:19:59Z</time>
      </trkpt>
      <trkpt lat="44.38553" lon="2.45925">
        <ele>552.8</ele>
        <time>2014-04-06T14:20:03Z</time>
      </trkpt>
      <trkpt lat="44.3855" lon="2.45926">
        <ele>553</ele>
        <time>2014-04-06T14:20:06Z</time>
      </trkpt>
      <trkpt lat="44.3854" lon="2.45932">
        <ele>554.2</ele>
        <time>2014-04-06T14:20:13Z</time>
      </trkpt>
      <trkpt lat="44.38532" lon="2.45934">
        <ele>554.6</ele>
        <time>2014-04-06T14:20:18Z</time>
      </trkpt>
      <trkpt lat="44.38521" lon="2.45935">
        <ele>555</ele>
        <time>2014-04-06T14:20:24Z</time>
      </trkpt>
      <trkpt lat="44.38517" lon="2.45935">
        <ele>555.2</ele>
        <time>2014-04-06T14:20:28Z</time>
      </trkpt>
      <trkpt lat="44.38514" lon="2.45936">
        <ele>555.2</ele>
        <time>2014-04-06T14:20:30Z</time>
      </trkpt>
      <trkpt lat="44.38508" lon="2.45935">
        <ele>556.2</ele>
        <time>2014-04-06T14:20:37Z</time>
      </trkpt>
      <trkpt lat="44.38504" lon="2.45935">
        <ele>556.6</ele>
        <time>2014-04-06T14:20:40Z</time>
      </trkpt>
      <trkpt lat="44.38497" lon="2.45935">
        <ele>557</ele>
        <time>2014-04-06T14:20:46Z</time>
      </trkpt>
      <trkpt lat="44.38488" lon="2.45933">
        <ele>557.2</ele>
        <time>2014-04-06T14:20:52Z</time>
      </trkpt>
      <trkpt lat="44.38477" lon="2.45931">
        <ele>557.2</ele>
        <time>2014-04-06T14:20:57Z</time>
      </trkpt>
      <trkpt lat="44.38461" lon="2.45928">
        <ele>557.4</ele>
        <time>2014-04-06T14:21:04Z</time>
      </trkpt>
      <trkpt lat="44.38455" lon="2.45926">
        <ele>557.4</ele>
        <time>2014-04-06T14:21:07Z</time>
      </trkpt>
      <trkpt lat="44.38442" lon="2.4592">
        <ele>557.4</ele>
        <time>2014-04-06T14:21:13Z</time>
      </trkpt>
      <trkpt lat="44.38434" lon="2.45916">
        <ele>557.4</ele>
        <time>2014-04-06T14:21:18Z</time>
      </trkpt>
      <trkpt lat="44.38432" lon="2.45915">
        <ele>557.4</ele>
        <time>2014-04-06T14:21:19Z</time>
      </trkpt>
    </trkseg>
  </trk>
</gpx>